<?xml version="1.0" encoding="UTF-8" standalone="no" ?>
<gpx xmlns="http://www.topografix.com/GPX/1/1" xmlns:xsi="http://www.w3.org/2001/XMLSchema-instance" xsi:schemaLocation="http://www.topografix.com/GPX/1/1 http://www.topografix.com/GPX/1/1/gpx.xsd" version="1.1" creator="VisuGPX - https://www.visugpx.com">
  <metadata>
    <name>Boucle d Apelle Mardi 10 mars 2020</name>
    <desc><![CDATA[
]]></desc>
  </metadata>
  <trk>
    <name><![CDATA[Boucle d Apelle Mardi 10 mars 2020]]></name>
    <trkseg>
      <trkpt lat="43.57094" lon="2.01354">
        <ele>348.99072837025</ele>
        <time>2020-03-10T12:51:29Z</time>
      </trkpt>
      <trkpt lat="43.57094" lon="2.01354">
        <ele>348.99072837025</ele>
        <time>2020-03-10T12:51:45Z</time>
      </trkpt>
      <trkpt lat="43.57085" lon="2.01351">
        <ele>329.58099845103</ele>
        <time>2020-03-10T12:51:50Z</time>
      </trkpt>
      <trkpt lat="43.57093" lon="2.01352">
        <ele>332.60962639344</ele>
        <time>2020-03-10T12:54:42Z</time>
      </trkpt>
      <trkpt lat="43.57102" lon="2.0135">
        <ele>334.32886909391</ele>
        <time>2020-03-10T12:54:51Z</time>
      </trkpt>
      <trkpt lat="43.5711" lon="2.01345">
        <ele>337.82030838115</ele>
        <time>2020-03-10T12:54:59Z</time>
      </trkpt>
      <trkpt lat="43.57118" lon="2.01339">
        <ele>340.61907960126</ele>
        <time>2020-03-10T12:55:08Z</time>
      </trkpt>
      <trkpt lat="43.57126" lon="2.01342">
        <ele>342.07360161226</ele>
        <time>2020-03-10T12:55:14Z</time>
      </trkpt>
      <trkpt lat="43.57134" lon="2.01344">
        <ele>342.96610997992</ele>
        <time>2020-03-10T12:55:22Z</time>
      </trkpt>
      <trkpt lat="43.57143" lon="2.01346">
        <ele>345.26958353203</ele>
        <time>2020-03-10T12:55:30Z</time>
      </trkpt>
      <trkpt lat="43.57151" lon="2.01345">
        <ele>346.7019132705</ele>
        <time>2020-03-10T12:55:37Z</time>
      </trkpt>
      <trkpt lat="43.57157" lon="2.01353">
        <ele>347.78567440606</ele>
        <time>2020-03-10T12:55:53Z</time>
      </trkpt>
      <trkpt lat="43.57165" lon="2.01352">
        <ele>350.08229578176</ele>
        <time>2020-03-10T12:56:07Z</time>
      </trkpt>
      <trkpt lat="43.57173" lon="2.01356">
        <ele>352.21950324396</ele>
        <time>2020-03-10T12:56:12Z</time>
      </trkpt>
      <trkpt lat="43.5718" lon="2.01364">
        <ele>353.56144131045</ele>
        <time>2020-03-10T12:56:21Z</time>
      </trkpt>
      <trkpt lat="43.57186" lon="2.01372">
        <ele>354.656200834</ele>
        <time>2020-03-10T12:56:26Z</time>
      </trkpt>
      <trkpt lat="43.57194" lon="2.0137">
        <ele>354.91605810055</ele>
        <time>2020-03-10T12:56:31Z</time>
      </trkpt>
      <trkpt lat="43.57196" lon="2.01358">
        <ele>358.18013089264</ele>
        <time>2020-03-10T12:56:38Z</time>
      </trkpt>
      <trkpt lat="43.57196" lon="2.01347">
        <ele>357.91996215602</ele>
        <time>2020-03-10T12:56:47Z</time>
      </trkpt>
      <trkpt lat="43.57197" lon="2.01336">
        <ele>355.73770054503</ele>
        <time>2020-03-10T12:56:55Z</time>
      </trkpt>
      <trkpt lat="43.57204" lon="2.01329">
        <ele>355.88417962339</ele>
        <time>2020-03-10T12:57:04Z</time>
      </trkpt>
      <trkpt lat="43.57208" lon="2.01321">
        <ele>355.52484656364</ele>
        <time>2020-03-10T12:57:10Z</time>
      </trkpt>
      <trkpt lat="43.57216" lon="2.01315">
        <ele>354.76927502665</ele>
        <time>2020-03-10T12:57:19Z</time>
      </trkpt>
      <trkpt lat="43.5722" lon="2.01306">
        <ele>354.25967134045</ele>
        <time>2020-03-10T12:57:28Z</time>
      </trkpt>
      <trkpt lat="43.57224" lon="2.01294">
        <ele>354.82843663842</ele>
        <time>2020-03-10T12:57:34Z</time>
      </trkpt>
      <trkpt lat="43.5723" lon="2.01288">
        <ele>355.08085154053</ele>
        <time>2020-03-10T12:57:41Z</time>
      </trkpt>
      <trkpt lat="43.57237" lon="2.01281">
        <ele>355.37800620952</ele>
        <time>2020-03-10T12:57:52Z</time>
      </trkpt>
      <trkpt lat="43.57243" lon="2.01272">
        <ele>356.62014870672</ele>
        <time>2020-03-10T12:58:10Z</time>
      </trkpt>
      <trkpt lat="43.57248" lon="2.01263">
        <ele>359.21520378133</ele>
        <time>2020-03-10T12:58:20Z</time>
      </trkpt>
      <trkpt lat="43.57255" lon="2.01257">
        <ele>360.69389279368</ele>
        <time>2020-03-10T12:58:30Z</time>
      </trkpt>
      <trkpt lat="43.57266" lon="2.01254">
        <ele>360.95005974273</ele>
        <time>2020-03-10T12:58:35Z</time>
      </trkpt>
      <trkpt lat="43.57271" lon="2.01244">
        <ele>359.77101741089</ele>
        <time>2020-03-10T12:58:43Z</time>
      </trkpt>
      <trkpt lat="43.57277" lon="2.01236">
        <ele>359.4186440908</ele>
        <time>2020-03-10T12:58:49Z</time>
      </trkpt>
      <trkpt lat="43.57283" lon="2.01229">
        <ele>359.97850708257</ele>
        <time>2020-03-10T12:58:54Z</time>
      </trkpt>
      <trkpt lat="43.57282" lon="2.01219">
        <ele>360.98526005413</ele>
        <time>2020-03-10T12:58:58Z</time>
      </trkpt>
      <trkpt lat="43.57272" lon="2.01205">
        <ele>360.89902145773</ele>
        <time>2020-03-10T12:59:03Z</time>
      </trkpt>
      <trkpt lat="43.57278" lon="2.01197">
        <ele>360.08190297031</ele>
        <time>2020-03-10T12:59:12Z</time>
      </trkpt>
      <trkpt lat="43.57286" lon="2.01192">
        <ele>357.91435482591</ele>
        <time>2020-03-10T12:59:20Z</time>
      </trkpt>
      <trkpt lat="43.57292" lon="2.01186">
        <ele>356.32140086769</ele>
        <time>2020-03-10T12:59:25Z</time>
      </trkpt>
      <trkpt lat="43.57293" lon="2.01175">
        <ele>355.35674023216</ele>
        <time>2020-03-10T12:59:32Z</time>
      </trkpt>
      <trkpt lat="43.57298" lon="2.01165">
        <ele>355.84263385126</ele>
        <time>2020-03-10T12:59:40Z</time>
      </trkpt>
      <trkpt lat="43.57306" lon="2.01165">
        <ele>356.12167426675</ele>
        <time>2020-03-10T12:59:44Z</time>
      </trkpt>
      <trkpt lat="43.57316" lon="2.01165">
        <ele>355.94438738063</ele>
        <time>2020-03-10T12:59:48Z</time>
      </trkpt>
      <trkpt lat="43.57316" lon="2.01153">
        <ele>354.18336289409</ele>
        <time>2020-03-10T12:59:59Z</time>
      </trkpt>
      <trkpt lat="43.57315" lon="2.01143">
        <ele>353.81598260834</ele>
        <time>2020-03-10T13:00:07Z</time>
      </trkpt>
      <trkpt lat="43.57316" lon="2.01133">
        <ele>353.6243028016</ele>
        <time>2020-03-10T13:00:12Z</time>
      </trkpt>
      <trkpt lat="43.57325" lon="2.0113">
        <ele>353.88078475374</ele>
        <time>2020-03-10T13:00:18Z</time>
      </trkpt>
      <trkpt lat="43.57332" lon="2.01123">
        <ele>354.98930835968</ele>
        <time>2020-03-10T13:00:25Z</time>
      </trkpt>
      <trkpt lat="43.5734" lon="2.01118">
        <ele>353.06776413814</ele>
        <time>2020-03-10T13:00:33Z</time>
      </trkpt>
      <trkpt lat="43.57341" lon="2.01108">
        <ele>351.58052191209</ele>
        <time>2020-03-10T13:00:38Z</time>
      </trkpt>
      <trkpt lat="43.57343" lon="2.01098">
        <ele>349.25009357329</ele>
        <time>2020-03-10T13:00:43Z</time>
      </trkpt>
      <trkpt lat="43.57338" lon="2.01088">
        <ele>348.13345455571</ele>
        <time>2020-03-10T13:00:47Z</time>
      </trkpt>
      <trkpt lat="43.57336" lon="2.01074">
        <ele>345.96961559026</ele>
        <time>2020-03-10T13:00:52Z</time>
      </trkpt>
      <trkpt lat="43.57341" lon="2.01064">
        <ele>343.85690996951</ele>
        <time>2020-03-10T13:01:01Z</time>
      </trkpt>
      <trkpt lat="43.57348" lon="2.01059">
        <ele>346.64414973913</ele>
        <time>2020-03-10T13:01:10Z</time>
      </trkpt>
      <trkpt lat="43.57354" lon="2.01052">
        <ele>349.21206384032</ele>
        <time>2020-03-10T13:01:15Z</time>
      </trkpt>
      <trkpt lat="43.57361" lon="2.01044">
        <ele>347.29690974615</ele>
        <time>2020-03-10T13:01:20Z</time>
      </trkpt>
      <trkpt lat="43.57364" lon="2.01035">
        <ele>345.05703917252</ele>
        <time>2020-03-10T13:01:26Z</time>
      </trkpt>
      <trkpt lat="43.57368" lon="2.01026">
        <ele>344.73059321525</ele>
        <time>2020-03-10T13:01:32Z</time>
      </trkpt>
      <trkpt lat="43.57377" lon="2.01021">
        <ele>346.80886687811</ele>
        <time>2020-03-10T13:01:39Z</time>
      </trkpt>
      <trkpt lat="43.57382" lon="2.01011">
        <ele>345.22742646374</ele>
        <time>2020-03-10T13:01:50Z</time>
      </trkpt>
      <trkpt lat="43.57383" lon="2.01">
        <ele>341.32591792148</ele>
        <time>2020-03-10T13:02:02Z</time>
      </trkpt>
      <trkpt lat="43.57375" lon="2.00993">
        <ele>336.48577887494</ele>
        <time>2020-03-10T13:02:08Z</time>
      </trkpt>
      <trkpt lat="43.57379" lon="2.00983">
        <ele>334.86583894639</ele>
        <time>2020-03-10T13:02:25Z</time>
      </trkpt>
      <trkpt lat="43.57386" lon="2.00978">
        <ele>334.40935457937</ele>
        <time>2020-03-10T13:02:32Z</time>
      </trkpt>
      <trkpt lat="43.57395" lon="2.00974">
        <ele>333.90022679813</ele>
        <time>2020-03-10T13:02:37Z</time>
      </trkpt>
      <trkpt lat="43.57402" lon="2.00968">
        <ele>332.68153027492</ele>
        <time>2020-03-10T13:02:45Z</time>
      </trkpt>
      <trkpt lat="43.57405" lon="2.00956">
        <ele>329.26861334732</ele>
        <time>2020-03-10T13:02:54Z</time>
      </trkpt>
      <trkpt lat="43.57405" lon="2.00944">
        <ele>327.06354423992</ele>
        <time>2020-03-10T13:03:03Z</time>
      </trkpt>
      <trkpt lat="43.57404" lon="2.00934">
        <ele>326.1129306164</ele>
        <time>2020-03-10T13:03:10Z</time>
      </trkpt>
      <trkpt lat="43.57404" lon="2.00923">
        <ele>324.98846874815</ele>
        <time>2020-03-10T13:03:15Z</time>
      </trkpt>
      <trkpt lat="43.57408" lon="2.00913">
        <ele>325.51519475702</ele>
        <time>2020-03-10T13:03:23Z</time>
      </trkpt>
      <trkpt lat="43.57416" lon="2.00907">
        <ele>328.05605898023</ele>
        <time>2020-03-10T13:03:30Z</time>
      </trkpt>
      <trkpt lat="43.57416" lon="2.00895">
        <ele>328.83610173632</ele>
        <time>2020-03-10T13:03:38Z</time>
      </trkpt>
      <trkpt lat="43.57413" lon="2.00885">
        <ele>328.96022274746</ele>
        <time>2020-03-10T13:03:43Z</time>
      </trkpt>
      <trkpt lat="43.57411" lon="2.00875">
        <ele>329.8062318776</ele>
        <time>2020-03-10T13:03:50Z</time>
      </trkpt>
      <trkpt lat="43.57406" lon="2.00866">
        <ele>330.85767232747</ele>
        <time>2020-03-10T13:03:55Z</time>
      </trkpt>
      <trkpt lat="43.57402" lon="2.00857">
        <ele>332.22403536624</ele>
        <time>2020-03-10T13:04:00Z</time>
      </trkpt>
      <trkpt lat="43.574" lon="2.00845">
        <ele>332.27991812654</ele>
        <time>2020-03-10T13:04:07Z</time>
      </trkpt>
      <trkpt lat="43.57404" lon="2.00835">
        <ele>332.39052836034</ele>
        <time>2020-03-10T13:04:21Z</time>
      </trkpt>
      <trkpt lat="43.57405" lon="2.00823">
        <ele>331.64720758262</ele>
        <time>2020-03-10T13:04:29Z</time>
      </trkpt>
      <trkpt lat="43.57404" lon="2.00812">
        <ele>333.06285534745</ele>
        <time>2020-03-10T13:04:37Z</time>
      </trkpt>
      <trkpt lat="43.57404" lon="2.00801">
        <ele>333.38587776682</ele>
        <time>2020-03-10T13:04:44Z</time>
      </trkpt>
      <trkpt lat="43.57404" lon="2.00789">
        <ele>330.76126989079</ele>
        <time>2020-03-10T13:04:51Z</time>
      </trkpt>
      <trkpt lat="43.57405" lon="2.00779">
        <ele>330.10675209098</ele>
        <time>2020-03-10T13:04:58Z</time>
      </trkpt>
      <trkpt lat="43.57408" lon="2.00769">
        <ele>332.25689495548</ele>
        <time>2020-03-10T13:05:04Z</time>
      </trkpt>
      <trkpt lat="43.57409" lon="2.00758">
        <ele>333.13730008113</ele>
        <time>2020-03-10T13:05:11Z</time>
      </trkpt>
      <trkpt lat="43.57409" lon="2.00746">
        <ele>332.97591880717</ele>
        <time>2020-03-10T13:05:19Z</time>
      </trkpt>
      <trkpt lat="43.57409" lon="2.00734">
        <ele>333.23070280166</ele>
        <time>2020-03-10T13:05:28Z</time>
      </trkpt>
      <trkpt lat="43.57412" lon="2.00722">
        <ele>334.14613451249</ele>
        <time>2020-03-10T13:05:33Z</time>
      </trkpt>
      <trkpt lat="43.57414" lon="2.00712">
        <ele>335.73905687967</ele>
        <time>2020-03-10T13:05:38Z</time>
      </trkpt>
      <trkpt lat="43.57417" lon="2.00701">
        <ele>338.05708940497</ele>
        <time>2020-03-10T13:05:44Z</time>
      </trkpt>
      <trkpt lat="43.57419" lon="2.00691">
        <ele>337.6579952057</ele>
        <time>2020-03-10T13:05:52Z</time>
      </trkpt>
      <trkpt lat="43.57419" lon="2.0068">
        <ele>338.52535487544</ele>
        <time>2020-03-10T13:06:00Z</time>
      </trkpt>
      <trkpt lat="43.57421" lon="2.00668">
        <ele>339.54358744414</ele>
        <time>2020-03-10T13:06:08Z</time>
      </trkpt>
      <trkpt lat="43.57422" lon="2.00657">
        <ele>340.2554483922</ele>
        <time>2020-03-10T13:06:16Z</time>
      </trkpt>
      <trkpt lat="43.57424" lon="2.00645">
        <ele>341.00314366959</ele>
        <time>2020-03-10T13:06:23Z</time>
      </trkpt>
      <trkpt lat="43.57423" lon="2.00634">
        <ele>341.10341150783</ele>
        <time>2020-03-10T13:06:30Z</time>
      </trkpt>
      <trkpt lat="43.57425" lon="2.00623">
        <ele>340.01188462639</ele>
        <time>2020-03-10T13:06:36Z</time>
      </trkpt>
      <trkpt lat="43.57425" lon="2.00611">
        <ele>338.8123232842</ele>
        <time>2020-03-10T13:06:42Z</time>
      </trkpt>
      <trkpt lat="43.57424" lon="2.006">
        <ele>337.85373383975</ele>
        <time>2020-03-10T13:06:49Z</time>
      </trkpt>
      <trkpt lat="43.57424" lon="2.00588">
        <ele>336.35113923321</ele>
        <time>2020-03-10T13:06:57Z</time>
      </trkpt>
      <trkpt lat="43.57426" lon="2.00576">
        <ele>336.05005371614</ele>
        <time>2020-03-10T13:07:03Z</time>
      </trkpt>
      <trkpt lat="43.57431" lon="2.00567">
        <ele>337.45374483888</ele>
        <time>2020-03-10T13:07:11Z</time>
      </trkpt>
      <trkpt lat="43.57436" lon="2.00557">
        <ele>336.97594295575</ele>
        <time>2020-03-10T13:07:17Z</time>
      </trkpt>
      <trkpt lat="43.5744" lon="2.00546">
        <ele>336.77288879387</ele>
        <time>2020-03-10T13:07:23Z</time>
      </trkpt>
      <trkpt lat="43.57442" lon="2.00534">
        <ele>336.93001398786</ele>
        <time>2020-03-10T13:07:31Z</time>
      </trkpt>
      <trkpt lat="43.57445" lon="2.00522">
        <ele>336.85916458108</ele>
        <time>2020-03-10T13:07:40Z</time>
      </trkpt>
      <trkpt lat="43.57447" lon="2.00512">
        <ele>335.96521557875</ele>
        <time>2020-03-10T13:07:46Z</time>
      </trkpt>
      <trkpt lat="43.57447" lon="2.005">
        <ele>336.32886455479</ele>
        <time>2020-03-10T13:07:53Z</time>
      </trkpt>
      <trkpt lat="43.57445" lon="2.00489">
        <ele>336.4866092346</ele>
        <time>2020-03-10T13:08:00Z</time>
      </trkpt>
      <trkpt lat="43.57443" lon="2.00478">
        <ele>334.87340311113</ele>
        <time>2020-03-10T13:08:07Z</time>
      </trkpt>
      <trkpt lat="43.5744" lon="2.00469">
        <ele>332.23296951028</ele>
        <time>2020-03-10T13:08:13Z</time>
      </trkpt>
      <trkpt lat="43.57437" lon="2.00457">
        <ele>332.50737441888</ele>
        <time>2020-03-10T13:08:20Z</time>
      </trkpt>
      <trkpt lat="43.57436" lon="2.00446">
        <ele>333.27246014036</ele>
        <time>2020-03-10T13:08:28Z</time>
      </trkpt>
      <trkpt lat="43.57433" lon="2.00435">
        <ele>333.79401079503</ele>
        <time>2020-03-10T13:08:37Z</time>
      </trkpt>
      <trkpt lat="43.5743" lon="2.00425">
        <ele>334.14801115793</ele>
        <time>2020-03-10T13:08:43Z</time>
      </trkpt>
      <trkpt lat="43.57427" lon="2.00415">
        <ele>333.74633818751</ele>
        <time>2020-03-10T13:08:50Z</time>
      </trkpt>
      <trkpt lat="43.57424" lon="2.00403">
        <ele>335.73506790394</ele>
        <time>2020-03-10T13:08:57Z</time>
      </trkpt>
      <trkpt lat="43.57423" lon="2.00392">
        <ele>336.59330251499</ele>
        <time>2020-03-10T13:09:07Z</time>
      </trkpt>
      <trkpt lat="43.57423" lon="2.0038">
        <ele>336.47168372219</ele>
        <time>2020-03-10T13:09:14Z</time>
      </trkpt>
      <trkpt lat="43.57423" lon="2.00368">
        <ele>335.06650105463</ele>
        <time>2020-03-10T13:09:22Z</time>
      </trkpt>
      <trkpt lat="43.57423" lon="2.00357">
        <ele>334.30525688461</ele>
        <time>2020-03-10T13:09:28Z</time>
      </trkpt>
      <trkpt lat="43.57424" lon="2.00346">
        <ele>334.75426652193</ele>
        <time>2020-03-10T13:09:35Z</time>
      </trkpt>
      <trkpt lat="43.57427" lon="2.00334">
        <ele>334.06044061651</ele>
        <time>2020-03-10T13:09:43Z</time>
      </trkpt>
      <trkpt lat="43.57428" lon="2.00322">
        <ele>334.55646547618</ele>
        <time>2020-03-10T13:09:50Z</time>
      </trkpt>
      <trkpt lat="43.57431" lon="2.00312">
        <ele>334.04814409939</ele>
        <time>2020-03-10T13:09:58Z</time>
      </trkpt>
      <trkpt lat="43.57435" lon="2.00303">
        <ele>334.3544631583</ele>
        <time>2020-03-10T13:10:05Z</time>
      </trkpt>
      <trkpt lat="43.57439" lon="2.00291">
        <ele>335.85900700747</ele>
        <time>2020-03-10T13:10:12Z</time>
      </trkpt>
      <trkpt lat="43.57441" lon="2.0028">
        <ele>338.01628106739</ele>
        <time>2020-03-10T13:10:20Z</time>
      </trkpt>
      <trkpt lat="43.57441" lon="2.00268">
        <ele>337.1967532095</ele>
        <time>2020-03-10T13:10:26Z</time>
      </trkpt>
      <trkpt lat="43.57439" lon="2.00256">
        <ele>337.11790211589</ele>
        <time>2020-03-10T13:10:33Z</time>
      </trkpt>
      <trkpt lat="43.57438" lon="2.00245">
        <ele>337.04863920051</ele>
        <time>2020-03-10T13:10:40Z</time>
      </trkpt>
      <trkpt lat="43.57434" lon="2.00236">
        <ele>336.51617932565</ele>
        <time>2020-03-10T13:10:46Z</time>
      </trkpt>
      <trkpt lat="43.5743" lon="2.00225">
        <ele>336.14167226758</ele>
        <time>2020-03-10T13:10:55Z</time>
      </trkpt>
      <trkpt lat="43.57426" lon="2.00215">
        <ele>335.95730515979</ele>
        <time>2020-03-10T13:11:02Z</time>
      </trkpt>
      <trkpt lat="43.57421" lon="2.00206">
        <ele>336.74892260617</ele>
        <time>2020-03-10T13:11:09Z</time>
      </trkpt>
      <trkpt lat="43.57417" lon="2.00196">
        <ele>337.66734458564</ele>
        <time>2020-03-10T13:11:15Z</time>
      </trkpt>
      <trkpt lat="43.57411" lon="2.00188">
        <ele>337.6719440731</ele>
        <time>2020-03-10T13:11:22Z</time>
      </trkpt>
      <trkpt lat="43.57405" lon="2.00178">
        <ele>337.5625601886</ele>
        <time>2020-03-10T13:11:29Z</time>
      </trkpt>
      <trkpt lat="43.574" lon="2.00169">
        <ele>336.68691188882</ele>
        <time>2020-03-10T13:11:36Z</time>
      </trkpt>
      <trkpt lat="43.57394" lon="2.00161">
        <ele>335.57456942672</ele>
        <time>2020-03-10T13:11:43Z</time>
      </trkpt>
      <trkpt lat="43.57389" lon="2.00151">
        <ele>334.13983339796</ele>
        <time>2020-03-10T13:11:51Z</time>
      </trkpt>
      <trkpt lat="43.57385" lon="2.00142">
        <ele>333.57750058632</ele>
        <time>2020-03-10T13:11:59Z</time>
      </trkpt>
      <trkpt lat="43.5738" lon="2.00131">
        <ele>334.26612388922</ele>
        <time>2020-03-10T13:12:07Z</time>
      </trkpt>
      <trkpt lat="43.57379" lon="2.00121">
        <ele>333.89368575442</ele>
        <time>2020-03-10T13:12:15Z</time>
      </trkpt>
      <trkpt lat="43.57376" lon="2.00109">
        <ele>333.50580657979</ele>
        <time>2020-03-10T13:12:22Z</time>
      </trkpt>
      <trkpt lat="43.57375" lon="2.00097">
        <ele>331.66773014864</ele>
        <time>2020-03-10T13:12:29Z</time>
      </trkpt>
      <trkpt lat="43.57374" lon="2.00085">
        <ele>330.74101042367</ele>
        <time>2020-03-10T13:12:37Z</time>
      </trkpt>
      <trkpt lat="43.57373" lon="2.00074">
        <ele>331.22379920473</ele>
        <time>2020-03-10T13:12:43Z</time>
      </trkpt>
      <trkpt lat="43.57371" lon="2.00062">
        <ele>333.61715544571</ele>
        <time>2020-03-10T13:12:51Z</time>
      </trkpt>
      <trkpt lat="43.57371" lon="2.00051">
        <ele>333.11949070777</ele>
        <time>2020-03-10T13:12:58Z</time>
      </trkpt>
      <trkpt lat="43.5737" lon="2.00039">
        <ele>332.82393677131</ele>
        <time>2020-03-10T13:13:06Z</time>
      </trkpt>
      <trkpt lat="43.57371" lon="2.00028">
        <ele>332.96677732109</ele>
        <time>2020-03-10T13:13:14Z</time>
      </trkpt>
      <trkpt lat="43.57371" lon="2.00017">
        <ele>333.43283388276</ele>
        <time>2020-03-10T13:13:20Z</time>
      </trkpt>
      <trkpt lat="43.5737" lon="2.00005">
        <ele>332.52095060507</ele>
        <time>2020-03-10T13:13:26Z</time>
      </trkpt>
      <trkpt lat="43.5737" lon="1.99994">
        <ele>331.68823817039</ele>
        <time>2020-03-10T13:13:34Z</time>
      </trkpt>
      <trkpt lat="43.57379" lon="1.99991">
        <ele>332.17501292258</ele>
        <time>2020-03-10T13:13:50Z</time>
      </trkpt>
      <trkpt lat="43.57387" lon="1.99995">
        <ele>331.92673802317</ele>
        <time>2020-03-10T13:13:58Z</time>
      </trkpt>
      <trkpt lat="43.57395" lon="1.99997">
        <ele>331.07108830434</ele>
        <time>2020-03-10T13:14:05Z</time>
      </trkpt>
      <trkpt lat="43.57404" lon="1.99997">
        <ele>329.64771835787</ele>
        <time>2020-03-10T13:14:15Z</time>
      </trkpt>
      <trkpt lat="43.57412" lon="1.99993">
        <ele>329.07948968841</ele>
        <time>2020-03-10T13:14:28Z</time>
      </trkpt>
      <trkpt lat="43.5742" lon="1.99991">
        <ele>326.97846972889</ele>
        <time>2020-03-10T13:14:46Z</time>
      </trkpt>
      <trkpt lat="43.57429" lon="1.99993">
        <ele>321.06380972542</ele>
        <time>2020-03-10T13:14:54Z</time>
      </trkpt>
      <trkpt lat="43.57437" lon="1.99991">
        <ele>316.9177648403</ele>
        <time>2020-03-10T13:15:03Z</time>
      </trkpt>
      <trkpt lat="43.57445" lon="1.9999">
        <ele>317.19065225075</ele>
        <time>2020-03-10T13:15:11Z</time>
      </trkpt>
      <trkpt lat="43.57454" lon="1.99988">
        <ele>317.37713564977</ele>
        <time>2020-03-10T13:15:19Z</time>
      </trkpt>
      <trkpt lat="43.57463" lon="1.99987">
        <ele>316.90909905353</ele>
        <time>2020-03-10T13:15:28Z</time>
      </trkpt>
      <trkpt lat="43.57471" lon="1.99984">
        <ele>314.46543266477</ele>
        <time>2020-03-10T13:15:37Z</time>
      </trkpt>
      <trkpt lat="43.57479" lon="1.99982">
        <ele>312.69938781923</ele>
        <time>2020-03-10T13:15:45Z</time>
      </trkpt>
      <trkpt lat="43.57487" lon="1.99979">
        <ele>311.73092522409</ele>
        <time>2020-03-10T13:15:53Z</time>
      </trkpt>
      <trkpt lat="43.57495" lon="1.99976">
        <ele>310.49701474013</ele>
        <time>2020-03-10T13:16:02Z</time>
      </trkpt>
      <trkpt lat="43.57504" lon="1.99978">
        <ele>307.95896990032</ele>
        <time>2020-03-10T13:16:16Z</time>
      </trkpt>
      <trkpt lat="43.57512" lon="1.99983">
        <ele>304.77965847462</ele>
        <time>2020-03-10T13:16:33Z</time>
      </trkpt>
      <trkpt lat="43.57519" lon="1.99989">
        <ele>302.50404921784</ele>
        <time>2020-03-10T13:16:44Z</time>
      </trkpt>
      <trkpt lat="43.57527" lon="1.99992">
        <ele>302.79166856458</ele>
        <time>2020-03-10T13:16:54Z</time>
      </trkpt>
      <trkpt lat="43.57535" lon="1.99995">
        <ele>303.20277880648</ele>
        <time>2020-03-10T13:17:05Z</time>
      </trkpt>
      <trkpt lat="43.57544" lon="1.99993">
        <ele>305.10581864626</ele>
        <time>2020-03-10T13:17:12Z</time>
      </trkpt>
      <trkpt lat="43.57552" lon="1.99994">
        <ele>304.90896854605</ele>
        <time>2020-03-10T13:17:19Z</time>
      </trkpt>
      <trkpt lat="43.5756" lon="1.99995">
        <ele>304.74327574627</ele>
        <time>2020-03-10T13:17:29Z</time>
      </trkpt>
      <trkpt lat="43.57569" lon="1.99993">
        <ele>304.27409937548</ele>
        <time>2020-03-10T13:17:42Z</time>
      </trkpt>
      <trkpt lat="43.57576" lon="1.99986">
        <ele>302.95001391615</ele>
        <time>2020-03-10T13:18:02Z</time>
      </trkpt>
      <trkpt lat="43.5758" lon="1.99976">
        <ele>301.78809557219</ele>
        <time>2020-03-10T13:18:19Z</time>
      </trkpt>
      <trkpt lat="43.57588" lon="1.99968">
        <ele>299.97976596583</ele>
        <time>2020-03-10T13:18:29Z</time>
      </trkpt>
      <trkpt lat="43.57594" lon="1.9996">
        <ele>297.75266674266</ele>
        <time>2020-03-10T13:18:38Z</time>
      </trkpt>
      <trkpt lat="43.57599" lon="1.99952">
        <ele>297.27181307819</ele>
        <time>2020-03-10T13:18:47Z</time>
      </trkpt>
      <trkpt lat="43.57602" lon="1.99941">
        <ele>299.23076889933</ele>
        <time>2020-03-10T13:19:00Z</time>
      </trkpt>
      <trkpt lat="43.5761" lon="1.99935">
        <ele>299.2662119909</ele>
        <time>2020-03-10T13:19:09Z</time>
      </trkpt>
      <trkpt lat="43.57618" lon="1.9993">
        <ele>297.19081220594</ele>
        <time>2020-03-10T13:19:18Z</time>
      </trkpt>
      <trkpt lat="43.57623" lon="1.9992">
        <ele>296.45126313219</ele>
        <time>2020-03-10T13:19:34Z</time>
      </trkpt>
      <trkpt lat="43.57631" lon="1.99916">
        <ele>295.72748742704</ele>
        <time>2020-03-10T13:19:45Z</time>
      </trkpt>
      <trkpt lat="43.57639" lon="1.99911">
        <ele>293.50178074537</ele>
        <time>2020-03-10T13:19:52Z</time>
      </trkpt>
      <trkpt lat="43.57647" lon="1.99913">
        <ele>292.71831014234</ele>
        <time>2020-03-10T13:19:58Z</time>
      </trkpt>
      <trkpt lat="43.57655" lon="1.99915">
        <ele>291.44706992527</ele>
        <time>2020-03-10T13:20:04Z</time>
      </trkpt>
      <trkpt lat="43.57663" lon="1.99915">
        <ele>291.67000284984</ele>
        <time>2020-03-10T13:20:09Z</time>
      </trkpt>
      <trkpt lat="43.57672" lon="1.99913">
        <ele>291.90164430565</ele>
        <time>2020-03-10T13:20:19Z</time>
      </trkpt>
      <trkpt lat="43.57678" lon="1.99907">
        <ele>290.65966807291</ele>
        <time>2020-03-10T13:20:28Z</time>
      </trkpt>
      <trkpt lat="43.57686" lon="1.99899">
        <ele>291.35256458413</ele>
        <time>2020-03-10T13:20:35Z</time>
      </trkpt>
      <trkpt lat="43.57694" lon="1.99895">
        <ele>289.20006010887</ele>
        <time>2020-03-10T13:20:49Z</time>
      </trkpt>
      <trkpt lat="43.57702" lon="1.99894">
        <ele>289.00265249606</ele>
        <time>2020-03-10T13:20:56Z</time>
      </trkpt>
      <trkpt lat="43.57709" lon="1.99887">
        <ele>288.28655051524</ele>
        <time>2020-03-10T13:21:05Z</time>
      </trkpt>
      <trkpt lat="43.57716" lon="1.99881">
        <ele>287.64930588569</ele>
        <time>2020-03-10T13:21:12Z</time>
      </trkpt>
      <trkpt lat="43.57722" lon="1.99873">
        <ele>287.39499399779</ele>
        <time>2020-03-10T13:21:20Z</time>
      </trkpt>
      <trkpt lat="43.57728" lon="1.99867">
        <ele>284.85685605121</ele>
        <time>2020-03-10T13:21:29Z</time>
      </trkpt>
      <trkpt lat="43.57736" lon="1.99864">
        <ele>281.46003206212</ele>
        <time>2020-03-10T13:21:36Z</time>
      </trkpt>
      <trkpt lat="43.57744" lon="1.99859">
        <ele>280.0424229346</ele>
        <time>2020-03-10T13:21:45Z</time>
      </trkpt>
      <trkpt lat="43.57752" lon="1.99855">
        <ele>278.48788714075</ele>
        <time>2020-03-10T13:21:52Z</time>
      </trkpt>
      <trkpt lat="43.57758" lon="1.9985">
        <ele>277.40831236071</ele>
        <time>2020-03-10T13:21:58Z</time>
      </trkpt>
      <trkpt lat="43.57765" lon="1.99843">
        <ele>276.3280238328</ele>
        <time>2020-03-10T13:22:04Z</time>
      </trkpt>
      <trkpt lat="43.57771" lon="1.99835">
        <ele>276.26693701453</ele>
        <time>2020-03-10T13:22:11Z</time>
      </trkpt>
      <trkpt lat="43.57773" lon="1.99823">
        <ele>274.06825524253</ele>
        <time>2020-03-10T13:22:27Z</time>
      </trkpt>
      <trkpt lat="43.57765" lon="1.99818">
        <ele>270.90976223442</ele>
        <time>2020-03-10T13:22:36Z</time>
      </trkpt>
      <trkpt lat="43.57756" lon="1.99819">
        <ele>271.47675656212</ele>
        <time>2020-03-10T13:22:45Z</time>
      </trkpt>
      <trkpt lat="43.57748" lon="1.99813">
        <ele>268.14524473999</ele>
        <time>2020-03-10T13:22:59Z</time>
      </trkpt>
      <trkpt lat="43.57744" lon="1.99803">
        <ele>267.6454862775</ele>
        <time>2020-03-10T13:23:13Z</time>
      </trkpt>
      <trkpt lat="43.57749" lon="1.99793">
        <ele>269.50797316126</ele>
        <time>2020-03-10T13:23:23Z</time>
      </trkpt>
      <trkpt lat="43.57756" lon="1.99788">
        <ele>270.97509720118</ele>
        <time>2020-03-10T13:23:31Z</time>
      </trkpt>
      <trkpt lat="43.57764" lon="1.99783">
        <ele>271.66133360836</ele>
        <time>2020-03-10T13:23:41Z</time>
      </trkpt>
      <trkpt lat="43.57772" lon="1.99781">
        <ele>271.60348324164</ele>
        <time>2020-03-10T13:23:54Z</time>
      </trkpt>
      <trkpt lat="43.57781" lon="1.99782">
        <ele>271.4633913549</ele>
        <time>2020-03-10T13:24:06Z</time>
      </trkpt>
      <trkpt lat="43.57789" lon="1.99778">
        <ele>272.16995196901</ele>
        <time>2020-03-10T13:24:13Z</time>
      </trkpt>
      <trkpt lat="43.57795" lon="1.99769">
        <ele>273.83279671756</ele>
        <time>2020-03-10T13:24:21Z</time>
      </trkpt>
      <trkpt lat="43.57799" lon="1.99758">
        <ele>274.19798171089</ele>
        <time>2020-03-10T13:24:30Z</time>
      </trkpt>
      <trkpt lat="43.578" lon="1.99747">
        <ele>276.23275320091</ele>
        <time>2020-03-10T13:24:37Z</time>
      </trkpt>
      <trkpt lat="43.57804" lon="1.99736">
        <ele>276.53985912692</ele>
        <time>2020-03-10T13:24:45Z</time>
      </trkpt>
      <trkpt lat="43.57807" lon="1.99726">
        <ele>278.9237066714</ele>
        <time>2020-03-10T13:24:53Z</time>
      </trkpt>
      <trkpt lat="43.57813" lon="1.99716">
        <ele>278.50434729973</ele>
        <time>2020-03-10T13:25:01Z</time>
      </trkpt>
      <trkpt lat="43.57818" lon="1.99707">
        <ele>277.34321515548</ele>
        <time>2020-03-10T13:25:09Z</time>
      </trkpt>
      <trkpt lat="43.57824" lon="1.99698">
        <ele>275.2403582393</ele>
        <time>2020-03-10T13:25:18Z</time>
      </trkpt>
      <trkpt lat="43.57827" lon="1.99687">
        <ele>276.20566414399</ele>
        <time>2020-03-10T13:25:26Z</time>
      </trkpt>
      <trkpt lat="43.57833" lon="1.99678">
        <ele>274.60640184604</ele>
        <time>2020-03-10T13:25:37Z</time>
      </trkpt>
      <trkpt lat="43.57838" lon="1.99669">
        <ele>273.30362593688</ele>
        <time>2020-03-10T13:25:44Z</time>
      </trkpt>
      <trkpt lat="43.57841" lon="1.99658">
        <ele>272.26993706409</ele>
        <time>2020-03-10T13:25:51Z</time>
      </trkpt>
      <trkpt lat="43.57845" lon="1.99648">
        <ele>271.06755930624</ele>
        <time>2020-03-10T13:25:59Z</time>
      </trkpt>
      <trkpt lat="43.57848" lon="1.99637">
        <ele>270.21913764049</ele>
        <time>2020-03-10T13:26:07Z</time>
      </trkpt>
      <trkpt lat="43.5785" lon="1.99625">
        <ele>267.32769470792</ele>
        <time>2020-03-10T13:26:16Z</time>
      </trkpt>
      <trkpt lat="43.57853" lon="1.99614">
        <ele>266.23643191447</ele>
        <time>2020-03-10T13:26:24Z</time>
      </trkpt>
      <trkpt lat="43.57854" lon="1.99602">
        <ele>266.92761728382</ele>
        <time>2020-03-10T13:26:36Z</time>
      </trkpt>
      <trkpt lat="43.57855" lon="1.9959">
        <ele>267.68555939668</ele>
        <time>2020-03-10T13:26:49Z</time>
      </trkpt>
      <trkpt lat="43.57857" lon="1.99578">
        <ele>263.76700977847</ele>
        <time>2020-03-10T13:26:59Z</time>
      </trkpt>
      <trkpt lat="43.57857" lon="1.99567">
        <ele>262.07479135219</ele>
        <time>2020-03-10T13:27:15Z</time>
      </trkpt>
      <trkpt lat="43.57855" lon="1.99556">
        <ele>262.83513765862</ele>
        <time>2020-03-10T13:27:26Z</time>
      </trkpt>
      <trkpt lat="43.57853" lon="1.99542">
        <ele>264.03955344133</ele>
        <time>2020-03-10T13:27:30Z</time>
      </trkpt>
      <trkpt lat="43.57855" lon="1.99531">
        <ele>265.6976324842</ele>
        <time>2020-03-10T13:27:39Z</time>
      </trkpt>
      <trkpt lat="43.57855" lon="1.99519">
        <ele>265.06477090997</ele>
        <time>2020-03-10T13:27:49Z</time>
      </trkpt>
      <trkpt lat="43.57856" lon="1.99507">
        <ele>263.64436905496</ele>
        <time>2020-03-10T13:28:13Z</time>
      </trkpt>
      <trkpt lat="43.57849" lon="1.99493">
        <ele>263.75617507911</ele>
        <time>2020-03-10T13:28:17Z</time>
      </trkpt>
      <trkpt lat="43.57843" lon="1.9948">
        <ele>261.66553739336</ele>
        <time>2020-03-10T13:28:22Z</time>
      </trkpt>
      <trkpt lat="43.57841" lon="1.99469">
        <ele>258.70600005383</ele>
        <time>2020-03-10T13:28:27Z</time>
      </trkpt>
      <trkpt lat="43.57839" lon="1.99458">
        <ele>255.89953506519</ele>
        <time>2020-03-10T13:28:51Z</time>
      </trkpt>
      <trkpt lat="43.57836" lon="1.99448">
        <ele>255.96332266716</ele>
        <time>2020-03-10T13:29:01Z</time>
      </trkpt>
      <trkpt lat="43.57832" lon="1.99438">
        <ele>256.80637790154</ele>
        <time>2020-03-10T13:29:10Z</time>
      </trkpt>
      <trkpt lat="43.57836" lon="1.99428">
        <ele>257.17222498629</ele>
        <time>2020-03-10T13:29:22Z</time>
      </trkpt>
      <trkpt lat="43.57838" lon="1.99417">
        <ele>255.01985851512</ele>
        <time>2020-03-10T13:29:30Z</time>
      </trkpt>
      <trkpt lat="43.57841" lon="1.99406">
        <ele>251.2908659362</ele>
        <time>2020-03-10T13:29:56Z</time>
      </trkpt>
      <trkpt lat="43.57843" lon="1.99393">
        <ele>249.62026964192</ele>
        <time>2020-03-10T13:30:01Z</time>
      </trkpt>
      <trkpt lat="43.5785" lon="1.99389">
        <ele>250.33597631577</ele>
        <time>2020-03-10T13:30:08Z</time>
      </trkpt>
      <trkpt lat="43.57858" lon="1.99389">
        <ele>251.76948643373</ele>
        <time>2020-03-10T13:30:17Z</time>
      </trkpt>
      <trkpt lat="43.57865" lon="1.99384">
        <ele>252.81413531644</ele>
        <time>2020-03-10T13:30:23Z</time>
      </trkpt>
      <trkpt lat="43.57871" lon="1.99376">
        <ele>254.92049010285</ele>
        <time>2020-03-10T13:30:29Z</time>
      </trkpt>
      <trkpt lat="43.57876" lon="1.99366">
        <ele>253.45935571886</ele>
        <time>2020-03-10T13:30:38Z</time>
      </trkpt>
      <trkpt lat="43.57882" lon="1.99359">
        <ele>252.10391236346</ele>
        <time>2020-03-10T13:30:45Z</time>
      </trkpt>
      <trkpt lat="43.57889" lon="1.99353">
        <ele>252.83474181321</ele>
        <time>2020-03-10T13:30:51Z</time>
      </trkpt>
      <trkpt lat="43.57896" lon="1.99348">
        <ele>252.1487490877</ele>
        <time>2020-03-10T13:30:57Z</time>
      </trkpt>
      <trkpt lat="43.57899" lon="1.99337">
        <ele>249.64881373851</ele>
        <time>2020-03-10T13:31:06Z</time>
      </trkpt>
      <trkpt lat="43.57904" lon="1.99327">
        <ele>250.79320672014</ele>
        <time>2020-03-10T13:31:16Z</time>
      </trkpt>
      <trkpt lat="43.57909" lon="1.99317">
        <ele>249.82564526424</ele>
        <time>2020-03-10T13:31:24Z</time>
      </trkpt>
      <trkpt lat="43.57916" lon="1.9931">
        <ele>245.85267791896</ele>
        <time>2020-03-10T13:31:35Z</time>
      </trkpt>
      <trkpt lat="43.57923" lon="1.99303">
        <ele>241.84605200955</ele>
        <time>2020-03-10T13:31:43Z</time>
      </trkpt>
      <trkpt lat="43.57929" lon="1.99295">
        <ele>238.65341391432</ele>
        <time>2020-03-10T13:31:50Z</time>
      </trkpt>
      <trkpt lat="43.57936" lon="1.99289">
        <ele>239.73815510232</ele>
        <time>2020-03-10T13:32:15Z</time>
      </trkpt>
      <trkpt lat="43.57942" lon="1.99282">
        <ele>238.88492513212</ele>
        <time>2020-03-10T13:32:27Z</time>
      </trkpt>
      <trkpt lat="43.5795" lon="1.99276">
        <ele>241.4385787314</ele>
        <time>2020-03-10T13:32:36Z</time>
      </trkpt>
      <trkpt lat="43.57958" lon="1.99271">
        <ele>241.33729152311</ele>
        <time>2020-03-10T13:32:51Z</time>
      </trkpt>
      <trkpt lat="43.57965" lon="1.99267">
        <ele>241.16551089379</ele>
        <time>2020-03-10T13:33:00Z</time>
      </trkpt>
      <trkpt lat="43.57973" lon="1.99263">
        <ele>240.50674944046</ele>
        <time>2020-03-10T13:33:09Z</time>
      </trkpt>
      <trkpt lat="43.5798" lon="1.99257">
        <ele>239.14467486443</ele>
        <time>2020-03-10T13:33:20Z</time>
      </trkpt>
      <trkpt lat="43.57987" lon="1.99253">
        <ele>238.90033113946</ele>
        <time>2020-03-10T13:33:25Z</time>
      </trkpt>
      <trkpt lat="43.57994" lon="1.99248">
        <ele>238.18731234957</ele>
        <time>2020-03-10T13:33:30Z</time>
      </trkpt>
      <trkpt lat="43.58" lon="1.99241">
        <ele>237.24403094393</ele>
        <time>2020-03-10T13:33:36Z</time>
      </trkpt>
      <trkpt lat="43.58007" lon="1.99236">
        <ele>236.65337488508</ele>
        <time>2020-03-10T13:33:48Z</time>
      </trkpt>
      <trkpt lat="43.58015" lon="1.99232">
        <ele>237.11743241624</ele>
        <time>2020-03-10T13:33:53Z</time>
      </trkpt>
      <trkpt lat="43.58023" lon="1.99227">
        <ele>236.86237684524</ele>
        <time>2020-03-10T13:33:59Z</time>
      </trkpt>
      <trkpt lat="43.58031" lon="1.99223">
        <ele>237.2847288652</ele>
        <time>2020-03-10T13:34:06Z</time>
      </trkpt>
      <trkpt lat="43.58039" lon="1.9922">
        <ele>236.3880889689</ele>
        <time>2020-03-10T13:34:19Z</time>
      </trkpt>
      <trkpt lat="43.58046" lon="1.99216">
        <ele>236.03842540192</ele>
        <time>2020-03-10T13:34:24Z</time>
      </trkpt>
      <trkpt lat="43.58054" lon="1.99211">
        <ele>235.1041934714</ele>
        <time>2020-03-10T13:34:45Z</time>
      </trkpt>
      <trkpt lat="43.58062" lon="1.99205">
        <ele>236.85772888579</ele>
        <time>2020-03-10T13:34:56Z</time>
      </trkpt>
      <trkpt lat="43.58068" lon="1.99196">
        <ele>239.11117497084</ele>
        <time>2020-03-10T13:35:05Z</time>
      </trkpt>
      <trkpt lat="43.5807" lon="1.99185">
        <ele>241.49674639531</ele>
        <time>2020-03-10T13:35:49Z</time>
      </trkpt>
      <trkpt lat="43.58079" lon="1.99182">
        <ele>240.32380416384</ele>
        <time>2020-03-10T13:36:01Z</time>
      </trkpt>
      <trkpt lat="43.58087" lon="1.9918">
        <ele>240.34282068271</ele>
        <time>2020-03-10T13:36:11Z</time>
      </trkpt>
      <trkpt lat="43.58096" lon="1.99175">
        <ele>241.75916903605</ele>
        <time>2020-03-10T13:36:18Z</time>
      </trkpt>
      <trkpt lat="43.58104" lon="1.99174">
        <ele>240.09965300488</ele>
        <time>2020-03-10T13:36:25Z</time>
      </trkpt>
      <trkpt lat="43.58112" lon="1.99169">
        <ele>238.08272431023</ele>
        <time>2020-03-10T13:36:33Z</time>
      </trkpt>
      <trkpt lat="43.5812" lon="1.99165">
        <ele>237.4730729356</ele>
        <time>2020-03-10T13:36:42Z</time>
      </trkpt>
      <trkpt lat="43.58127" lon="1.99159">
        <ele>238.18177678945</ele>
        <time>2020-03-10T13:36:53Z</time>
      </trkpt>
      <trkpt lat="43.58134" lon="1.99153">
        <ele>238.46586555315</ele>
        <time>2020-03-10T13:37:03Z</time>
      </trkpt>
      <trkpt lat="43.5814" lon="1.99146">
        <ele>237.60027705915</ele>
        <time>2020-03-10T13:37:11Z</time>
      </trkpt>
      <trkpt lat="43.58144" lon="1.99135">
        <ele>238.16573672719</ele>
        <time>2020-03-10T13:37:21Z</time>
      </trkpt>
      <trkpt lat="43.58147" lon="1.99125">
        <ele>238.01557642359</ele>
        <time>2020-03-10T13:37:30Z</time>
      </trkpt>
      <trkpt lat="43.5815" lon="1.99114">
        <ele>236.77510318705</ele>
        <time>2020-03-10T13:37:38Z</time>
      </trkpt>
      <trkpt lat="43.58151" lon="1.99103">
        <ele>235.61585011909</ele>
        <time>2020-03-10T13:37:46Z</time>
      </trkpt>
      <trkpt lat="43.58153" lon="1.99092">
        <ele>234.50110401825</ele>
        <time>2020-03-10T13:37:55Z</time>
      </trkpt>
      <trkpt lat="43.58159" lon="1.99084">
        <ele>233.02285284422</ele>
        <time>2020-03-10T13:38:12Z</time>
      </trkpt>
      <trkpt lat="43.58168" lon="1.99086">
        <ele>231.79503291124</ele>
        <time>2020-03-10T13:38:20Z</time>
      </trkpt>
      <trkpt lat="43.58176" lon="1.99089">
        <ele>232.23995418066</ele>
        <time>2020-03-10T13:38:26Z</time>
      </trkpt>
      <trkpt lat="43.58183" lon="1.99096">
        <ele>231.28499474744</ele>
        <time>2020-03-10T13:38:33Z</time>
      </trkpt>
      <trkpt lat="43.58192" lon="1.99099">
        <ele>230.09579789792</ele>
        <time>2020-03-10T13:38:40Z</time>
      </trkpt>
      <trkpt lat="43.582" lon="1.99105">
        <ele>230.14510869834</ele>
        <time>2020-03-10T13:38:51Z</time>
      </trkpt>
      <trkpt lat="43.58208" lon="1.9911">
        <ele>232.4427997615</ele>
        <time>2020-03-10T13:39:01Z</time>
      </trkpt>
      <trkpt lat="43.5821" lon="1.99098">
        <ele>234.48055079507</ele>
        <time>2020-03-10T13:39:18Z</time>
      </trkpt>
      <trkpt lat="43.58207" lon="1.99087">
        <ele>236.33822623484</ele>
        <time>2020-03-10T13:39:27Z</time>
      </trkpt>
      <trkpt lat="43.58207" lon="1.99076">
        <ele>236.88308382924</ele>
        <time>2020-03-10T13:39:33Z</time>
      </trkpt>
      <trkpt lat="43.58208" lon="1.99065">
        <ele>238.46671300122</ele>
        <time>2020-03-10T13:39:39Z</time>
      </trkpt>
      <trkpt lat="43.58209" lon="1.99054">
        <ele>238.96275409992</ele>
        <time>2020-03-10T13:39:46Z</time>
      </trkpt>
      <trkpt lat="43.58211" lon="1.99043">
        <ele>236.9489549239</ele>
        <time>2020-03-10T13:39:53Z</time>
      </trkpt>
      <trkpt lat="43.58215" lon="1.99032">
        <ele>235.33666524465</ele>
        <time>2020-03-10T13:40:00Z</time>
      </trkpt>
      <trkpt lat="43.58218" lon="1.99022">
        <ele>235.23605696229</ele>
        <time>2020-03-10T13:40:07Z</time>
      </trkpt>
      <trkpt lat="43.58223" lon="1.99013">
        <ele>233.922210785</ele>
        <time>2020-03-10T13:40:15Z</time>
      </trkpt>
      <trkpt lat="43.58228" lon="1.99003">
        <ele>234.66180835933</ele>
        <time>2020-03-10T13:40:24Z</time>
      </trkpt>
      <trkpt lat="43.58233" lon="1.98993">
        <ele>235.90948689421</ele>
        <time>2020-03-10T13:40:31Z</time>
      </trkpt>
      <trkpt lat="43.58238" lon="1.98985">
        <ele>235.84452434742</ele>
        <time>2020-03-10T13:40:38Z</time>
      </trkpt>
      <trkpt lat="43.58244" lon="1.98976">
        <ele>235.1394314055</ele>
        <time>2020-03-10T13:40:45Z</time>
      </trkpt>
      <trkpt lat="43.58248" lon="1.98966">
        <ele>236.09030740293</ele>
        <time>2020-03-10T13:40:52Z</time>
      </trkpt>
      <trkpt lat="43.58253" lon="1.98957">
        <ele>236.87149687758</ele>
        <time>2020-03-10T13:40:59Z</time>
      </trkpt>
      <trkpt lat="43.58257" lon="1.98947">
        <ele>238.67153482123</ele>
        <time>2020-03-10T13:41:05Z</time>
      </trkpt>
      <trkpt lat="43.58263" lon="1.9894">
        <ele>239.5032454544</ele>
        <time>2020-03-10T13:41:13Z</time>
      </trkpt>
      <trkpt lat="43.58269" lon="1.9893">
        <ele>239.16134835655</ele>
        <time>2020-03-10T13:41:24Z</time>
      </trkpt>
      <trkpt lat="43.58273" lon="1.98922">
        <ele>237.83631434114</ele>
        <time>2020-03-10T13:41:31Z</time>
      </trkpt>
      <trkpt lat="43.58276" lon="1.9891">
        <ele>235.3931235877</ele>
        <time>2020-03-10T13:41:39Z</time>
      </trkpt>
      <trkpt lat="43.58276" lon="1.98899">
        <ele>231.7598153734</ele>
        <time>2020-03-10T13:41:52Z</time>
      </trkpt>
      <trkpt lat="43.58275" lon="1.98887">
        <ele>229.33604130789</ele>
        <time>2020-03-10T13:42:01Z</time>
      </trkpt>
      <trkpt lat="43.58271" lon="1.98876">
        <ele>228.75795194671</ele>
        <time>2020-03-10T13:42:07Z</time>
      </trkpt>
      <trkpt lat="43.5827" lon="1.98865">
        <ele>229.09387167363</ele>
        <time>2020-03-10T13:42:14Z</time>
      </trkpt>
      <trkpt lat="43.58274" lon="1.98855">
        <ele>230.50549613128</ele>
        <time>2020-03-10T13:42:26Z</time>
      </trkpt>
      <trkpt lat="43.58279" lon="1.98846">
        <ele>228.52608490584</ele>
        <time>2020-03-10T13:42:34Z</time>
      </trkpt>
      <trkpt lat="43.58286" lon="1.98837">
        <ele>226.86779262856</ele>
        <time>2020-03-10T13:42:41Z</time>
      </trkpt>
      <trkpt lat="43.58291" lon="1.98829">
        <ele>226.78010057014</ele>
        <time>2020-03-10T13:42:47Z</time>
      </trkpt>
      <trkpt lat="43.58296" lon="1.9882">
        <ele>225.14682600806</ele>
        <time>2020-03-10T13:42:54Z</time>
      </trkpt>
      <trkpt lat="43.58302" lon="1.98811">
        <ele>224.77836446256</ele>
        <time>2020-03-10T13:43:04Z</time>
      </trkpt>
      <trkpt lat="43.58309" lon="1.98803">
        <ele>224.72498024319</ele>
        <time>2020-03-10T13:43:11Z</time>
      </trkpt>
      <trkpt lat="43.58315" lon="1.98795">
        <ele>224.49060549804</ele>
        <time>2020-03-10T13:43:18Z</time>
      </trkpt>
      <trkpt lat="43.58321" lon="1.9879">
        <ele>224.88305325849</ele>
        <time>2020-03-10T13:43:25Z</time>
      </trkpt>
      <trkpt lat="43.58328" lon="1.98784">
        <ele>225.9881232708</ele>
        <time>2020-03-10T13:43:30Z</time>
      </trkpt>
      <trkpt lat="43.58335" lon="1.9878">
        <ele>225.42199692682</ele>
        <time>2020-03-10T13:43:36Z</time>
      </trkpt>
      <trkpt lat="43.58343" lon="1.98775">
        <ele>224.94809014026</ele>
        <time>2020-03-10T13:43:43Z</time>
      </trkpt>
      <trkpt lat="43.58351" lon="1.9877">
        <ele>224.51449967361</ele>
        <time>2020-03-10T13:43:51Z</time>
      </trkpt>
      <trkpt lat="43.58357" lon="1.98764">
        <ele>224.66875466701</ele>
        <time>2020-03-10T13:44:03Z</time>
      </trkpt>
      <trkpt lat="43.58364" lon="1.98757">
        <ele>223.3045786172</ele>
        <time>2020-03-10T13:44:11Z</time>
      </trkpt>
      <trkpt lat="43.58372" lon="1.98752">
        <ele>223.45572760452</ele>
        <time>2020-03-10T13:44:19Z</time>
      </trkpt>
      <trkpt lat="43.5838" lon="1.98748">
        <ele>223.17927844329</ele>
        <time>2020-03-10T13:44:27Z</time>
      </trkpt>
      <trkpt lat="43.58388" lon="1.98742">
        <ele>222.96455766013</ele>
        <time>2020-03-10T13:44:39Z</time>
      </trkpt>
      <trkpt lat="43.58396" lon="1.98737">
        <ele>222.29235276456</ele>
        <time>2020-03-10T13:44:46Z</time>
      </trkpt>
      <trkpt lat="43.58404" lon="1.98731">
        <ele>221.5703713025</ele>
        <time>2020-03-10T13:44:54Z</time>
      </trkpt>
      <trkpt lat="43.58411" lon="1.98727">
        <ele>223.26651459269</ele>
        <time>2020-03-10T13:45:00Z</time>
      </trkpt>
      <trkpt lat="43.58418" lon="1.9872">
        <ele>223.63148997322</ele>
        <time>2020-03-10T13:45:07Z</time>
      </trkpt>
      <trkpt lat="43.58424" lon="1.98714">
        <ele>223.07345339408</ele>
        <time>2020-03-10T13:45:18Z</time>
      </trkpt>
      <trkpt lat="43.5843" lon="1.98707">
        <ele>222.52194099773</ele>
        <time>2020-03-10T13:45:23Z</time>
      </trkpt>
      <trkpt lat="43.58436" lon="1.987">
        <ele>221.94860917773</ele>
        <time>2020-03-10T13:45:29Z</time>
      </trkpt>
      <trkpt lat="43.58443" lon="1.98692">
        <ele>220.70941755052</ele>
        <time>2020-03-10T13:45:36Z</time>
      </trkpt>
      <trkpt lat="43.5845" lon="1.98684">
        <ele>220.31020558613</ele>
        <time>2020-03-10T13:45:50Z</time>
      </trkpt>
      <trkpt lat="43.58456" lon="1.98676">
        <ele>219.49161568773</ele>
        <time>2020-03-10T13:45:57Z</time>
      </trkpt>
      <trkpt lat="43.58462" lon="1.98668">
        <ele>218.08833674621</ele>
        <time>2020-03-10T13:46:07Z</time>
      </trkpt>
      <trkpt lat="43.58469" lon="1.98662">
        <ele>217.91933494249</ele>
        <time>2020-03-10T13:46:14Z</time>
      </trkpt>
      <trkpt lat="43.58476" lon="1.98655">
        <ele>218.09124202232</ele>
        <time>2020-03-10T13:46:22Z</time>
      </trkpt>
      <trkpt lat="43.58481" lon="1.98646">
        <ele>218.97920552524</ele>
        <time>2020-03-10T13:46:32Z</time>
      </trkpt>
      <trkpt lat="43.58487" lon="1.98637">
        <ele>219.75630201408</ele>
        <time>2020-03-10T13:46:39Z</time>
      </trkpt>
      <trkpt lat="43.58493" lon="1.98628">
        <ele>220.63973700825</ele>
        <time>2020-03-10T13:46:47Z</time>
      </trkpt>
      <trkpt lat="43.58499" lon="1.9862">
        <ele>220.3403448313</ele>
        <time>2020-03-10T13:46:54Z</time>
      </trkpt>
      <trkpt lat="43.58504" lon="1.9861">
        <ele>221.49846060092</ele>
        <time>2020-03-10T13:47:04Z</time>
      </trkpt>
      <trkpt lat="43.5851" lon="1.98602">
        <ele>221.62132966193</ele>
        <time>2020-03-10T13:47:15Z</time>
      </trkpt>
      <trkpt lat="43.58517" lon="1.98595">
        <ele>220.7787541522</ele>
        <time>2020-03-10T13:47:23Z</time>
      </trkpt>
      <trkpt lat="43.58522" lon="1.98586">
        <ele>219.05706425238</ele>
        <time>2020-03-10T13:47:30Z</time>
      </trkpt>
      <trkpt lat="43.58527" lon="1.98577">
        <ele>218.31955178746</ele>
        <time>2020-03-10T13:47:37Z</time>
      </trkpt>
      <trkpt lat="43.58532" lon="1.98568">
        <ele>218.57716650943</ele>
        <time>2020-03-10T13:47:44Z</time>
      </trkpt>
      <trkpt lat="43.58537" lon="1.98559">
        <ele>216.82598317022</ele>
        <time>2020-03-10T13:47:54Z</time>
      </trkpt>
      <trkpt lat="43.58543" lon="1.9855">
        <ele>218.28740155516</ele>
        <time>2020-03-10T13:48:03Z</time>
      </trkpt>
      <trkpt lat="43.58551" lon="1.98552">
        <ele>218.93641520959</ele>
        <time>2020-03-10T13:48:08Z</time>
      </trkpt>
      <trkpt lat="43.58558" lon="1.98558">
        <ele>217.59027869501</ele>
        <time>2020-03-10T13:48:15Z</time>
      </trkpt>
      <trkpt lat="43.58565" lon="1.98564">
        <ele>217.39364194288</ele>
        <time>2020-03-10T13:48:23Z</time>
      </trkpt>
      <trkpt lat="43.58573" lon="1.98568">
        <ele>216.3028507</ele>
        <time>2020-03-10T13:48:29Z</time>
      </trkpt>
      <trkpt lat="43.58579" lon="1.98575">
        <ele>214.15128529856</ele>
        <time>2020-03-10T13:48:40Z</time>
      </trkpt>
      <trkpt lat="43.58587" lon="1.98579">
        <ele>214.65805017645</ele>
        <time>2020-03-10T13:48:50Z</time>
      </trkpt>
      <trkpt lat="43.58595" lon="1.98584">
        <ele>214.83752187612</ele>
        <time>2020-03-10T13:48:57Z</time>
      </trkpt>
      <trkpt lat="43.58603" lon="1.98588">
        <ele>214.11305607664</ele>
        <time>2020-03-10T13:49:05Z</time>
      </trkpt>
      <trkpt lat="43.58612" lon="1.98592">
        <ele>214.17302676683</ele>
        <time>2020-03-10T13:49:15Z</time>
      </trkpt>
      <trkpt lat="43.5862" lon="1.98594">
        <ele>212.96915008803</ele>
        <time>2020-03-10T13:49:22Z</time>
      </trkpt>
      <trkpt lat="43.58629" lon="1.98593">
        <ele>213.88924523583</ele>
        <time>2020-03-10T13:49:28Z</time>
      </trkpt>
      <trkpt lat="43.5863" lon="1.98581">
        <ele>216.1495147634</ele>
        <time>2020-03-10T13:49:48Z</time>
      </trkpt>
      <trkpt lat="43.58628" lon="1.9857">
        <ele>215.81086653954</ele>
        <time>2020-03-10T13:49:56Z</time>
      </trkpt>
      <trkpt lat="43.58627" lon="1.98558">
        <ele>217.56487970635</ele>
        <time>2020-03-10T13:50:05Z</time>
      </trkpt>
      <trkpt lat="43.58627" lon="1.98547">
        <ele>217.90483729178</ele>
        <time>2020-03-10T13:50:15Z</time>
      </trkpt>
      <trkpt lat="43.58627" lon="1.98535">
        <ele>218.18345613194</ele>
        <time>2020-03-10T13:50:24Z</time>
      </trkpt>
      <trkpt lat="43.5863" lon="1.98524">
        <ele>219.08101682979</ele>
        <time>2020-03-10T13:50:33Z</time>
      </trkpt>
      <trkpt lat="43.58632" lon="1.98513">
        <ele>219.59834131537</ele>
        <time>2020-03-10T13:50:41Z</time>
      </trkpt>
      <trkpt lat="43.58638" lon="1.98504">
        <ele>220.91270598232</ele>
        <time>2020-03-10T13:50:51Z</time>
      </trkpt>
      <trkpt lat="43.58644" lon="1.98495">
        <ele>224.86736068782</ele>
        <time>2020-03-10T13:51:00Z</time>
      </trkpt>
      <trkpt lat="43.58649" lon="1.98486">
        <ele>228.28805820678</ele>
        <time>2020-03-10T13:51:09Z</time>
      </trkpt>
      <trkpt lat="43.58651" lon="1.98474">
        <ele>229.2282113072</ele>
        <time>2020-03-10T13:51:18Z</time>
      </trkpt>
      <trkpt lat="43.58653" lon="1.98463">
        <ele>229.16029642978</ele>
        <time>2020-03-10T13:51:27Z</time>
      </trkpt>
      <trkpt lat="43.58657" lon="1.98453">
        <ele>229.01404039219</ele>
        <time>2020-03-10T13:51:34Z</time>
      </trkpt>
      <trkpt lat="43.58658" lon="1.98442">
        <ele>227.71492560252</ele>
        <time>2020-03-10T13:51:42Z</time>
      </trkpt>
      <trkpt lat="43.58661" lon="1.98431">
        <ele>226.87034530187</ele>
        <time>2020-03-10T13:51:52Z</time>
      </trkpt>
      <trkpt lat="43.58663" lon="1.9842">
        <ele>226.3707726295</ele>
        <time>2020-03-10T13:52:00Z</time>
      </trkpt>
      <trkpt lat="43.58665" lon="1.98409">
        <ele>225.6188934112</ele>
        <time>2020-03-10T13:52:09Z</time>
      </trkpt>
      <trkpt lat="43.58668" lon="1.98398">
        <ele>224.4472297651</ele>
        <time>2020-03-10T13:52:17Z</time>
      </trkpt>
      <trkpt lat="43.58669" lon="1.98387">
        <ele>224.14109074057</ele>
        <time>2020-03-10T13:52:24Z</time>
      </trkpt>
      <trkpt lat="43.58671" lon="1.98376">
        <ele>223.76879273013</ele>
        <time>2020-03-10T13:52:37Z</time>
      </trkpt>
      <trkpt lat="43.58671" lon="1.98365">
        <ele>223.84241989319</ele>
        <time>2020-03-10T13:52:44Z</time>
      </trkpt>
      <trkpt lat="43.58672" lon="1.98353">
        <ele>223.09875735571</ele>
        <time>2020-03-10T13:52:49Z</time>
      </trkpt>
      <trkpt lat="43.58674" lon="1.98342">
        <ele>222.01899124889</ele>
        <time>2020-03-10T13:52:57Z</time>
      </trkpt>
      <trkpt lat="43.58676" lon="1.98331">
        <ele>221.00485852437</ele>
        <time>2020-03-10T13:53:06Z</time>
      </trkpt>
      <trkpt lat="43.5868" lon="1.98321">
        <ele>220.37102988643</ele>
        <time>2020-03-10T13:53:14Z</time>
      </trkpt>
      <trkpt lat="43.58675" lon="1.98311">
        <ele>221.58006420069</ele>
        <time>2020-03-10T13:53:21Z</time>
      </trkpt>
      <trkpt lat="43.5867" lon="1.98303">
        <ele>223.04565880064</ele>
        <time>2020-03-10T13:53:30Z</time>
      </trkpt>
      <trkpt lat="43.58665" lon="1.98294">
        <ele>224.26452541717</ele>
        <time>2020-03-10T13:53:42Z</time>
      </trkpt>
      <trkpt lat="43.5866" lon="1.98284">
        <ele>224.87319849329</ele>
        <time>2020-03-10T13:53:50Z</time>
      </trkpt>
      <trkpt lat="43.58655" lon="1.98276">
        <ele>224.30397567239</ele>
        <time>2020-03-10T13:54:00Z</time>
      </trkpt>
      <trkpt lat="43.58649" lon="1.98269">
        <ele>223.64898049966</ele>
        <time>2020-03-10T13:54:06Z</time>
      </trkpt>
      <trkpt lat="43.58644" lon="1.98261">
        <ele>223.34116444149</ele>
        <time>2020-03-10T13:54:13Z</time>
      </trkpt>
      <trkpt lat="43.58639" lon="1.98251">
        <ele>222.85063346995</ele>
        <time>2020-03-10T13:54:20Z</time>
      </trkpt>
      <trkpt lat="43.58634" lon="1.98242">
        <ele>220.99119978961</ele>
        <time>2020-03-10T13:54:28Z</time>
      </trkpt>
      <trkpt lat="43.58633" lon="1.98232">
        <ele>220.87079331506</ele>
        <time>2020-03-10T13:54:36Z</time>
      </trkpt>
      <trkpt lat="43.58636" lon="1.9822">
        <ele>220.66450590666</ele>
        <time>2020-03-10T13:54:44Z</time>
      </trkpt>
      <trkpt lat="43.58642" lon="1.98212">
        <ele>219.67992045446</ele>
        <time>2020-03-10T13:54:53Z</time>
      </trkpt>
      <trkpt lat="43.58649" lon="1.98206">
        <ele>220.20740910257</ele>
        <time>2020-03-10T13:55:01Z</time>
      </trkpt>
      <trkpt lat="43.58657" lon="1.98201">
        <ele>222.29538825267</ele>
        <time>2020-03-10T13:55:10Z</time>
      </trkpt>
      <trkpt lat="43.58665" lon="1.98197">
        <ele>225.68308491307</ele>
        <time>2020-03-10T13:55:25Z</time>
      </trkpt>
      <trkpt lat="43.58671" lon="1.98189">
        <ele>226.53145738273</ele>
        <time>2020-03-10T13:55:36Z</time>
      </trkpt>
      <trkpt lat="43.58674" lon="1.98178">
        <ele>226.93879751152</ele>
        <time>2020-03-10T13:55:46Z</time>
      </trkpt>
      <trkpt lat="43.58674" lon="1.98166">
        <ele>228.1708835866</ele>
        <time>2020-03-10T13:55:56Z</time>
      </trkpt>
      <trkpt lat="43.58674" lon="1.98154">
        <ele>228.46119267966</ele>
        <time>2020-03-10T13:56:23Z</time>
      </trkpt>
      <trkpt lat="43.58675" lon="1.98143">
        <ele>231.23005991863</ele>
        <time>2020-03-10T13:56:29Z</time>
      </trkpt>
      <trkpt lat="43.58677" lon="1.98132">
        <ele>230.94184978895</ele>
        <time>2020-03-10T13:56:36Z</time>
      </trkpt>
      <trkpt lat="43.58679" lon="1.9812">
        <ele>231.0424700382</ele>
        <time>2020-03-10T13:56:46Z</time>
      </trkpt>
      <trkpt lat="43.5868" lon="1.98109">
        <ele>231.28418975624</ele>
        <time>2020-03-10T13:56:56Z</time>
      </trkpt>
      <trkpt lat="43.58682" lon="1.98097">
        <ele>229.74973992722</ele>
        <time>2020-03-10T13:57:07Z</time>
      </trkpt>
      <trkpt lat="43.58683" lon="1.98086">
        <ele>230.47360090953</ele>
        <time>2020-03-10T13:57:28Z</time>
      </trkpt>
      <trkpt lat="43.58686" lon="1.98075">
        <ele>230.12930251031</ele>
        <time>2020-03-10T13:57:57Z</time>
      </trkpt>
      <trkpt lat="43.58686" lon="1.98063">
        <ele>228.83990801225</ele>
        <time>2020-03-10T13:58:05Z</time>
      </trkpt>
      <trkpt lat="43.58684" lon="1.98051">
        <ele>228.15570201843</ele>
        <time>2020-03-10T13:58:14Z</time>
      </trkpt>
      <trkpt lat="43.58682" lon="1.9804">
        <ele>227.88637897008</ele>
        <time>2020-03-10T13:58:21Z</time>
      </trkpt>
      <trkpt lat="43.58682" lon="1.98028">
        <ele>226.57970489086</ele>
        <time>2020-03-10T13:58:29Z</time>
      </trkpt>
      <trkpt lat="43.58681" lon="1.98017">
        <ele>224.80156660687</ele>
        <time>2020-03-10T13:58:38Z</time>
      </trkpt>
      <trkpt lat="43.5868" lon="1.98005">
        <ele>224.3652439681</ele>
        <time>2020-03-10T13:58:47Z</time>
      </trkpt>
      <trkpt lat="43.58678" lon="1.97994">
        <ele>224.66622548711</ele>
        <time>2020-03-10T13:58:54Z</time>
      </trkpt>
      <trkpt lat="43.58677" lon="1.97983">
        <ele>226.69531394673</ele>
        <time>2020-03-10T13:59:01Z</time>
      </trkpt>
      <trkpt lat="43.58675" lon="1.97972">
        <ele>225.55730894418</ele>
        <time>2020-03-10T13:59:07Z</time>
      </trkpt>
      <trkpt lat="43.58674" lon="1.97961">
        <ele>226.84566585572</ele>
        <time>2020-03-10T13:59:16Z</time>
      </trkpt>
      <trkpt lat="43.58675" lon="1.97949">
        <ele>228.43819931619</ele>
        <time>2020-03-10T13:59:24Z</time>
      </trkpt>
      <trkpt lat="43.58674" lon="1.97938">
        <ele>228.15981094472</ele>
        <time>2020-03-10T13:59:32Z</time>
      </trkpt>
      <trkpt lat="43.58671" lon="1.97926">
        <ele>227.01552435617</ele>
        <time>2020-03-10T13:59:46Z</time>
      </trkpt>
      <trkpt lat="43.58671" lon="1.97915">
        <ele>228.33878869066</ele>
        <time>2020-03-10T13:59:58Z</time>
      </trkpt>
      <trkpt lat="43.58673" lon="1.97904">
        <ele>229.56002846321</ele>
        <time>2020-03-10T14:00:05Z</time>
      </trkpt>
      <trkpt lat="43.58681" lon="1.97899">
        <ele>231.90262779823</ele>
        <time>2020-03-10T14:00:16Z</time>
      </trkpt>
      <trkpt lat="43.5869" lon="1.97897">
        <ele>233.06815549853</ele>
        <time>2020-03-10T14:00:25Z</time>
      </trkpt>
      <trkpt lat="43.58699" lon="1.97897">
        <ele>234.66221306639</ele>
        <time>2020-03-10T14:00:35Z</time>
      </trkpt>
      <trkpt lat="43.58707" lon="1.97897">
        <ele>235.80275030563</ele>
        <time>2020-03-10T14:00:47Z</time>
      </trkpt>
      <trkpt lat="43.58716" lon="1.97894">
        <ele>237.21632670631</ele>
        <time>2020-03-10T14:01:10Z</time>
      </trkpt>
      <trkpt lat="43.58725" lon="1.97893">
        <ele>237.52111578785</ele>
        <time>2020-03-10T14:01:18Z</time>
      </trkpt>
      <trkpt lat="43.58733" lon="1.9789">
        <ele>238.19767348779</ele>
        <time>2020-03-10T14:01:30Z</time>
      </trkpt>
      <trkpt lat="43.58741" lon="1.97885">
        <ele>241.63177979321</ele>
        <time>2020-03-10T14:01:45Z</time>
      </trkpt>
      <trkpt lat="43.58748" lon="1.97878">
        <ele>242.5764659766</ele>
        <time>2020-03-10T14:01:54Z</time>
      </trkpt>
      <trkpt lat="43.58755" lon="1.97872">
        <ele>244.09202173976</ele>
        <time>2020-03-10T14:02:03Z</time>
      </trkpt>
      <trkpt lat="43.58759" lon="1.97861">
        <ele>244.9288351924</ele>
        <time>2020-03-10T14:02:13Z</time>
      </trkpt>
      <trkpt lat="43.58764" lon="1.97852">
        <ele>247.0208787107</ele>
        <time>2020-03-10T14:02:21Z</time>
      </trkpt>
      <trkpt lat="43.58769" lon="1.97843">
        <ele>249.06682107002</ele>
        <time>2020-03-10T14:02:28Z</time>
      </trkpt>
      <trkpt lat="43.58772" lon="1.97832">
        <ele>249.97824719599</ele>
        <time>2020-03-10T14:02:35Z</time>
      </trkpt>
      <trkpt lat="43.58775" lon="1.97822">
        <ele>250.50409632306</ele>
        <time>2020-03-10T14:02:42Z</time>
      </trkpt>
      <trkpt lat="43.5878" lon="1.97813">
        <ele>250.85956046409</ele>
        <time>2020-03-10T14:02:49Z</time>
      </trkpt>
      <trkpt lat="43.58788" lon="1.9781">
        <ele>250.40327454371</ele>
        <time>2020-03-10T14:02:59Z</time>
      </trkpt>
      <trkpt lat="43.58796" lon="1.97808">
        <ele>248.73862675167</ele>
        <time>2020-03-10T14:03:08Z</time>
      </trkpt>
      <trkpt lat="43.58802" lon="1.97806">
        <ele>248.14097672133</ele>
        <time>2020-03-10T14:03:27Z</time>
      </trkpt>
      <trkpt lat="43.58819" lon="1.978">
        <ele>247.80402338102</ele>
        <time>2020-03-10T14:03:32Z</time>
      </trkpt>
      <trkpt lat="43.58826" lon="1.97798">
        <ele>247.19682386816</ele>
        <time>2020-03-10T14:03:43Z</time>
      </trkpt>
      <trkpt lat="43.58834" lon="1.97794">
        <ele>246.3597351876</ele>
        <time>2020-03-10T14:03:48Z</time>
      </trkpt>
      <trkpt lat="43.58842" lon="1.97792">
        <ele>245.67128971388</ele>
        <time>2020-03-10T14:03:55Z</time>
      </trkpt>
      <trkpt lat="43.5885" lon="1.97786">
        <ele>246.01711800459</ele>
        <time>2020-03-10T14:04:04Z</time>
      </trkpt>
      <trkpt lat="43.58857" lon="1.97781">
        <ele>245.2267191457</ele>
        <time>2020-03-10T14:04:27Z</time>
      </trkpt>
      <trkpt lat="43.58865" lon="1.97781">
        <ele>244.52357777188</ele>
        <time>2020-03-10T14:04:35Z</time>
      </trkpt>
      <trkpt lat="43.58874" lon="1.97778">
        <ele>243.94924981579</ele>
        <time>2020-03-10T14:04:43Z</time>
      </trkpt>
      <trkpt lat="43.58883" lon="1.97777">
        <ele>244.87203509081</ele>
        <time>2020-03-10T14:04:52Z</time>
      </trkpt>
      <trkpt lat="43.58891" lon="1.97773">
        <ele>244.05977010177</ele>
        <time>2020-03-10T14:05:00Z</time>
      </trkpt>
      <trkpt lat="43.58897" lon="1.97767">
        <ele>242.3420757494</ele>
        <time>2020-03-10T14:05:15Z</time>
      </trkpt>
      <trkpt lat="43.58905" lon="1.97763">
        <ele>240.28634325338</ele>
        <time>2020-03-10T14:05:21Z</time>
      </trkpt>
      <trkpt lat="43.58914" lon="1.9776">
        <ele>241.72253915144</ele>
        <time>2020-03-10T14:05:43Z</time>
      </trkpt>
      <trkpt lat="43.58922" lon="1.97756">
        <ele>243.06096463804</ele>
        <time>2020-03-10T14:05:52Z</time>
      </trkpt>
      <trkpt lat="43.58929" lon="1.9775">
        <ele>242.90653529197</ele>
        <time>2020-03-10T14:05:58Z</time>
      </trkpt>
      <trkpt lat="43.58936" lon="1.97746">
        <ele>243.17526393914</ele>
        <time>2020-03-10T14:06:04Z</time>
      </trkpt>
      <trkpt lat="43.58944" lon="1.97745">
        <ele>241.7454835667</ele>
        <time>2020-03-10T14:06:15Z</time>
      </trkpt>
      <trkpt lat="43.5895" lon="1.97737">
        <ele>242.68515702072</ele>
        <time>2020-03-10T14:06:23Z</time>
      </trkpt>
      <trkpt lat="43.58955" lon="1.97728">
        <ele>244.16535757964</ele>
        <time>2020-03-10T14:06:31Z</time>
      </trkpt>
      <trkpt lat="43.5896" lon="1.97719">
        <ele>245.25702523262</ele>
        <time>2020-03-10T14:06:38Z</time>
      </trkpt>
      <trkpt lat="43.58968" lon="1.97715">
        <ele>246.43964313051</ele>
        <time>2020-03-10T14:06:46Z</time>
      </trkpt>
      <trkpt lat="43.58974" lon="1.97706">
        <ele>247.37307145611</ele>
        <time>2020-03-10T14:06:54Z</time>
      </trkpt>
      <trkpt lat="43.58981" lon="1.97698">
        <ele>247.77121095914</ele>
        <time>2020-03-10T14:07:03Z</time>
      </trkpt>
      <trkpt lat="43.58987" lon="1.97691">
        <ele>246.89349298066</ele>
        <time>2020-03-10T14:07:13Z</time>
      </trkpt>
      <trkpt lat="43.58994" lon="1.97684">
        <ele>247.33519239292</ele>
        <time>2020-03-10T14:07:22Z</time>
      </trkpt>
      <trkpt lat="43.58999" lon="1.97675">
        <ele>247.61223992813</ele>
        <time>2020-03-10T14:07:32Z</time>
      </trkpt>
      <trkpt lat="43.59005" lon="1.97666">
        <ele>247.2834284315</ele>
        <time>2020-03-10T14:07:41Z</time>
      </trkpt>
      <trkpt lat="43.59011" lon="1.97658">
        <ele>247.15216188719</ele>
        <time>2020-03-10T14:07:52Z</time>
      </trkpt>
      <trkpt lat="43.59018" lon="1.9765">
        <ele>249.50482261855</ele>
        <time>2020-03-10T14:08:01Z</time>
      </trkpt>
      <trkpt lat="43.59024" lon="1.97643">
        <ele>250.73222875901</ele>
        <time>2020-03-10T14:08:11Z</time>
      </trkpt>
      <trkpt lat="43.5903" lon="1.97636">
        <ele>253.69804317404</ele>
        <time>2020-03-10T14:08:24Z</time>
      </trkpt>
      <trkpt lat="43.59037" lon="1.97627">
        <ele>255.36933387517</ele>
        <time>2020-03-10T14:08:34Z</time>
      </trkpt>
      <trkpt lat="43.59043" lon="1.9762">
        <ele>256.34829800753</ele>
        <time>2020-03-10T14:08:46Z</time>
      </trkpt>
      <trkpt lat="43.59051" lon="1.97612">
        <ele>255.28710024808</ele>
        <time>2020-03-10T14:08:57Z</time>
      </trkpt>
      <trkpt lat="43.59055" lon="1.97603">
        <ele>253.70413610632</ele>
        <time>2020-03-10T14:09:08Z</time>
      </trkpt>
      <trkpt lat="43.5906" lon="1.97594">
        <ele>255.15191621069</ele>
        <time>2020-03-10T14:09:21Z</time>
      </trkpt>
      <trkpt lat="43.59064" lon="1.97583">
        <ele>257.70577696971</ele>
        <time>2020-03-10T14:09:31Z</time>
      </trkpt>
      <trkpt lat="43.5906" lon="1.97572">
        <ele>258.36792401339</ele>
        <time>2020-03-10T14:11:58Z</time>
      </trkpt>
      <trkpt lat="43.59056" lon="1.97562">
        <ele>259.88732506807</ele>
        <time>2020-03-10T14:12:05Z</time>
      </trkpt>
      <trkpt lat="43.59052" lon="1.97551">
        <ele>260.97788436118</ele>
        <time>2020-03-10T14:12:13Z</time>
      </trkpt>
      <trkpt lat="43.59049" lon="1.9754">
        <ele>262.34884523309</ele>
        <time>2020-03-10T14:12:23Z</time>
      </trkpt>
      <trkpt lat="43.59048" lon="1.97528">
        <ele>264.0914744948</ele>
        <time>2020-03-10T14:12:32Z</time>
      </trkpt>
      <trkpt lat="43.59046" lon="1.97517">
        <ele>265.21965699441</ele>
        <time>2020-03-10T14:12:39Z</time>
      </trkpt>
      <trkpt lat="43.59043" lon="1.97506">
        <ele>266.48932753961</ele>
        <time>2020-03-10T14:12:46Z</time>
      </trkpt>
      <trkpt lat="43.5904" lon="1.97496">
        <ele>268.64290153602</ele>
        <time>2020-03-10T14:12:55Z</time>
      </trkpt>
      <trkpt lat="43.59037" lon="1.97485">
        <ele>272.86574649436</ele>
        <time>2020-03-10T14:13:05Z</time>
      </trkpt>
      <trkpt lat="43.59032" lon="1.97475">
        <ele>273.47091279128</ele>
        <time>2020-03-10T14:13:14Z</time>
      </trkpt>
      <trkpt lat="43.59025" lon="1.97467">
        <ele>275.52242611132</ele>
        <time>2020-03-10T14:13:23Z</time>
      </trkpt>
      <trkpt lat="43.59017" lon="1.97463">
        <ele>276.64007215627</ele>
        <time>2020-03-10T14:13:34Z</time>
      </trkpt>
      <trkpt lat="43.59009" lon="1.9746">
        <ele>277.02432035761</ele>
        <time>2020-03-10T14:13:43Z</time>
      </trkpt>
      <trkpt lat="43.59001" lon="1.9746">
        <ele>277.62388026905</ele>
        <time>2020-03-10T14:13:50Z</time>
      </trkpt>
      <trkpt lat="43.58992" lon="1.97457">
        <ele>277.60110480502</ele>
        <time>2020-03-10T14:13:59Z</time>
      </trkpt>
      <trkpt lat="43.58984" lon="1.97454">
        <ele>278.35868351696</ele>
        <time>2020-03-10T14:14:08Z</time>
      </trkpt>
      <trkpt lat="43.58975" lon="1.97452">
        <ele>278.90765678797</ele>
        <time>2020-03-10T14:14:16Z</time>
      </trkpt>
      <trkpt lat="43.58967" lon="1.97447">
        <ele>280.2281509478</ele>
        <time>2020-03-10T14:14:26Z</time>
      </trkpt>
      <trkpt lat="43.58958" lon="1.97446">
        <ele>281.14573906846</ele>
        <time>2020-03-10T14:14:34Z</time>
      </trkpt>
      <trkpt lat="43.5895" lon="1.97441">
        <ele>281.51121289967</ele>
        <time>2020-03-10T14:14:44Z</time>
      </trkpt>
      <trkpt lat="43.58942" lon="1.97438">
        <ele>282.24797158217</ele>
        <time>2020-03-10T14:14:53Z</time>
      </trkpt>
      <trkpt lat="43.58935" lon="1.97433">
        <ele>283.87552052591</ele>
        <time>2020-03-10T14:15:01Z</time>
      </trkpt>
      <trkpt lat="43.58927" lon="1.97429">
        <ele>284.96249854165</ele>
        <time>2020-03-10T14:15:09Z</time>
      </trkpt>
      <trkpt lat="43.5892" lon="1.97425">
        <ele>285.19872581541</ele>
        <time>2020-03-10T14:15:16Z</time>
      </trkpt>
      <trkpt lat="43.58912" lon="1.9742">
        <ele>285.45946142485</ele>
        <time>2020-03-10T14:15:24Z</time>
      </trkpt>
      <trkpt lat="43.58905" lon="1.97414">
        <ele>285.60827609809</ele>
        <time>2020-03-10T14:15:35Z</time>
      </trkpt>
      <trkpt lat="43.58897" lon="1.97409">
        <ele>284.83309015895</ele>
        <time>2020-03-10T14:15:45Z</time>
      </trkpt>
      <trkpt lat="43.58891" lon="1.974">
        <ele>284.15298323211</ele>
        <time>2020-03-10T14:15:54Z</time>
      </trkpt>
      <trkpt lat="43.5889" lon="1.97388">
        <ele>284.15061083893</ele>
        <time>2020-03-10T14:16:02Z</time>
      </trkpt>
      <trkpt lat="43.58887" lon="1.97377">
        <ele>287.23886545215</ele>
        <time>2020-03-10T14:16:10Z</time>
      </trkpt>
      <trkpt lat="43.58884" lon="1.97365">
        <ele>288.82465297477</ele>
        <time>2020-03-10T14:16:18Z</time>
      </trkpt>
      <trkpt lat="43.5888" lon="1.97354">
        <ele>288.08082179021</ele>
        <time>2020-03-10T14:16:26Z</time>
      </trkpt>
      <trkpt lat="43.58877" lon="1.97344">
        <ele>287.76642113953</ele>
        <time>2020-03-10T14:16:33Z</time>
      </trkpt>
      <trkpt lat="43.58875" lon="1.97333">
        <ele>286.88797111713</ele>
        <time>2020-03-10T14:16:40Z</time>
      </trkpt>
      <trkpt lat="43.58873" lon="1.97321">
        <ele>286.67791933482</ele>
        <time>2020-03-10T14:16:48Z</time>
      </trkpt>
      <trkpt lat="43.58871" lon="1.9731">
        <ele>286.32285072431</ele>
        <time>2020-03-10T14:16:56Z</time>
      </trkpt>
      <trkpt lat="43.58868" lon="1.97298">
        <ele>287.778376932</ele>
        <time>2020-03-10T14:17:04Z</time>
      </trkpt>
      <trkpt lat="43.58865" lon="1.97288">
        <ele>288.48867855861</ele>
        <time>2020-03-10T14:17:11Z</time>
      </trkpt>
      <trkpt lat="43.58861" lon="1.97276">
        <ele>289.50708416447</ele>
        <time>2020-03-10T14:17:18Z</time>
      </trkpt>
      <trkpt lat="43.58858" lon="1.97266">
        <ele>290.56294135365</ele>
        <time>2020-03-10T14:17:26Z</time>
      </trkpt>
      <trkpt lat="43.58856" lon="1.97255">
        <ele>290.90656402888</ele>
        <time>2020-03-10T14:17:33Z</time>
      </trkpt>
      <trkpt lat="43.58853" lon="1.97244">
        <ele>291.13375965169</ele>
        <time>2020-03-10T14:17:41Z</time>
      </trkpt>
      <trkpt lat="43.58851" lon="1.97233">
        <ele>291.71932628228</ele>
        <time>2020-03-10T14:17:49Z</time>
      </trkpt>
      <trkpt lat="43.58849" lon="1.97222">
        <ele>293.02400911475</ele>
        <time>2020-03-10T14:17:56Z</time>
      </trkpt>
      <trkpt lat="43.58847" lon="1.97211">
        <ele>293.42222328503</ele>
        <time>2020-03-10T14:18:04Z</time>
      </trkpt>
      <trkpt lat="43.58844" lon="1.972">
        <ele>294.10689037082</ele>
        <time>2020-03-10T14:18:13Z</time>
      </trkpt>
      <trkpt lat="43.58841" lon="1.9719">
        <ele>294.60803803374</ele>
        <time>2020-03-10T14:18:21Z</time>
      </trkpt>
      <trkpt lat="43.58839" lon="1.97179">
        <ele>295.07327306054</ele>
        <time>2020-03-10T14:18:31Z</time>
      </trkpt>
      <trkpt lat="43.58836" lon="1.97167">
        <ele>295.45419700791</ele>
        <time>2020-03-10T14:18:42Z</time>
      </trkpt>
      <trkpt lat="43.58829" lon="1.9716">
        <ele>295.68935957625</ele>
        <time>2020-03-10T14:18:52Z</time>
      </trkpt>
      <trkpt lat="43.58825" lon="1.97149">
        <ele>296.42134616101</ele>
        <time>2020-03-10T14:20:39Z</time>
      </trkpt>
      <trkpt lat="43.58821" lon="1.97138">
        <ele>296.06608603618</ele>
        <time>2020-03-10T14:20:46Z</time>
      </trkpt>
      <trkpt lat="43.58816" lon="1.97128">
        <ele>294.79149514315</ele>
        <time>2020-03-10T14:20:54Z</time>
      </trkpt>
      <trkpt lat="43.58813" lon="1.97117">
        <ele>293.68680847591</ele>
        <time>2020-03-10T14:21:02Z</time>
      </trkpt>
      <trkpt lat="43.58808" lon="1.97107">
        <ele>293.62902825786</ele>
        <time>2020-03-10T14:21:10Z</time>
      </trkpt>
      <trkpt lat="43.58805" lon="1.97096">
        <ele>293.64285439076</ele>
        <time>2020-03-10T14:21:18Z</time>
      </trkpt>
      <trkpt lat="43.58802" lon="1.97085">
        <ele>292.54797199214</ele>
        <time>2020-03-10T14:21:26Z</time>
      </trkpt>
      <trkpt lat="43.58797" lon="1.97076">
        <ele>292.50374759141</ele>
        <time>2020-03-10T14:21:32Z</time>
      </trkpt>
      <trkpt lat="43.58793" lon="1.97067">
        <ele>290.61192995311</ele>
        <time>2020-03-10T14:21:40Z</time>
      </trkpt>
      <trkpt lat="43.58789" lon="1.97056">
        <ele>289.79748153648</ele>
        <time>2020-03-10T14:21:47Z</time>
      </trkpt>
      <trkpt lat="43.58784" lon="1.97047">
        <ele>290.31362764196</ele>
        <time>2020-03-10T14:21:53Z</time>
      </trkpt>
      <trkpt lat="43.5878" lon="1.97036">
        <ele>290.53699816944</ele>
        <time>2020-03-10T14:22:02Z</time>
      </trkpt>
      <trkpt lat="43.58776" lon="1.97026">
        <ele>290.50001824316</ele>
        <time>2020-03-10T14:22:10Z</time>
      </trkpt>
      <trkpt lat="43.58771" lon="1.97017">
        <ele>290.07497415457</ele>
        <time>2020-03-10T14:22:18Z</time>
      </trkpt>
      <trkpt lat="43.58764" lon="1.97009">
        <ele>289.37392856444</ele>
        <time>2020-03-10T14:22:26Z</time>
      </trkpt>
      <trkpt lat="43.58758" lon="1.97001">
        <ele>288.32976041422</ele>
        <time>2020-03-10T14:22:34Z</time>
      </trkpt>
      <trkpt lat="43.58752" lon="1.96991">
        <ele>285.22948429777</ele>
        <time>2020-03-10T14:22:42Z</time>
      </trkpt>
      <trkpt lat="43.58748" lon="1.9698">
        <ele>283.59283097202</ele>
        <time>2020-03-10T14:22:51Z</time>
      </trkpt>
      <trkpt lat="43.58745" lon="1.96969">
        <ele>281.92659115031</ele>
        <time>2020-03-10T14:22:59Z</time>
      </trkpt>
      <trkpt lat="43.58744" lon="1.96958">
        <ele>280.98352016231</ele>
        <time>2020-03-10T14:23:07Z</time>
      </trkpt>
      <trkpt lat="43.58741" lon="1.96947">
        <ele>280.57997680532</ele>
        <time>2020-03-10T14:23:14Z</time>
      </trkpt>
      <trkpt lat="43.58739" lon="1.96936">
        <ele>279.74091625109</ele>
        <time>2020-03-10T14:23:21Z</time>
      </trkpt>
      <trkpt lat="43.58736" lon="1.96926">
        <ele>279.99476176377</ele>
        <time>2020-03-10T14:23:27Z</time>
      </trkpt>
      <trkpt lat="43.58735" lon="1.96915">
        <ele>279.78129669132</ele>
        <time>2020-03-10T14:23:34Z</time>
      </trkpt>
      <trkpt lat="43.58732" lon="1.96904">
        <ele>279.90074658275</ele>
        <time>2020-03-10T14:23:41Z</time>
      </trkpt>
      <trkpt lat="43.58731" lon="1.96893">
        <ele>279.42247453611</ele>
        <time>2020-03-10T14:23:48Z</time>
      </trkpt>
      <trkpt lat="43.58729" lon="1.96882">
        <ele>279.07697347839</ele>
        <time>2020-03-10T14:23:55Z</time>
      </trkpt>
      <trkpt lat="43.58727" lon="1.96872">
        <ele>279.58907580614</ele>
        <time>2020-03-10T14:24:02Z</time>
      </trkpt>
      <trkpt lat="43.58727" lon="1.9686">
        <ele>280.07948307297</ele>
        <time>2020-03-10T14:24:10Z</time>
      </trkpt>
      <trkpt lat="43.58726" lon="1.96848">
        <ele>281.1255804877</ele>
        <time>2020-03-10T14:24:18Z</time>
      </trkpt>
      <trkpt lat="43.58723" lon="1.96838">
        <ele>281.21846235892</ele>
        <time>2020-03-10T14:24:24Z</time>
      </trkpt>
      <trkpt lat="43.58721" lon="1.96826">
        <ele>280.61038556509</ele>
        <time>2020-03-10T14:24:31Z</time>
      </trkpt>
      <trkpt lat="43.58717" lon="1.96816">
        <ele>280.38041805123</ele>
        <time>2020-03-10T14:24:38Z</time>
      </trkpt>
      <trkpt lat="43.58712" lon="1.96807">
        <ele>278.69543363782</ele>
        <time>2020-03-10T14:24:46Z</time>
      </trkpt>
      <trkpt lat="43.58707" lon="1.96797">
        <ele>276.46425646875</ele>
        <time>2020-03-10T14:24:53Z</time>
      </trkpt>
      <trkpt lat="43.5871" lon="1.96786">
        <ele>275.61854396177</ele>
        <time>2020-03-10T14:25:01Z</time>
      </trkpt>
      <trkpt lat="43.58714" lon="1.96776">
        <ele>274.82699411407</ele>
        <time>2020-03-10T14:25:08Z</time>
      </trkpt>
      <trkpt lat="43.58719" lon="1.96767">
        <ele>274.70319723673</ele>
        <time>2020-03-10T14:25:15Z</time>
      </trkpt>
      <trkpt lat="43.58725" lon="1.96758">
        <ele>274.44838613381</ele>
        <time>2020-03-10T14:25:21Z</time>
      </trkpt>
      <trkpt lat="43.58731" lon="1.9675">
        <ele>274.39748594819</ele>
        <time>2020-03-10T14:25:29Z</time>
      </trkpt>
      <trkpt lat="43.58736" lon="1.96742">
        <ele>275.27432711882</ele>
        <time>2020-03-10T14:25:36Z</time>
      </trkpt>
      <trkpt lat="43.58743" lon="1.96734">
        <ele>275.82173581456</ele>
        <time>2020-03-10T14:25:43Z</time>
      </trkpt>
      <trkpt lat="43.58746" lon="1.96723">
        <ele>276.58040254119</ele>
        <time>2020-03-10T14:25:50Z</time>
      </trkpt>
      <trkpt lat="43.58752" lon="1.96714">
        <ele>277.31372596917</ele>
        <time>2020-03-10T14:25:57Z</time>
      </trkpt>
      <trkpt lat="43.58757" lon="1.96703">
        <ele>277.417798415</ele>
        <time>2020-03-10T14:26:04Z</time>
      </trkpt>
      <trkpt lat="43.58761" lon="1.96693">
        <ele>278.19925309183</ele>
        <time>2020-03-10T14:26:11Z</time>
      </trkpt>
      <trkpt lat="43.58766" lon="1.96685">
        <ele>277.51370607319</ele>
        <time>2020-03-10T14:26:17Z</time>
      </trkpt>
      <trkpt lat="43.58771" lon="1.96675">
        <ele>277.50450133456</ele>
        <time>2020-03-10T14:26:25Z</time>
      </trkpt>
      <trkpt lat="43.58776" lon="1.96667">
        <ele>277.05800632242</ele>
        <time>2020-03-10T14:26:31Z</time>
      </trkpt>
      <trkpt lat="43.58781" lon="1.96658">
        <ele>276.42211424024</ele>
        <time>2020-03-10T14:26:37Z</time>
      </trkpt>
      <trkpt lat="43.58785" lon="1.96649">
        <ele>275.42604989787</ele>
        <time>2020-03-10T14:26:43Z</time>
      </trkpt>
      <trkpt lat="43.58791" lon="1.9664">
        <ele>275.29791022827</ele>
        <time>2020-03-10T14:26:51Z</time>
      </trkpt>
      <trkpt lat="43.58797" lon="1.96632">
        <ele>274.25939521385</ele>
        <time>2020-03-10T14:26:58Z</time>
      </trkpt>
      <trkpt lat="43.58802" lon="1.96622">
        <ele>273.11016410308</ele>
        <time>2020-03-10T14:27:05Z</time>
      </trkpt>
      <trkpt lat="43.58805" lon="1.96611">
        <ele>272.93435307178</ele>
        <time>2020-03-10T14:27:13Z</time>
      </trkpt>
      <trkpt lat="43.58811" lon="1.96601">
        <ele>272.83901543145</ele>
        <time>2020-03-10T14:27:21Z</time>
      </trkpt>
      <trkpt lat="43.58816" lon="1.96593">
        <ele>272.10841813987</ele>
        <time>2020-03-10T14:27:28Z</time>
      </trkpt>
      <trkpt lat="43.58821" lon="1.96583">
        <ele>272.01681537679</ele>
        <time>2020-03-10T14:27:35Z</time>
      </trkpt>
      <trkpt lat="43.58826" lon="1.96574">
        <ele>270.96464679477</ele>
        <time>2020-03-10T14:27:41Z</time>
      </trkpt>
      <trkpt lat="43.58831" lon="1.96566">
        <ele>270.96379992024</ele>
        <time>2020-03-10T14:27:47Z</time>
      </trkpt>
      <trkpt lat="43.58838" lon="1.96558">
        <ele>270.46581072619</ele>
        <time>2020-03-10T14:27:55Z</time>
      </trkpt>
      <trkpt lat="43.58844" lon="1.96549">
        <ele>270.06226090564</ele>
        <time>2020-03-10T14:28:02Z</time>
      </trkpt>
      <trkpt lat="43.58849" lon="1.9654">
        <ele>270.03335610553</ele>
        <time>2020-03-10T14:28:08Z</time>
      </trkpt>
      <trkpt lat="43.58852" lon="1.96529">
        <ele>270.70641202333</ele>
        <time>2020-03-10T14:28:15Z</time>
      </trkpt>
      <trkpt lat="43.58858" lon="1.9652">
        <ele>271.38127555636</ele>
        <time>2020-03-10T14:28:22Z</time>
      </trkpt>
      <trkpt lat="43.58864" lon="1.96511">
        <ele>272.48115301814</ele>
        <time>2020-03-10T14:28:29Z</time>
      </trkpt>
      <trkpt lat="43.58868" lon="1.96502">
        <ele>273.32931381711</ele>
        <time>2020-03-10T14:28:35Z</time>
      </trkpt>
      <trkpt lat="43.58873" lon="1.96492">
        <ele>272.8698908144</ele>
        <time>2020-03-10T14:28:42Z</time>
      </trkpt>
      <trkpt lat="43.58877" lon="1.96482">
        <ele>272.9406194116</ele>
        <time>2020-03-10T14:28:49Z</time>
      </trkpt>
      <trkpt lat="43.58881" lon="1.96473">
        <ele>271.88527979954</ele>
        <time>2020-03-10T14:28:56Z</time>
      </trkpt>
      <trkpt lat="43.58886" lon="1.96462">
        <ele>272.93386905286</ele>
        <time>2020-03-10T14:29:03Z</time>
      </trkpt>
      <trkpt lat="43.58891" lon="1.96452">
        <ele>273.10644064458</ele>
        <time>2020-03-10T14:29:10Z</time>
      </trkpt>
      <trkpt lat="43.58897" lon="1.96444">
        <ele>273.67210470984</ele>
        <time>2020-03-10T14:29:17Z</time>
      </trkpt>
      <trkpt lat="43.58904" lon="1.96437">
        <ele>272.55586861457</ele>
        <time>2020-03-10T14:29:24Z</time>
      </trkpt>
      <trkpt lat="43.5891" lon="1.96428">
        <ele>271.00269195128</ele>
        <time>2020-03-10T14:29:31Z</time>
      </trkpt>
      <trkpt lat="43.58914" lon="1.96418">
        <ele>270.43650140938</ele>
        <time>2020-03-10T14:29:37Z</time>
      </trkpt>
      <trkpt lat="43.58919" lon="1.96409">
        <ele>270.04260856522</ele>
        <time>2020-03-10T14:29:44Z</time>
      </trkpt>
      <trkpt lat="43.58925" lon="1.96401">
        <ele>268.78416653556</ele>
        <time>2020-03-10T14:29:50Z</time>
      </trkpt>
      <trkpt lat="43.5893" lon="1.96391">
        <ele>269.10227525569</ele>
        <time>2020-03-10T14:29:58Z</time>
      </trkpt>
      <trkpt lat="43.58933" lon="1.9638">
        <ele>271.51159545645</ele>
        <time>2020-03-10T14:30:05Z</time>
      </trkpt>
      <trkpt lat="43.58925" lon="1.96376">
        <ele>270.1749137164</ele>
        <time>2020-03-10T14:30:33Z</time>
      </trkpt>
      <trkpt lat="43.58919" lon="1.96368">
        <ele>269.25319705391</ele>
        <time>2020-03-10T14:30:40Z</time>
      </trkpt>
      <trkpt lat="43.58914" lon="1.96359">
        <ele>268.81793441351</ele>
        <time>2020-03-10T14:30:47Z</time>
      </trkpt>
      <trkpt lat="43.58907" lon="1.96352">
        <ele>267.72811532483</ele>
        <time>2020-03-10T14:30:54Z</time>
      </trkpt>
      <trkpt lat="43.589" lon="1.96344">
        <ele>267.18205284435</ele>
        <time>2020-03-10T14:31:01Z</time>
      </trkpt>
      <trkpt lat="43.58893" lon="1.96337">
        <ele>267.24926623034</ele>
        <time>2020-03-10T14:31:08Z</time>
      </trkpt>
      <trkpt lat="43.58886" lon="1.9633">
        <ele>266.86984646231</ele>
        <time>2020-03-10T14:31:16Z</time>
      </trkpt>
      <trkpt lat="43.5888" lon="1.96322">
        <ele>266.43020540666</ele>
        <time>2020-03-10T14:31:24Z</time>
      </trkpt>
      <trkpt lat="43.58873" lon="1.96316">
        <ele>266.69529276969</ele>
        <time>2020-03-10T14:31:31Z</time>
      </trkpt>
      <trkpt lat="43.58868" lon="1.96308">
        <ele>266.93636033852</ele>
        <time>2020-03-10T14:31:39Z</time>
      </trkpt>
      <trkpt lat="43.58861" lon="1.96302">
        <ele>269.33287361725</ele>
        <time>2020-03-10T14:31:47Z</time>
      </trkpt>
      <trkpt lat="43.58854" lon="1.96294">
        <ele>270.42563969503</ele>
        <time>2020-03-10T14:31:58Z</time>
      </trkpt>
      <trkpt lat="43.58848" lon="1.96287">
        <ele>270.33380498352</ele>
        <time>2020-03-10T14:32:08Z</time>
      </trkpt>
      <trkpt lat="43.58841" lon="1.96279">
        <ele>271.95172079287</ele>
        <time>2020-03-10T14:32:18Z</time>
      </trkpt>
      <trkpt lat="43.58835" lon="1.96271">
        <ele>271.31044779518</ele>
        <time>2020-03-10T14:32:29Z</time>
      </trkpt>
      <trkpt lat="43.58828" lon="1.96264">
        <ele>271.48535950401</ele>
        <time>2020-03-10T14:32:39Z</time>
      </trkpt>
      <trkpt lat="43.58821" lon="1.96257">
        <ele>273.44263308462</ele>
        <time>2020-03-10T14:32:48Z</time>
      </trkpt>
      <trkpt lat="43.58814" lon="1.96249">
        <ele>274.40077000186</ele>
        <time>2020-03-10T14:32:58Z</time>
      </trkpt>
      <trkpt lat="43.58807" lon="1.96243">
        <ele>275.44445807069</ele>
        <time>2020-03-10T14:33:09Z</time>
      </trkpt>
      <trkpt lat="43.58801" lon="1.96234">
        <ele>275.73405437541</ele>
        <time>2020-03-10T14:33:19Z</time>
      </trkpt>
      <trkpt lat="43.58796" lon="1.96224">
        <ele>276.17499524241</ele>
        <time>2020-03-10T14:33:33Z</time>
      </trkpt>
      <trkpt lat="43.5879" lon="1.96216">
        <ele>278.41632085941</ele>
        <time>2020-03-10T14:33:45Z</time>
      </trkpt>
      <trkpt lat="43.58784" lon="1.96206">
        <ele>280.72347115043</ele>
        <time>2020-03-10T14:33:57Z</time>
      </trkpt>
      <trkpt lat="43.58783" lon="1.96194">
        <ele>283.12932782</ele>
        <time>2020-03-10T14:34:07Z</time>
      </trkpt>
      <trkpt lat="43.58782" lon="1.96183">
        <ele>286.18568273996</ele>
        <time>2020-03-10T14:34:19Z</time>
      </trkpt>
      <trkpt lat="43.58785" lon="1.96172">
        <ele>288.03040306741</ele>
        <time>2020-03-10T14:34:28Z</time>
      </trkpt>
      <trkpt lat="43.58789" lon="1.9616">
        <ele>288.88979040794</ele>
        <time>2020-03-10T14:34:38Z</time>
      </trkpt>
      <trkpt lat="43.58794" lon="1.9615">
        <ele>289.51191240551</ele>
        <time>2020-03-10T14:34:46Z</time>
      </trkpt>
      <trkpt lat="43.58797" lon="1.9614">
        <ele>290.19672295879</ele>
        <time>2020-03-10T14:34:55Z</time>
      </trkpt>
      <trkpt lat="43.58799" lon="1.96128">
        <ele>290.50012473947</ele>
        <time>2020-03-10T14:35:04Z</time>
      </trkpt>
      <trkpt lat="43.58804" lon="1.96118">
        <ele>288.65795751391</ele>
        <time>2020-03-10T14:35:13Z</time>
      </trkpt>
      <trkpt lat="43.58808" lon="1.96108">
        <ele>288.53390830036</ele>
        <time>2020-03-10T14:35:26Z</time>
      </trkpt>
      <trkpt lat="43.5881" lon="1.96096">
        <ele>288.99684914863</ele>
        <time>2020-03-10T14:35:35Z</time>
      </trkpt>
      <trkpt lat="43.58813" lon="1.96084">
        <ele>289.94802072127</ele>
        <time>2020-03-10T14:35:43Z</time>
      </trkpt>
      <trkpt lat="43.58815" lon="1.96073">
        <ele>291.94638117474</ele>
        <time>2020-03-10T14:35:56Z</time>
      </trkpt>
      <trkpt lat="43.5882" lon="1.96063">
        <ele>291.23962643628</ele>
        <time>2020-03-10T14:36:06Z</time>
      </trkpt>
      <trkpt lat="43.58823" lon="1.96052">
        <ele>292.38182506066</ele>
        <time>2020-03-10T14:36:16Z</time>
      </trkpt>
      <trkpt lat="43.58828" lon="1.96043">
        <ele>293.13890650109</ele>
        <time>2020-03-10T14:36:26Z</time>
      </trkpt>
      <trkpt lat="43.58832" lon="1.96032">
        <ele>293.32157996605</ele>
        <time>2020-03-10T14:36:35Z</time>
      </trkpt>
      <trkpt lat="43.58837" lon="1.96022">
        <ele>295.20484010923</ele>
        <time>2020-03-10T14:36:44Z</time>
      </trkpt>
      <trkpt lat="43.58839" lon="1.96011">
        <ele>296.18023531306</ele>
        <time>2020-03-10T14:36:52Z</time>
      </trkpt>
      <trkpt lat="43.5884" lon="1.96">
        <ele>297.25123264884</ele>
        <time>2020-03-10T14:37:05Z</time>
      </trkpt>
      <trkpt lat="43.58842" lon="1.95989">
        <ele>298.61824347532</ele>
        <time>2020-03-10T14:37:12Z</time>
      </trkpt>
      <trkpt lat="43.58844" lon="1.95977">
        <ele>300.39433795753</ele>
        <time>2020-03-10T14:37:23Z</time>
      </trkpt>
      <trkpt lat="43.58843" lon="1.95965">
        <ele>303.60912259854</ele>
        <time>2020-03-10T14:37:35Z</time>
      </trkpt>
      <trkpt lat="43.58834" lon="1.95968">
        <ele>309.25140377272</ele>
        <time>2020-03-10T14:38:13Z</time>
      </trkpt>
      <trkpt lat="43.58827" lon="1.95975">
        <ele>308.26182195037</ele>
        <time>2020-03-10T14:38:24Z</time>
      </trkpt>
      <trkpt lat="43.58819" lon="1.95979">
        <ele>308.14039949285</ele>
        <time>2020-03-10T14:38:33Z</time>
      </trkpt>
      <trkpt lat="43.58812" lon="1.95986">
        <ele>309.28251846489</ele>
        <time>2020-03-10T14:38:44Z</time>
      </trkpt>
      <trkpt lat="43.58805" lon="1.95993">
        <ele>309.6632730947</ele>
        <time>2020-03-10T14:38:54Z</time>
      </trkpt>
      <trkpt lat="43.58798" lon="1.96">
        <ele>309.93696796213</ele>
        <time>2020-03-10T14:39:03Z</time>
      </trkpt>
      <trkpt lat="43.58793" lon="1.96008">
        <ele>310.73607764378</ele>
        <time>2020-03-10T14:39:17Z</time>
      </trkpt>
      <trkpt lat="43.58786" lon="1.96013">
        <ele>311.68978521253</ele>
        <time>2020-03-10T14:39:28Z</time>
      </trkpt>
      <trkpt lat="43.58778" lon="1.96019">
        <ele>311.33333727714</ele>
        <time>2020-03-10T14:39:37Z</time>
      </trkpt>
      <trkpt lat="43.5877" lon="1.96026">
        <ele>313.95333860734</ele>
        <time>2020-03-10T14:39:51Z</time>
      </trkpt>
      <trkpt lat="43.58765" lon="1.96035">
        <ele>317.4192353886</ele>
        <time>2020-03-10T14:40:05Z</time>
      </trkpt>
      <trkpt lat="43.58758" lon="1.96041">
        <ele>317.66445852242</ele>
        <time>2020-03-10T14:40:18Z</time>
      </trkpt>
      <trkpt lat="43.5875" lon="1.96047">
        <ele>319.49651835866</ele>
        <time>2020-03-10T14:40:28Z</time>
      </trkpt>
      <trkpt lat="43.58744" lon="1.96055">
        <ele>318.91382640193</ele>
        <time>2020-03-10T14:40:36Z</time>
      </trkpt>
      <trkpt lat="43.58738" lon="1.96063">
        <ele>321.74574751174</ele>
        <time>2020-03-10T14:40:46Z</time>
      </trkpt>
      <trkpt lat="43.58731" lon="1.96071">
        <ele>323.08523579903</ele>
        <time>2020-03-10T14:41:04Z</time>
      </trkpt>
      <trkpt lat="43.58724" lon="1.96079">
        <ele>323.79017736107</ele>
        <time>2020-03-10T14:41:14Z</time>
      </trkpt>
      <trkpt lat="43.58717" lon="1.96085">
        <ele>323.56880518967</ele>
        <time>2020-03-10T14:41:26Z</time>
      </trkpt>
      <trkpt lat="43.58709" lon="1.96088">
        <ele>325.3994380494</ele>
        <time>2020-03-10T14:41:39Z</time>
      </trkpt>
      <trkpt lat="43.58703" lon="1.96079">
        <ele>325.65410004269</ele>
        <time>2020-03-10T14:41:55Z</time>
      </trkpt>
      <trkpt lat="43.58703" lon="1.96067">
        <ele>324.86632265068</ele>
        <time>2020-03-10T14:42:05Z</time>
      </trkpt>
      <trkpt lat="43.58704" lon="1.96055">
        <ele>324.55141861983</ele>
        <time>2020-03-10T14:42:14Z</time>
      </trkpt>
      <trkpt lat="43.58708" lon="1.96045">
        <ele>325.99752089379</ele>
        <time>2020-03-10T14:42:24Z</time>
      </trkpt>
      <trkpt lat="43.58704" lon="1.96034">
        <ele>327.03055964985</ele>
        <time>2020-03-10T14:42:45Z</time>
      </trkpt>
      <trkpt lat="43.58698" lon="1.96026">
        <ele>325.58485273475</ele>
        <time>2020-03-10T14:45:21Z</time>
      </trkpt>
      <trkpt lat="43.58691" lon="1.96022">
        <ele>326.2625785587</ele>
        <time>2020-03-10T14:45:27Z</time>
      </trkpt>
      <trkpt lat="43.58683" lon="1.96017">
        <ele>327.72451923441</ele>
        <time>2020-03-10T14:45:34Z</time>
      </trkpt>
      <trkpt lat="43.58674" lon="1.96013">
        <ele>327.32899045107</ele>
        <time>2020-03-10T14:45:44Z</time>
      </trkpt>
      <trkpt lat="43.58667" lon="1.96009">
        <ele>328.71602111741</ele>
        <time>2020-03-10T14:45:57Z</time>
      </trkpt>
      <trkpt lat="43.58659" lon="1.96009">
        <ele>329.83235123424</ele>
        <time>2020-03-10T14:46:03Z</time>
      </trkpt>
      <trkpt lat="43.5865" lon="1.96007">
        <ele>329.57386196569</ele>
        <time>2020-03-10T14:46:11Z</time>
      </trkpt>
      <trkpt lat="43.58642" lon="1.96007">
        <ele>329.92157539387</ele>
        <time>2020-03-10T14:46:19Z</time>
      </trkpt>
      <trkpt lat="43.58633" lon="1.96006">
        <ele>329.95196445441</ele>
        <time>2020-03-10T14:46:26Z</time>
      </trkpt>
      <trkpt lat="43.58625" lon="1.96004">
        <ele>330.32375121966</ele>
        <time>2020-03-10T14:46:35Z</time>
      </trkpt>
      <trkpt lat="43.58617" lon="1.96003">
        <ele>329.84296977132</ele>
        <time>2020-03-10T14:46:44Z</time>
      </trkpt>
      <trkpt lat="43.58608" lon="1.96003">
        <ele>328.56117877112</ele>
        <time>2020-03-10T14:46:53Z</time>
      </trkpt>
      <trkpt lat="43.586" lon="1.96001">
        <ele>329.30762581989</ele>
        <time>2020-03-10T14:47:01Z</time>
      </trkpt>
      <trkpt lat="43.58592" lon="1.96002">
        <ele>330.32294432957</ele>
        <time>2020-03-10T14:47:09Z</time>
      </trkpt>
      <trkpt lat="43.58584" lon="1.96004">
        <ele>330.88228556509</ele>
        <time>2020-03-10T14:48:00Z</time>
      </trkpt>
      <trkpt lat="43.58576" lon="1.95999">
        <ele>328.92115519465</ele>
        <time>2020-03-10T14:48:10Z</time>
      </trkpt>
      <trkpt lat="43.58569" lon="1.95992">
        <ele>328.69228004085</ele>
        <time>2020-03-10T14:48:20Z</time>
      </trkpt>
      <trkpt lat="43.58561" lon="1.95985">
        <ele>332.93458426774</ele>
        <time>2020-03-10T14:48:46Z</time>
      </trkpt>
      <trkpt lat="43.58553" lon="1.95982">
        <ele>331.94371338755</ele>
        <time>2020-03-10T14:48:58Z</time>
      </trkpt>
      <trkpt lat="43.58545" lon="1.9598">
        <ele>331.19895419563</ele>
        <time>2020-03-10T14:49:11Z</time>
      </trkpt>
      <trkpt lat="43.58543" lon="1.95968">
        <ele>332.21500421317</ele>
        <time>2020-03-10T14:52:30Z</time>
      </trkpt>
      <trkpt lat="43.58545" lon="1.95956">
        <ele>332.89950074984</ele>
        <time>2020-03-10T14:52:38Z</time>
      </trkpt>
      <trkpt lat="43.58548" lon="1.95945">
        <ele>333.12825794878</ele>
        <time>2020-03-10T14:52:48Z</time>
      </trkpt>
      <trkpt lat="43.58551" lon="1.95934">
        <ele>334.04750985075</ele>
        <time>2020-03-10T14:52:57Z</time>
      </trkpt>
      <trkpt lat="43.58554" lon="1.95924">
        <ele>334.99488517995</ele>
        <time>2020-03-10T14:53:08Z</time>
      </trkpt>
      <trkpt lat="43.58557" lon="1.95914">
        <ele>334.95985224767</ele>
        <time>2020-03-10T14:53:15Z</time>
      </trkpt>
      <trkpt lat="43.5856" lon="1.95903">
        <ele>333.89683509901</ele>
        <time>2020-03-10T14:53:22Z</time>
      </trkpt>
      <trkpt lat="43.58565" lon="1.95894">
        <ele>334.04050867281</ele>
        <time>2020-03-10T14:53:30Z</time>
      </trkpt>
      <trkpt lat="43.5857" lon="1.95885">
        <ele>333.83822912706</ele>
        <time>2020-03-10T14:53:39Z</time>
      </trkpt>
      <trkpt lat="43.58575" lon="1.95876">
        <ele>333.94484414086</ele>
        <time>2020-03-10T14:53:48Z</time>
      </trkpt>
      <trkpt lat="43.58581" lon="1.95867">
        <ele>333.1378422289</ele>
        <time>2020-03-10T14:53:58Z</time>
      </trkpt>
      <trkpt lat="43.58586" lon="1.95857">
        <ele>332.53956466511</ele>
        <time>2020-03-10T14:54:07Z</time>
      </trkpt>
      <trkpt lat="43.5859" lon="1.95846">
        <ele>333.05405669951</ele>
        <time>2020-03-10T14:54:14Z</time>
      </trkpt>
      <trkpt lat="43.58593" lon="1.95835">
        <ele>332.90532001435</ele>
        <time>2020-03-10T14:54:21Z</time>
      </trkpt>
      <trkpt lat="43.58598" lon="1.95826">
        <ele>331.43250170364</ele>
        <time>2020-03-10T14:54:28Z</time>
      </trkpt>
      <trkpt lat="43.58601" lon="1.95814">
        <ele>331.95254067697</ele>
        <time>2020-03-10T14:54:36Z</time>
      </trkpt>
      <trkpt lat="43.58604" lon="1.95802">
        <ele>331.51807178194</ele>
        <time>2020-03-10T14:54:45Z</time>
      </trkpt>
      <trkpt lat="43.58608" lon="1.95792">
        <ele>331.87095504176</ele>
        <time>2020-03-10T14:54:53Z</time>
      </trkpt>
      <trkpt lat="43.58611" lon="1.95781">
        <ele>333.45260794799</ele>
        <time>2020-03-10T14:55:01Z</time>
      </trkpt>
      <trkpt lat="43.5861" lon="1.9577">
        <ele>334.04700117698</ele>
        <time>2020-03-10T14:55:11Z</time>
      </trkpt>
      <trkpt lat="43.58615" lon="1.95761">
        <ele>335.53967046091</ele>
        <time>2020-03-10T14:55:20Z</time>
      </trkpt>
      <trkpt lat="43.5862" lon="1.95751">
        <ele>337.57123277662</ele>
        <time>2020-03-10T14:55:28Z</time>
      </trkpt>
      <trkpt lat="43.58624" lon="1.95741">
        <ele>339.53074286557</ele>
        <time>2020-03-10T14:55:36Z</time>
      </trkpt>
      <trkpt lat="43.58628" lon="1.95731">
        <ele>336.8202130172</ele>
        <time>2020-03-10T14:55:44Z</time>
      </trkpt>
      <trkpt lat="43.58632" lon="1.95722">
        <ele>336.59066119184</ele>
        <time>2020-03-10T14:55:51Z</time>
      </trkpt>
      <trkpt lat="43.58636" lon="1.95711">
        <ele>336.40020185219</ele>
        <time>2020-03-10T14:55:58Z</time>
      </trkpt>
      <trkpt lat="43.58642" lon="1.95701">
        <ele>336.25030413514</ele>
        <time>2020-03-10T14:56:06Z</time>
      </trkpt>
      <trkpt lat="43.58646" lon="1.95692">
        <ele>337.70434103746</ele>
        <time>2020-03-10T14:56:13Z</time>
      </trkpt>
      <trkpt lat="43.58651" lon="1.95683">
        <ele>339.17986633397</ele>
        <time>2020-03-10T14:56:21Z</time>
      </trkpt>
      <trkpt lat="43.58656" lon="1.95674">
        <ele>339.95838297772</ele>
        <time>2020-03-10T14:56:31Z</time>
      </trkpt>
      <trkpt lat="43.58663" lon="1.95665">
        <ele>340.47401946962</ele>
        <time>2020-03-10T14:56:39Z</time>
      </trkpt>
      <trkpt lat="43.58668" lon="1.95657">
        <ele>340.01192328616</ele>
        <time>2020-03-10T14:56:46Z</time>
      </trkpt>
      <trkpt lat="43.58674" lon="1.95648">
        <ele>340.83640493719</ele>
        <time>2020-03-10T14:56:54Z</time>
      </trkpt>
      <trkpt lat="43.58679" lon="1.95639">
        <ele>340.7720369483</ele>
        <time>2020-03-10T14:57:01Z</time>
      </trkpt>
      <trkpt lat="43.58684" lon="1.95631">
        <ele>340.59960581195</ele>
        <time>2020-03-10T14:57:07Z</time>
      </trkpt>
      <trkpt lat="43.5869" lon="1.95623">
        <ele>339.58033024846</ele>
        <time>2020-03-10T14:57:13Z</time>
      </trkpt>
      <trkpt lat="43.58695" lon="1.95613">
        <ele>338.30703501405</ele>
        <time>2020-03-10T14:57:21Z</time>
      </trkpt>
      <trkpt lat="43.58701" lon="1.95604">
        <ele>339.73148405306</ele>
        <time>2020-03-10T14:57:29Z</time>
      </trkpt>
      <trkpt lat="43.58703" lon="1.95592">
        <ele>340.68676625929</ele>
        <time>2020-03-10T14:57:39Z</time>
      </trkpt>
      <trkpt lat="43.58695" lon="1.95592">
        <ele>338.26711750938</ele>
        <time>2020-03-10T14:57:51Z</time>
      </trkpt>
      <trkpt lat="43.58687" lon="1.95594">
        <ele>336.68234953413</ele>
        <time>2020-03-10T14:57:59Z</time>
      </trkpt>
      <trkpt lat="43.58678" lon="1.95596">
        <ele>336.92972887505</ele>
        <time>2020-03-10T14:58:09Z</time>
      </trkpt>
      <trkpt lat="43.58671" lon="1.95595">
        <ele>335.72664954973</ele>
        <time>2020-03-10T14:58:16Z</time>
      </trkpt>
      <trkpt lat="43.58663" lon="1.95598">
        <ele>334.4650631929</ele>
        <time>2020-03-10T14:58:21Z</time>
      </trkpt>
      <trkpt lat="43.58654" lon="1.95595">
        <ele>334.77846061662</ele>
        <time>2020-03-10T14:58:31Z</time>
      </trkpt>
      <trkpt lat="43.58645" lon="1.95595">
        <ele>334.84258077426</ele>
        <time>2020-03-10T14:58:39Z</time>
      </trkpt>
      <trkpt lat="43.58637" lon="1.95595">
        <ele>334.61148990077</ele>
        <time>2020-03-10T14:58:46Z</time>
      </trkpt>
      <trkpt lat="43.58629" lon="1.95595">
        <ele>333.44888078705</ele>
        <time>2020-03-10T14:58:55Z</time>
      </trkpt>
      <trkpt lat="43.58621" lon="1.95596">
        <ele>332.42097082734</ele>
        <time>2020-03-10T14:59:04Z</time>
      </trkpt>
      <trkpt lat="43.58612" lon="1.95597">
        <ele>330.02992873618</ele>
        <time>2020-03-10T14:59:15Z</time>
      </trkpt>
      <trkpt lat="43.58604" lon="1.95597">
        <ele>328.01350160517</ele>
        <time>2020-03-10T14:59:29Z</time>
      </trkpt>
      <trkpt lat="43.58596" lon="1.95597">
        <ele>328.25598598848</ele>
        <time>2020-03-10T14:59:37Z</time>
      </trkpt>
      <trkpt lat="43.58588" lon="1.95596">
        <ele>328.17691736219</ele>
        <time>2020-03-10T14:59:48Z</time>
      </trkpt>
      <trkpt lat="43.58579" lon="1.95594">
        <ele>327.92035008875</ele>
        <time>2020-03-10T14:59:56Z</time>
      </trkpt>
      <trkpt lat="43.58571" lon="1.95597">
        <ele>327.47104211006</ele>
        <time>2020-03-10T15:00:02Z</time>
      </trkpt>
      <trkpt lat="43.58563" lon="1.95599">
        <ele>327.25343936192</ele>
        <time>2020-03-10T15:00:08Z</time>
      </trkpt>
      <trkpt lat="43.58554" lon="1.95598">
        <ele>326.99034643939</ele>
        <time>2020-03-10T15:00:14Z</time>
      </trkpt>
      <trkpt lat="43.5855" lon="1.95588">
        <ele>326.60291173906</ele>
        <time>2020-03-10T15:00:25Z</time>
      </trkpt>
      <trkpt lat="43.58554" lon="1.95578">
        <ele>323.75686785156</ele>
        <time>2020-03-10T15:00:39Z</time>
      </trkpt>
      <trkpt lat="43.58558" lon="1.95568">
        <ele>322.46363063883</ele>
        <time>2020-03-10T15:00:47Z</time>
      </trkpt>
      <trkpt lat="43.5856" lon="1.95556">
        <ele>320.61046434999</ele>
        <time>2020-03-10T15:00:56Z</time>
      </trkpt>
      <trkpt lat="43.58557" lon="1.95546">
        <ele>320.22527742882</ele>
        <time>2020-03-10T15:01:14Z</time>
      </trkpt>
      <trkpt lat="43.5855" lon="1.95541">
        <ele>319.19448118059</ele>
        <time>2020-03-10T15:01:20Z</time>
      </trkpt>
      <trkpt lat="43.58541" lon="1.9554">
        <ele>318.0630325723</ele>
        <time>2020-03-10T15:01:30Z</time>
      </trkpt>
      <trkpt lat="43.58533" lon="1.95537">
        <ele>319.56514499704</ele>
        <time>2020-03-10T15:01:52Z</time>
      </trkpt>
      <trkpt lat="43.58525" lon="1.95536">
        <ele>318.6253603069</ele>
        <time>2020-03-10T15:02:04Z</time>
      </trkpt>
      <trkpt lat="43.58517" lon="1.95534">
        <ele>317.41995889616</ele>
        <time>2020-03-10T15:02:11Z</time>
      </trkpt>
      <trkpt lat="43.58509" lon="1.9553">
        <ele>314.47925678167</ele>
        <time>2020-03-10T15:02:29Z</time>
      </trkpt>
      <trkpt lat="43.585" lon="1.9553">
        <ele>313.89373490199</ele>
        <time>2020-03-10T15:02:37Z</time>
      </trkpt>
      <trkpt lat="43.58492" lon="1.95529">
        <ele>312.83003023122</ele>
        <time>2020-03-10T15:02:47Z</time>
      </trkpt>
      <trkpt lat="43.58483" lon="1.95529">
        <ele>312.88711554646</ele>
        <time>2020-03-10T15:02:53Z</time>
      </trkpt>
      <trkpt lat="43.58476" lon="1.95528">
        <ele>312.85401182061</ele>
        <time>2020-03-10T15:03:03Z</time>
      </trkpt>
      <trkpt lat="43.58468" lon="1.95529">
        <ele>310.30606637312</ele>
        <time>2020-03-10T15:03:08Z</time>
      </trkpt>
      <trkpt lat="43.58461" lon="1.95528">
        <ele>310.0632127663</ele>
        <time>2020-03-10T15:03:31Z</time>
      </trkpt>
      <trkpt lat="43.58454" lon="1.95523">
        <ele>309.85852492524</ele>
        <time>2020-03-10T15:03:42Z</time>
      </trkpt>
      <trkpt lat="43.58447" lon="1.9552">
        <ele>309.9413746688</ele>
        <time>2020-03-10T15:03:50Z</time>
      </trkpt>
      <trkpt lat="43.58439" lon="1.9552">
        <ele>308.69325893049</ele>
        <time>2020-03-10T15:03:56Z</time>
      </trkpt>
      <trkpt lat="43.5843" lon="1.95521">
        <ele>305.67228608637</ele>
        <time>2020-03-10T15:04:08Z</time>
      </trkpt>
      <trkpt lat="43.58423" lon="1.95523">
        <ele>303.48920220906</ele>
        <time>2020-03-10T15:04:26Z</time>
      </trkpt>
      <trkpt lat="43.58412" lon="1.9552">
        <ele>301.46989275877</ele>
        <time>2020-03-10T15:04:31Z</time>
      </trkpt>
      <trkpt lat="43.58408" lon="1.9551">
        <ele>300.03404229177</ele>
        <time>2020-03-10T15:04:38Z</time>
      </trkpt>
      <trkpt lat="43.58403" lon="1.955">
        <ele>296.93672953595</ele>
        <time>2020-03-10T15:04:49Z</time>
      </trkpt>
      <trkpt lat="43.58399" lon="1.95489">
        <ele>295.42236492379</ele>
        <time>2020-03-10T15:04:59Z</time>
      </trkpt>
      <trkpt lat="43.58397" lon="1.95478">
        <ele>292.1328595932</ele>
        <time>2020-03-10T15:05:18Z</time>
      </trkpt>
      <trkpt lat="43.58395" lon="1.95466">
        <ele>290.33492003826</ele>
        <time>2020-03-10T15:05:26Z</time>
      </trkpt>
      <trkpt lat="43.5839" lon="1.95459">
        <ele>287.9328353262</ele>
        <time>2020-03-10T15:05:34Z</time>
      </trkpt>
      <trkpt lat="43.58386" lon="1.95449">
        <ele>286.76999206743</ele>
        <time>2020-03-10T15:05:45Z</time>
      </trkpt>
      <trkpt lat="43.58381" lon="1.9544">
        <ele>287.78071093625</ele>
        <time>2020-03-10T15:05:56Z</time>
      </trkpt>
      <trkpt lat="43.58373" lon="1.95435">
        <ele>284.44574247086</ele>
        <time>2020-03-10T15:06:14Z</time>
      </trkpt>
      <trkpt lat="43.58366" lon="1.95429">
        <ele>280.92766251133</ele>
        <time>2020-03-10T15:06:28Z</time>
      </trkpt>
      <trkpt lat="43.58358" lon="1.95424">
        <ele>280.54287457169</ele>
        <time>2020-03-10T15:06:37Z</time>
      </trkpt>
      <trkpt lat="43.5835" lon="1.95422">
        <ele>279.80208334848</ele>
        <time>2020-03-10T15:06:46Z</time>
      </trkpt>
      <trkpt lat="43.58341" lon="1.95422">
        <ele>277.75340546271</ele>
        <time>2020-03-10T15:06:54Z</time>
      </trkpt>
      <trkpt lat="43.58334" lon="1.95424">
        <ele>275.84975222444</ele>
        <time>2020-03-10T15:07:03Z</time>
      </trkpt>
      <trkpt lat="43.58326" lon="1.9543">
        <ele>276.83282200302</ele>
        <time>2020-03-10T15:07:10Z</time>
      </trkpt>
      <trkpt lat="43.58321" lon="1.95439">
        <ele>278.29827434258</ele>
        <time>2020-03-10T15:07:21Z</time>
      </trkpt>
      <trkpt lat="43.58323" lon="1.9545">
        <ele>277.84692666045</ele>
        <time>2020-03-10T15:07:31Z</time>
      </trkpt>
      <trkpt lat="43.58315" lon="1.95453">
        <ele>274.95788497244</ele>
        <time>2020-03-10T15:07:52Z</time>
      </trkpt>
      <trkpt lat="43.58307" lon="1.95449">
        <ele>272.96591974644</ele>
        <time>2020-03-10T15:08:03Z</time>
      </trkpt>
      <trkpt lat="43.583" lon="1.95444">
        <ele>269.79347388543</ele>
        <time>2020-03-10T15:08:15Z</time>
      </trkpt>
      <trkpt lat="43.58292" lon="1.95439">
        <ele>267.75637964764</ele>
        <time>2020-03-10T15:08:29Z</time>
      </trkpt>
      <trkpt lat="43.58283" lon="1.95436">
        <ele>267.89318013562</ele>
        <time>2020-03-10T15:08:41Z</time>
      </trkpt>
      <trkpt lat="43.58275" lon="1.95434">
        <ele>267.13214942851</ele>
        <time>2020-03-10T15:08:54Z</time>
      </trkpt>
      <trkpt lat="43.58267" lon="1.95429">
        <ele>264.72196607874</ele>
        <time>2020-03-10T15:09:10Z</time>
      </trkpt>
      <trkpt lat="43.58258" lon="1.9543">
        <ele>263.5206920107</ele>
        <time>2020-03-10T15:09:27Z</time>
      </trkpt>
      <trkpt lat="43.5825" lon="1.95426">
        <ele>261.81655078725</ele>
        <time>2020-03-10T15:10:12Z</time>
      </trkpt>
      <trkpt lat="43.58241" lon="1.95422">
        <ele>258.45344348076</ele>
        <time>2020-03-10T15:10:27Z</time>
      </trkpt>
      <trkpt lat="43.58234" lon="1.95418">
        <ele>257.06829605398</ele>
        <time>2020-03-10T15:10:38Z</time>
      </trkpt>
      <trkpt lat="43.58225" lon="1.95416">
        <ele>257.0063268872</ele>
        <time>2020-03-10T15:10:54Z</time>
      </trkpt>
      <trkpt lat="43.58217" lon="1.95412">
        <ele>255.43137948638</ele>
        <time>2020-03-10T15:11:02Z</time>
      </trkpt>
      <trkpt lat="43.58209" lon="1.95407">
        <ele>254.63207611524</ele>
        <time>2020-03-10T15:11:19Z</time>
      </trkpt>
      <trkpt lat="43.58202" lon="1.95401">
        <ele>253.78096091112</ele>
        <time>2020-03-10T15:11:32Z</time>
      </trkpt>
      <trkpt lat="43.58195" lon="1.95396">
        <ele>254.90948071907</ele>
        <time>2020-03-10T15:11:40Z</time>
      </trkpt>
      <trkpt lat="43.58188" lon="1.95393">
        <ele>253.1485907366</ele>
        <time>2020-03-10T15:11:47Z</time>
      </trkpt>
      <trkpt lat="43.58179" lon="1.95393">
        <ele>250.96725603958</ele>
        <time>2020-03-10T15:11:53Z</time>
      </trkpt>
      <trkpt lat="43.5817" lon="1.95393">
        <ele>249.02032571765</ele>
        <time>2020-03-10T15:12:03Z</time>
      </trkpt>
      <trkpt lat="43.58163" lon="1.95388">
        <ele>247.41705472714</ele>
        <time>2020-03-10T15:12:16Z</time>
      </trkpt>
      <trkpt lat="43.58156" lon="1.95382">
        <ele>248.28408939597</ele>
        <time>2020-03-10T15:12:24Z</time>
      </trkpt>
      <trkpt lat="43.58147" lon="1.95387">
        <ele>249.62587353946</ele>
        <time>2020-03-10T15:12:35Z</time>
      </trkpt>
      <trkpt lat="43.58142" lon="1.95396">
        <ele>248.58266613442</ele>
        <time>2020-03-10T15:12:44Z</time>
      </trkpt>
      <trkpt lat="43.58135" lon="1.95404">
        <ele>248.50171655144</ele>
        <time>2020-03-10T15:12:52Z</time>
      </trkpt>
      <trkpt lat="43.58134" lon="1.95392">
        <ele>246.83540673455</ele>
        <time>2020-03-10T15:16:16Z</time>
      </trkpt>
      <trkpt lat="43.5813" lon="1.95381">
        <ele>247.56742550215</ele>
        <time>2020-03-10T15:16:27Z</time>
      </trkpt>
      <trkpt lat="43.58131" lon="1.95369">
        <ele>246.71610927523</ele>
        <time>2020-03-10T15:16:35Z</time>
      </trkpt>
      <trkpt lat="43.58134" lon="1.95379">
        <ele>246.18356103803</ele>
        <time>2020-03-10T15:18:04Z</time>
      </trkpt>
      <trkpt lat="43.58133" lon="1.95391">
        <ele>245.5955440988</ele>
        <time>2020-03-10T15:18:11Z</time>
      </trkpt>
      <trkpt lat="43.58135" lon="1.95403">
        <ele>246.52871914001</ele>
        <time>2020-03-10T15:18:23Z</time>
      </trkpt>
      <trkpt lat="43.58131" lon="1.95412">
        <ele>247.34896571097</ele>
        <time>2020-03-10T15:20:13Z</time>
      </trkpt>
      <trkpt lat="43.58134" lon="1.95423">
        <ele>245.32190043683</ele>
        <time>2020-03-10T15:20:18Z</time>
      </trkpt>
      <trkpt lat="43.58139" lon="1.95433">
        <ele>244.85987990152</ele>
        <time>2020-03-10T15:20:23Z</time>
      </trkpt>
      <trkpt lat="43.58144" lon="1.95443">
        <ele>245.34917203835</ele>
        <time>2020-03-10T15:20:31Z</time>
      </trkpt>
      <trkpt lat="43.58147" lon="1.95455">
        <ele>245.68609694926</ele>
        <time>2020-03-10T15:20:40Z</time>
      </trkpt>
      <trkpt lat="43.5815" lon="1.95465">
        <ele>245.71330673029</ele>
        <time>2020-03-10T15:20:48Z</time>
      </trkpt>
      <trkpt lat="43.58154" lon="1.95475">
        <ele>246.13723121042</ele>
        <time>2020-03-10T15:20:55Z</time>
      </trkpt>
      <trkpt lat="43.58158" lon="1.95486">
        <ele>245.14593085366</ele>
        <time>2020-03-10T15:21:02Z</time>
      </trkpt>
      <trkpt lat="43.58161" lon="1.95496">
        <ele>244.56036866037</ele>
        <time>2020-03-10T15:21:08Z</time>
      </trkpt>
      <trkpt lat="43.58165" lon="1.95507">
        <ele>243.24152983402</ele>
        <time>2020-03-10T15:21:15Z</time>
      </trkpt>
      <trkpt lat="43.58168" lon="1.95519">
        <ele>242.70461972916</ele>
        <time>2020-03-10T15:21:22Z</time>
      </trkpt>
      <trkpt lat="43.58167" lon="1.95529">
        <ele>241.56185812322</ele>
        <time>2020-03-10T15:21:27Z</time>
      </trkpt>
      <trkpt lat="43.58171" lon="1.9554">
        <ele>244.82435024265</ele>
        <time>2020-03-10T15:21:33Z</time>
      </trkpt>
      <trkpt lat="43.58176" lon="1.9555">
        <ele>248.57924681087</ele>
        <time>2020-03-10T15:21:40Z</time>
      </trkpt>
      <trkpt lat="43.58177" lon="1.9556">
        <ele>249.97044136031</ele>
        <time>2020-03-10T15:21:47Z</time>
      </trkpt>
      <trkpt lat="43.58178" lon="1.95571">
        <ele>252.73671824013</ele>
        <time>2020-03-10T15:21:53Z</time>
      </trkpt>
      <trkpt lat="43.58181" lon="1.95583">
        <ele>255.89844625824</ele>
        <time>2020-03-10T15:22:00Z</time>
      </trkpt>
      <trkpt lat="43.58179" lon="1.95595">
        <ele>254.09336041877</ele>
        <time>2020-03-10T15:22:07Z</time>
      </trkpt>
      <trkpt lat="43.58179" lon="1.95606">
        <ele>251.22353990441</ele>
        <time>2020-03-10T15:22:14Z</time>
      </trkpt>
      <trkpt lat="43.58175" lon="1.95617">
        <ele>248.31057442936</ele>
        <time>2020-03-10T15:22:22Z</time>
      </trkpt>
      <trkpt lat="43.58175" lon="1.95628">
        <ele>246.57251922929</ele>
        <time>2020-03-10T15:22:30Z</time>
      </trkpt>
      <trkpt lat="43.58173" lon="1.9564">
        <ele>247.06634698411</ele>
        <time>2020-03-10T15:22:38Z</time>
      </trkpt>
      <trkpt lat="43.5817" lon="1.95651">
        <ele>245.43560948023</ele>
        <time>2020-03-10T15:22:45Z</time>
      </trkpt>
      <trkpt lat="43.58169" lon="1.95662">
        <ele>244.54209179555</ele>
        <time>2020-03-10T15:22:51Z</time>
      </trkpt>
      <trkpt lat="43.5817" lon="1.95673">
        <ele>244.54723277699</ele>
        <time>2020-03-10T15:22:59Z</time>
      </trkpt>
      <trkpt lat="43.5817" lon="1.95684">
        <ele>245.12138942232</ele>
        <time>2020-03-10T15:23:07Z</time>
      </trkpt>
      <trkpt lat="43.58172" lon="1.95695">
        <ele>246.53594708628</ele>
        <time>2020-03-10T15:23:13Z</time>
      </trkpt>
      <trkpt lat="43.58171" lon="1.95706">
        <ele>246.51008001335</ele>
        <time>2020-03-10T15:23:20Z</time>
      </trkpt>
      <trkpt lat="43.58172" lon="1.95718">
        <ele>246.81354337925</ele>
        <time>2020-03-10T15:23:27Z</time>
      </trkpt>
      <trkpt lat="43.5817" lon="1.95729">
        <ele>245.15766941705</ele>
        <time>2020-03-10T15:23:34Z</time>
      </trkpt>
      <trkpt lat="43.58171" lon="1.9574">
        <ele>245.13572172552</ele>
        <time>2020-03-10T15:23:41Z</time>
      </trkpt>
      <trkpt lat="43.58171" lon="1.95751">
        <ele>245.57075479044</ele>
        <time>2020-03-10T15:23:47Z</time>
      </trkpt>
      <trkpt lat="43.58168" lon="1.95761">
        <ele>245.77375339428</ele>
        <time>2020-03-10T15:23:53Z</time>
      </trkpt>
      <trkpt lat="43.58169" lon="1.95773">
        <ele>247.10944897257</ele>
        <time>2020-03-10T15:24:00Z</time>
      </trkpt>
      <trkpt lat="43.58169" lon="1.95784">
        <ele>246.80125175617</ele>
        <time>2020-03-10T15:24:07Z</time>
      </trkpt>
      <trkpt lat="43.58169" lon="1.95796">
        <ele>247.95713397734</ele>
        <time>2020-03-10T15:24:14Z</time>
      </trkpt>
      <trkpt lat="43.58167" lon="1.95807">
        <ele>248.3492081608</ele>
        <time>2020-03-10T15:24:20Z</time>
      </trkpt>
      <trkpt lat="43.58166" lon="1.95818">
        <ele>246.4269072055</ele>
        <time>2020-03-10T15:24:27Z</time>
      </trkpt>
      <trkpt lat="43.58165" lon="1.95829">
        <ele>246.27084719869</ele>
        <time>2020-03-10T15:24:33Z</time>
      </trkpt>
      <trkpt lat="43.58163" lon="1.9584">
        <ele>246.92033305795</ele>
        <time>2020-03-10T15:24:42Z</time>
      </trkpt>
      <trkpt lat="43.5816" lon="1.95851">
        <ele>246.26860136579</ele>
        <time>2020-03-10T15:24:49Z</time>
      </trkpt>
      <trkpt lat="43.58158" lon="1.95863">
        <ele>246.88856610104</ele>
        <time>2020-03-10T15:24:56Z</time>
      </trkpt>
      <trkpt lat="43.58158" lon="1.95874">
        <ele>247.7459416543</ele>
        <time>2020-03-10T15:25:03Z</time>
      </trkpt>
      <trkpt lat="43.58159" lon="1.95885">
        <ele>249.23587697501</ele>
        <time>2020-03-10T15:25:10Z</time>
      </trkpt>
      <trkpt lat="43.58161" lon="1.95897">
        <ele>251.31385162246</ele>
        <time>2020-03-10T15:25:18Z</time>
      </trkpt>
      <trkpt lat="43.58161" lon="1.9591">
        <ele>253.2160448048</ele>
        <time>2020-03-10T15:25:26Z</time>
      </trkpt>
      <trkpt lat="43.58161" lon="1.95922">
        <ele>254.01143428509</ele>
        <time>2020-03-10T15:25:35Z</time>
      </trkpt>
      <trkpt lat="43.58159" lon="1.95933">
        <ele>253.50396890449</ele>
        <time>2020-03-10T15:25:43Z</time>
      </trkpt>
      <trkpt lat="43.58158" lon="1.95944">
        <ele>252.72206123052</ele>
        <time>2020-03-10T15:25:51Z</time>
      </trkpt>
      <trkpt lat="43.58157" lon="1.95954">
        <ele>252.13359572218</ele>
        <time>2020-03-10T15:25:57Z</time>
      </trkpt>
      <trkpt lat="43.58156" lon="1.95967">
        <ele>251.00147151976</ele>
        <time>2020-03-10T15:26:02Z</time>
      </trkpt>
      <trkpt lat="43.58153" lon="1.95978">
        <ele>249.49581533767</ele>
        <time>2020-03-10T15:26:09Z</time>
      </trkpt>
      <trkpt lat="43.5815" lon="1.95987">
        <ele>248.8174147124</ele>
        <time>2020-03-10T15:26:15Z</time>
      </trkpt>
      <trkpt lat="43.58147" lon="1.95998">
        <ele>248.62544527376</ele>
        <time>2020-03-10T15:26:23Z</time>
      </trkpt>
      <trkpt lat="43.58142" lon="1.96009">
        <ele>248.89504566427</ele>
        <time>2020-03-10T15:26:31Z</time>
      </trkpt>
      <trkpt lat="43.58138" lon="1.9602">
        <ele>250.35811822252</ele>
        <time>2020-03-10T15:26:40Z</time>
      </trkpt>
      <trkpt lat="43.58134" lon="1.9603">
        <ele>251.51857134647</ele>
        <time>2020-03-10T15:26:48Z</time>
      </trkpt>
      <trkpt lat="43.5813" lon="1.9604">
        <ele>250.4309620654</ele>
        <time>2020-03-10T15:26:54Z</time>
      </trkpt>
      <trkpt lat="43.58126" lon="1.96051">
        <ele>249.95851835789</ele>
        <time>2020-03-10T15:27:02Z</time>
      </trkpt>
      <trkpt lat="43.58122" lon="1.96062">
        <ele>249.66282583961</ele>
        <time>2020-03-10T15:27:10Z</time>
      </trkpt>
      <trkpt lat="43.58116" lon="1.9607">
        <ele>252.80088038875</ele>
        <time>2020-03-10T15:27:16Z</time>
      </trkpt>
      <trkpt lat="43.58108" lon="1.96076">
        <ele>254.97115129707</ele>
        <time>2020-03-10T15:27:20Z</time>
      </trkpt>
      <trkpt lat="43.58101" lon="1.9608">
        <ele>254.91800501044</ele>
        <time>2020-03-10T15:27:27Z</time>
      </trkpt>
      <trkpt lat="43.58094" lon="1.96087">
        <ele>256.18211690644</ele>
        <time>2020-03-10T15:27:36Z</time>
      </trkpt>
      <trkpt lat="43.58087" lon="1.96093">
        <ele>257.29146772703</ele>
        <time>2020-03-10T15:27:43Z</time>
      </trkpt>
      <trkpt lat="43.58078" lon="1.96097">
        <ele>256.37908774868</ele>
        <time>2020-03-10T15:27:52Z</time>
      </trkpt>
      <trkpt lat="43.58071" lon="1.96101">
        <ele>255.54996612008</ele>
        <time>2020-03-10T15:27:59Z</time>
      </trkpt>
      <trkpt lat="43.58063" lon="1.96105">
        <ele>254.94146712562</ele>
        <time>2020-03-10T15:28:07Z</time>
      </trkpt>
      <trkpt lat="43.58056" lon="1.96112">
        <ele>253.91702528787</ele>
        <time>2020-03-10T15:28:15Z</time>
      </trkpt>
      <trkpt lat="43.58049" lon="1.96119">
        <ele>254.3597309213</ele>
        <time>2020-03-10T15:28:27Z</time>
      </trkpt>
      <trkpt lat="43.58043" lon="1.96126">
        <ele>256.58312111316</ele>
        <time>2020-03-10T15:28:33Z</time>
      </trkpt>
      <trkpt lat="43.58035" lon="1.96132">
        <ele>259.33939398232</ele>
        <time>2020-03-10T15:28:38Z</time>
      </trkpt>
      <trkpt lat="43.58027" lon="1.96139">
        <ele>261.57588221957</ele>
        <time>2020-03-10T15:28:44Z</time>
      </trkpt>
      <trkpt lat="43.58021" lon="1.96145">
        <ele>262.63305931971</ele>
        <time>2020-03-10T15:28:49Z</time>
      </trkpt>
      <trkpt lat="43.58014" lon="1.96153">
        <ele>261.52351646081</ele>
        <time>2020-03-10T15:28:58Z</time>
      </trkpt>
      <trkpt lat="43.58008" lon="1.96161">
        <ele>261.42595515225</ele>
        <time>2020-03-10T15:29:06Z</time>
      </trkpt>
      <trkpt lat="43.58002" lon="1.96169">
        <ele>261.62485280726</ele>
        <time>2020-03-10T15:29:13Z</time>
      </trkpt>
      <trkpt lat="43.57997" lon="1.96177">
        <ele>263.08817794427</ele>
        <time>2020-03-10T15:29:20Z</time>
      </trkpt>
      <trkpt lat="43.57991" lon="1.96184">
        <ele>265.06163554334</ele>
        <time>2020-03-10T15:29:26Z</time>
      </trkpt>
      <trkpt lat="43.57984" lon="1.96192">
        <ele>264.53858472376</ele>
        <time>2020-03-10T15:29:33Z</time>
      </trkpt>
      <trkpt lat="43.57977" lon="1.96198">
        <ele>263.62804597124</ele>
        <time>2020-03-10T15:29:41Z</time>
      </trkpt>
      <trkpt lat="43.5797" lon="1.96202">
        <ele>261.81427152186</ele>
        <time>2020-03-10T15:29:47Z</time>
      </trkpt>
      <trkpt lat="43.57976" lon="1.96211">
        <ele>259.31083471129</ele>
        <time>2020-03-10T15:30:07Z</time>
      </trkpt>
      <trkpt lat="43.57982" lon="1.96219">
        <ele>260.75469421509</ele>
        <time>2020-03-10T15:30:19Z</time>
      </trkpt>
      <trkpt lat="43.5799" lon="1.96224">
        <ele>262.71116120268</ele>
        <time>2020-03-10T15:30:30Z</time>
      </trkpt>
      <trkpt lat="43.57995" lon="1.96234">
        <ele>262.44942575874</ele>
        <time>2020-03-10T15:30:45Z</time>
      </trkpt>
      <trkpt lat="43.58001" lon="1.96242">
        <ele>262.51929211945</ele>
        <time>2020-03-10T15:30:51Z</time>
      </trkpt>
      <trkpt lat="43.58009" lon="1.96248">
        <ele>262.94495289502</ele>
        <time>2020-03-10T15:30:59Z</time>
      </trkpt>
      <trkpt lat="43.58013" lon="1.96258">
        <ele>263.63238445776</ele>
        <time>2020-03-10T15:31:10Z</time>
      </trkpt>
      <trkpt lat="43.58011" lon="1.9627">
        <ele>264.74919885446</ele>
        <time>2020-03-10T15:31:18Z</time>
      </trkpt>
      <trkpt lat="43.58009" lon="1.96282">
        <ele>265.11550121738</ele>
        <time>2020-03-10T15:31:29Z</time>
      </trkpt>
      <trkpt lat="43.58006" lon="1.96293">
        <ele>266.35832064983</ele>
        <time>2020-03-10T15:31:39Z</time>
      </trkpt>
      <trkpt lat="43.58006" lon="1.96305">
        <ele>268.9533188964</ele>
        <time>2020-03-10T15:31:47Z</time>
      </trkpt>
      <trkpt lat="43.58009" lon="1.96316">
        <ele>271.72446430566</ele>
        <time>2020-03-10T15:34:43Z</time>
      </trkpt>
      <trkpt lat="43.58006" lon="1.96327">
        <ele>271.01313071938</ele>
        <time>2020-03-10T15:34:50Z</time>
      </trkpt>
      <trkpt lat="43.58004" lon="1.96337">
        <ele>271.18088335083</ele>
        <time>2020-03-10T15:34:57Z</time>
      </trkpt>
      <trkpt lat="43.58003" lon="1.96349">
        <ele>271.79114521903</ele>
        <time>2020-03-10T15:35:05Z</time>
      </trkpt>
      <trkpt lat="43.58003" lon="1.9636">
        <ele>273.61736766653</ele>
        <time>2020-03-10T15:35:12Z</time>
      </trkpt>
      <trkpt lat="43.58002" lon="1.96371">
        <ele>274.78228658965</ele>
        <time>2020-03-10T15:35:19Z</time>
      </trkpt>
      <trkpt lat="43.58002" lon="1.96383">
        <ele>276.07315362727</ele>
        <time>2020-03-10T15:35:27Z</time>
      </trkpt>
      <trkpt lat="43.58003" lon="1.96394">
        <ele>276.97581019522</ele>
        <time>2020-03-10T15:35:36Z</time>
      </trkpt>
      <trkpt lat="43.58003" lon="1.96405">
        <ele>277.12294165123</ele>
        <time>2020-03-10T15:35:44Z</time>
      </trkpt>
      <trkpt lat="43.58002" lon="1.96416">
        <ele>278.00259354558</ele>
        <time>2020-03-10T15:35:52Z</time>
      </trkpt>
      <trkpt lat="43.57999" lon="1.96427">
        <ele>278.37479596505</ele>
        <time>2020-03-10T15:35:59Z</time>
      </trkpt>
      <trkpt lat="43.57995" lon="1.96438">
        <ele>277.46425550703</ele>
        <time>2020-03-10T15:36:08Z</time>
      </trkpt>
      <trkpt lat="43.57993" lon="1.96449">
        <ele>278.4920687038</ele>
        <time>2020-03-10T15:36:17Z</time>
      </trkpt>
      <trkpt lat="43.57992" lon="1.96461">
        <ele>279.57273711971</ele>
        <time>2020-03-10T15:36:25Z</time>
      </trkpt>
      <trkpt lat="43.5799" lon="1.96472">
        <ele>280.62205190707</ele>
        <time>2020-03-10T15:36:34Z</time>
      </trkpt>
      <trkpt lat="43.57984" lon="1.96482">
        <ele>281.23058256214</ele>
        <time>2020-03-10T15:36:41Z</time>
      </trkpt>
      <trkpt lat="43.5798" lon="1.96491">
        <ele>281.94242686154</ele>
        <time>2020-03-10T15:36:48Z</time>
      </trkpt>
      <trkpt lat="43.57976" lon="1.96501">
        <ele>282.31090388234</ele>
        <time>2020-03-10T15:36:55Z</time>
      </trkpt>
      <trkpt lat="43.57972" lon="1.96511">
        <ele>282.12752784862</ele>
        <time>2020-03-10T15:37:02Z</time>
      </trkpt>
      <trkpt lat="43.57967" lon="1.9652">
        <ele>282.31238110083</ele>
        <time>2020-03-10T15:37:09Z</time>
      </trkpt>
      <trkpt lat="43.57961" lon="1.96529">
        <ele>283.60058038746</ele>
        <time>2020-03-10T15:37:21Z</time>
      </trkpt>
      <trkpt lat="43.57955" lon="1.96538">
        <ele>284.53858421116</ele>
        <time>2020-03-10T15:37:33Z</time>
      </trkpt>
      <trkpt lat="43.5795" lon="1.96545">
        <ele>285.99800054819</ele>
        <time>2020-03-10T15:37:47Z</time>
      </trkpt>
      <trkpt lat="43.57944" lon="1.96551">
        <ele>286.5794684414</ele>
        <time>2020-03-10T15:37:53Z</time>
      </trkpt>
      <trkpt lat="43.57936" lon="1.96557">
        <ele>287.47478921322</ele>
        <time>2020-03-10T15:37:59Z</time>
      </trkpt>
      <trkpt lat="43.5793" lon="1.96566">
        <ele>289.41053929015</ele>
        <time>2020-03-10T15:38:06Z</time>
      </trkpt>
      <trkpt lat="43.57923" lon="1.96574">
        <ele>290.66587082688</ele>
        <time>2020-03-10T15:38:17Z</time>
      </trkpt>
      <trkpt lat="43.57915" lon="1.96577">
        <ele>289.4897376175</ele>
        <time>2020-03-10T15:38:29Z</time>
      </trkpt>
      <trkpt lat="43.57908" lon="1.96583">
        <ele>290.93793965722</ele>
        <time>2020-03-10T15:38:42Z</time>
      </trkpt>
      <trkpt lat="43.57905" lon="1.96595">
        <ele>291.73596614109</ele>
        <time>2020-03-10T15:39:02Z</time>
      </trkpt>
      <trkpt lat="43.579" lon="1.96604">
        <ele>293.99983404386</ele>
        <time>2020-03-10T15:39:11Z</time>
      </trkpt>
      <trkpt lat="43.57897" lon="1.96615">
        <ele>295.12992925733</ele>
        <time>2020-03-10T15:39:20Z</time>
      </trkpt>
      <trkpt lat="43.57895" lon="1.96626">
        <ele>296.97806865725</ele>
        <time>2020-03-10T15:39:32Z</time>
      </trkpt>
      <trkpt lat="43.57892" lon="1.96637">
        <ele>298.48091623106</ele>
        <time>2020-03-10T15:39:40Z</time>
      </trkpt>
      <trkpt lat="43.5789" lon="1.96647">
        <ele>299.57203924575</ele>
        <time>2020-03-10T15:39:48Z</time>
      </trkpt>
      <trkpt lat="43.57886" lon="1.96658">
        <ele>301.36482244857</ele>
        <time>2020-03-10T15:39:57Z</time>
      </trkpt>
      <trkpt lat="43.57883" lon="1.96668">
        <ele>303.55461816888</ele>
        <time>2020-03-10T15:40:06Z</time>
      </trkpt>
      <trkpt lat="43.5788" lon="1.96679">
        <ele>304.68930254222</ele>
        <time>2020-03-10T15:40:14Z</time>
      </trkpt>
      <trkpt lat="43.57878" lon="1.9669">
        <ele>305.22987971542</ele>
        <time>2020-03-10T15:40:22Z</time>
      </trkpt>
      <trkpt lat="43.57878" lon="1.96702">
        <ele>305.60656861461</ele>
        <time>2020-03-10T15:40:31Z</time>
      </trkpt>
      <trkpt lat="43.57876" lon="1.96713">
        <ele>305.76306404392</ele>
        <time>2020-03-10T15:40:39Z</time>
      </trkpt>
      <trkpt lat="43.57875" lon="1.96724">
        <ele>306.37735281119</ele>
        <time>2020-03-10T15:40:45Z</time>
      </trkpt>
      <trkpt lat="43.57874" lon="1.96736">
        <ele>306.23710436653</ele>
        <time>2020-03-10T15:40:54Z</time>
      </trkpt>
      <trkpt lat="43.57874" lon="1.96748">
        <ele>306.57833457203</ele>
        <time>2020-03-10T15:41:07Z</time>
      </trkpt>
      <trkpt lat="43.57871" lon="1.9676">
        <ele>306.64749459897</ele>
        <time>2020-03-10T15:41:17Z</time>
      </trkpt>
      <trkpt lat="43.5787" lon="1.96771">
        <ele>307.91838357769</ele>
        <time>2020-03-10T15:41:26Z</time>
      </trkpt>
      <trkpt lat="43.57867" lon="1.96782">
        <ele>307.97490875813</ele>
        <time>2020-03-10T15:41:36Z</time>
      </trkpt>
      <trkpt lat="43.57862" lon="1.96792">
        <ele>308.78508365298</ele>
        <time>2020-03-10T15:41:50Z</time>
      </trkpt>
      <trkpt lat="43.57856" lon="1.968">
        <ele>308.33131758192</ele>
        <time>2020-03-10T15:42:00Z</time>
      </trkpt>
      <trkpt lat="43.57851" lon="1.9681">
        <ele>307.72178731694</ele>
        <time>2020-03-10T15:42:17Z</time>
      </trkpt>
      <trkpt lat="43.57849" lon="1.96821">
        <ele>307.71864716792</ele>
        <time>2020-03-10T15:42:24Z</time>
      </trkpt>
      <trkpt lat="43.57847" lon="1.96832">
        <ele>307.48955473713</ele>
        <time>2020-03-10T15:42:31Z</time>
      </trkpt>
      <trkpt lat="43.57847" lon="1.96844">
        <ele>308.45476544392</ele>
        <time>2020-03-10T15:42:50Z</time>
      </trkpt>
      <trkpt lat="43.57849" lon="1.96855">
        <ele>308.5422753614</ele>
        <time>2020-03-10T15:42:57Z</time>
      </trkpt>
      <trkpt lat="43.57849" lon="1.96867">
        <ele>308.71075488934</ele>
        <time>2020-03-10T15:43:04Z</time>
      </trkpt>
      <trkpt lat="43.5785" lon="1.96878">
        <ele>310.19372791408</ele>
        <time>2020-03-10T15:43:10Z</time>
      </trkpt>
      <trkpt lat="43.57849" lon="1.9689">
        <ele>312.01021002847</ele>
        <time>2020-03-10T15:43:18Z</time>
      </trkpt>
      <trkpt lat="43.57846" lon="1.969">
        <ele>311.61447763117</ele>
        <time>2020-03-10T15:43:24Z</time>
      </trkpt>
      <trkpt lat="43.57842" lon="1.9691">
        <ele>311.18007074303</ele>
        <time>2020-03-10T15:43:36Z</time>
      </trkpt>
      <trkpt lat="43.57838" lon="1.96921">
        <ele>311.31802679928</ele>
        <time>2020-03-10T15:43:50Z</time>
      </trkpt>
      <trkpt lat="43.57835" lon="1.96932">
        <ele>312.51869613556</ele>
        <time>2020-03-10T15:44:01Z</time>
      </trkpt>
      <trkpt lat="43.57835" lon="1.96943">
        <ele>313.43372936958</ele>
        <time>2020-03-10T15:44:07Z</time>
      </trkpt>
      <trkpt lat="43.57832" lon="1.96953">
        <ele>315.37616232931</ele>
        <time>2020-03-10T15:44:13Z</time>
      </trkpt>
      <trkpt lat="43.57829" lon="1.96965">
        <ele>317.87091440861</ele>
        <time>2020-03-10T15:44:22Z</time>
      </trkpt>
      <trkpt lat="43.5783" lon="1.96976">
        <ele>318.60990691431</ele>
        <time>2020-03-10T15:44:32Z</time>
      </trkpt>
      <trkpt lat="43.57828" lon="1.96988">
        <ele>318.95970280647</ele>
        <time>2020-03-10T15:44:40Z</time>
      </trkpt>
      <trkpt lat="43.57827" lon="1.97">
        <ele>319.40644734713</ele>
        <time>2020-03-10T15:44:47Z</time>
      </trkpt>
      <trkpt lat="43.57826" lon="1.97012">
        <ele>319.98227435459</ele>
        <time>2020-03-10T15:44:58Z</time>
      </trkpt>
      <trkpt lat="43.57821" lon="1.97022">
        <ele>319.03473041649</ele>
        <time>2020-03-10T15:45:06Z</time>
      </trkpt>
      <trkpt lat="43.57819" lon="1.97033">
        <ele>318.35184660994</ele>
        <time>2020-03-10T15:45:15Z</time>
      </trkpt>
      <trkpt lat="43.57819" lon="1.97044">
        <ele>318.23384568778</ele>
        <time>2020-03-10T15:45:24Z</time>
      </trkpt>
      <trkpt lat="43.57819" lon="1.97056">
        <ele>317.75773092339</ele>
        <time>2020-03-10T15:45:33Z</time>
      </trkpt>
      <trkpt lat="43.57819" lon="1.97067">
        <ele>318.56985222202</ele>
        <time>2020-03-10T15:45:42Z</time>
      </trkpt>
      <trkpt lat="43.57819" lon="1.9708">
        <ele>321.86834878362</ele>
        <time>2020-03-10T15:46:00Z</time>
      </trkpt>
      <trkpt lat="43.57816" lon="1.9709">
        <ele>321.20133220259</ele>
        <time>2020-03-10T15:46:09Z</time>
      </trkpt>
      <trkpt lat="43.57813" lon="1.97101">
        <ele>322.52735288523</ele>
        <time>2020-03-10T15:46:17Z</time>
      </trkpt>
      <trkpt lat="43.57812" lon="1.97112">
        <ele>322.89061626651</ele>
        <time>2020-03-10T15:46:25Z</time>
      </trkpt>
      <trkpt lat="43.57811" lon="1.97123">
        <ele>324.20030748113</ele>
        <time>2020-03-10T15:46:31Z</time>
      </trkpt>
      <trkpt lat="43.5781" lon="1.97135">
        <ele>326.26871244689</ele>
        <time>2020-03-10T15:46:47Z</time>
      </trkpt>
      <trkpt lat="43.57807" lon="1.97146">
        <ele>326.4767390157</ele>
        <time>2020-03-10T15:47:03Z</time>
      </trkpt>
      <trkpt lat="43.57809" lon="1.97158">
        <ele>325.96504213915</ele>
        <time>2020-03-10T15:48:13Z</time>
      </trkpt>
      <trkpt lat="43.57817" lon="1.97163">
        <ele>324.47208895138</ele>
        <time>2020-03-10T15:48:22Z</time>
      </trkpt>
      <trkpt lat="43.57824" lon="1.97168">
        <ele>324.61200916823</ele>
        <time>2020-03-10T15:48:30Z</time>
      </trkpt>
      <trkpt lat="43.57829" lon="1.97177">
        <ele>325.65018367847</ele>
        <time>2020-03-10T15:48:39Z</time>
      </trkpt>
      <trkpt lat="43.57834" lon="1.97188">
        <ele>327.6007660089</ele>
        <time>2020-03-10T15:48:48Z</time>
      </trkpt>
      <trkpt lat="43.57836" lon="1.97199">
        <ele>328.45063133214</ele>
        <time>2020-03-10T15:48:55Z</time>
      </trkpt>
      <trkpt lat="43.57838" lon="1.97211">
        <ele>329.07711042608</ele>
        <time>2020-03-10T15:49:03Z</time>
      </trkpt>
      <trkpt lat="43.57843" lon="1.97221">
        <ele>329.36608045797</ele>
        <time>2020-03-10T15:49:12Z</time>
      </trkpt>
      <trkpt lat="43.5785" lon="1.97229">
        <ele>330.23357017579</ele>
        <time>2020-03-10T15:49:23Z</time>
      </trkpt>
      <trkpt lat="43.57858" lon="1.97232">
        <ele>331.80743321176</ele>
        <time>2020-03-10T15:49:37Z</time>
      </trkpt>
      <trkpt lat="43.57866" lon="1.97237">
        <ele>333.43375222492</ele>
        <time>2020-03-10T15:49:45Z</time>
      </trkpt>
      <trkpt lat="43.57874" lon="1.97242">
        <ele>334.01381330418</ele>
        <time>2020-03-10T15:49:55Z</time>
      </trkpt>
      <trkpt lat="43.57882" lon="1.97239">
        <ele>335.44349574308</ele>
        <time>2020-03-10T15:50:11Z</time>
      </trkpt>
      <trkpt lat="43.5789" lon="1.97242">
        <ele>338.63663803515</ele>
        <time>2020-03-10T15:50:20Z</time>
      </trkpt>
      <trkpt lat="43.57898" lon="1.97244">
        <ele>339.02782577574</ele>
        <time>2020-03-10T15:50:27Z</time>
      </trkpt>
      <trkpt lat="43.57907" lon="1.97246">
        <ele>339.70177241062</ele>
        <time>2020-03-10T15:50:35Z</time>
      </trkpt>
      <trkpt lat="43.57916" lon="1.97247">
        <ele>338.49611701015</ele>
        <time>2020-03-10T15:50:43Z</time>
      </trkpt>
      <trkpt lat="43.57924" lon="1.97248">
        <ele>337.58484398658</ele>
        <time>2020-03-10T15:50:52Z</time>
      </trkpt>
      <trkpt lat="43.57933" lon="1.97251">
        <ele>337.95070811449</ele>
        <time>2020-03-10T15:51:05Z</time>
      </trkpt>
      <trkpt lat="43.57941" lon="1.97251">
        <ele>337.47698266518</ele>
        <time>2020-03-10T15:51:13Z</time>
      </trkpt>
      <trkpt lat="43.5795" lon="1.97252">
        <ele>336.55085309224</ele>
        <time>2020-03-10T15:51:20Z</time>
      </trkpt>
      <trkpt lat="43.57958" lon="1.97256">
        <ele>337.71071574005</ele>
        <time>2020-03-10T15:51:28Z</time>
      </trkpt>
      <trkpt lat="43.57966" lon="1.97257">
        <ele>337.71474631997</ele>
        <time>2020-03-10T15:51:34Z</time>
      </trkpt>
      <trkpt lat="43.57974" lon="1.9726">
        <ele>337.60720639369</ele>
        <time>2020-03-10T15:51:39Z</time>
      </trkpt>
      <trkpt lat="43.57982" lon="1.9726">
        <ele>338.40963219821</ele>
        <time>2020-03-10T15:51:47Z</time>
      </trkpt>
      <trkpt lat="43.5799" lon="1.97262">
        <ele>338.55340971157</ele>
        <time>2020-03-10T15:51:54Z</time>
      </trkpt>
      <trkpt lat="43.57998" lon="1.97262">
        <ele>339.77198779629</ele>
        <time>2020-03-10T15:52:01Z</time>
      </trkpt>
      <trkpt lat="43.58007" lon="1.97263">
        <ele>339.6429595023</ele>
        <time>2020-03-10T15:52:07Z</time>
      </trkpt>
      <trkpt lat="43.58015" lon="1.97265">
        <ele>338.9832126465</ele>
        <time>2020-03-10T15:52:16Z</time>
      </trkpt>
      <trkpt lat="43.58023" lon="1.97266">
        <ele>337.82071810706</ele>
        <time>2020-03-10T15:52:23Z</time>
      </trkpt>
      <trkpt lat="43.58031" lon="1.97266">
        <ele>339.92067065096</ele>
        <time>2020-03-10T15:52:32Z</time>
      </trkpt>
      <trkpt lat="43.5804" lon="1.97267">
        <ele>341.13602984894</ele>
        <time>2020-03-10T15:52:39Z</time>
      </trkpt>
      <trkpt lat="43.58048" lon="1.97265">
        <ele>340.75938540975</ele>
        <time>2020-03-10T15:52:47Z</time>
      </trkpt>
      <trkpt lat="43.58056" lon="1.97264">
        <ele>341.2944948345</ele>
        <time>2020-03-10T15:52:55Z</time>
      </trkpt>
      <trkpt lat="43.58064" lon="1.97264">
        <ele>342.8506261591</ele>
        <time>2020-03-10T15:53:02Z</time>
      </trkpt>
      <trkpt lat="43.58073" lon="1.97265">
        <ele>343.89800997018</ele>
        <time>2020-03-10T15:53:10Z</time>
      </trkpt>
      <trkpt lat="43.58082" lon="1.97269">
        <ele>343.13442359349</ele>
        <time>2020-03-10T15:53:18Z</time>
      </trkpt>
      <trkpt lat="43.58087" lon="1.97277">
        <ele>344.60714495157</ele>
        <time>2020-03-10T15:53:26Z</time>
      </trkpt>
      <trkpt lat="43.58092" lon="1.97286">
        <ele>345.87210331983</ele>
        <time>2020-03-10T15:53:34Z</time>
      </trkpt>
      <trkpt lat="43.58098" lon="1.97293">
        <ele>346.18143621455</ele>
        <time>2020-03-10T15:53:38Z</time>
      </trkpt>
      <trkpt lat="43.58104" lon="1.97302">
        <ele>346.69570862383</ele>
        <time>2020-03-10T15:53:43Z</time>
      </trkpt>
      <trkpt lat="43.58109" lon="1.97312">
        <ele>348.52280000886</ele>
        <time>2020-03-10T15:53:50Z</time>
      </trkpt>
      <trkpt lat="43.58111" lon="1.97323">
        <ele>349.19401352029</ele>
        <time>2020-03-10T15:54:01Z</time>
      </trkpt>
      <trkpt lat="43.58111" lon="1.97335">
        <ele>349.45217211036</ele>
        <time>2020-03-10T15:54:10Z</time>
      </trkpt>
      <trkpt lat="43.5811" lon="1.97347">
        <ele>349.15782106512</ele>
        <time>2020-03-10T15:54:19Z</time>
      </trkpt>
      <trkpt lat="43.58107" lon="1.97358">
        <ele>348.41973138615</ele>
        <time>2020-03-10T15:54:28Z</time>
      </trkpt>
      <trkpt lat="43.58104" lon="1.97368">
        <ele>347.64427148872</ele>
        <time>2020-03-10T15:54:34Z</time>
      </trkpt>
      <trkpt lat="43.58102" lon="1.97379">
        <ele>346.25042500546</ele>
        <time>2020-03-10T15:54:43Z</time>
      </trkpt>
      <trkpt lat="43.581" lon="1.9739">
        <ele>345.5333329214</ele>
        <time>2020-03-10T15:54:49Z</time>
      </trkpt>
      <trkpt lat="43.58098" lon="1.97401">
        <ele>344.69467769338</ele>
        <time>2020-03-10T15:54:57Z</time>
      </trkpt>
      <trkpt lat="43.58098" lon="1.97413">
        <ele>344.24356659624</ele>
        <time>2020-03-10T15:55:05Z</time>
      </trkpt>
      <trkpt lat="43.58098" lon="1.97425">
        <ele>342.76520475074</ele>
        <time>2020-03-10T15:55:14Z</time>
      </trkpt>
      <trkpt lat="43.58097" lon="1.97437">
        <ele>341.64277910025</ele>
        <time>2020-03-10T15:55:23Z</time>
      </trkpt>
      <trkpt lat="43.58095" lon="1.97448">
        <ele>341.2965952147</ele>
        <time>2020-03-10T15:55:30Z</time>
      </trkpt>
      <trkpt lat="43.58094" lon="1.97459">
        <ele>341.40127598172</ele>
        <time>2020-03-10T15:55:38Z</time>
      </trkpt>
      <trkpt lat="43.58094" lon="1.97471">
        <ele>340.60807044749</ele>
        <time>2020-03-10T15:55:47Z</time>
      </trkpt>
      <trkpt lat="43.58094" lon="1.97482">
        <ele>339.76951501429</ele>
        <time>2020-03-10T15:55:55Z</time>
      </trkpt>
      <trkpt lat="43.58093" lon="1.97494">
        <ele>338.11209517902</ele>
        <time>2020-03-10T15:56:04Z</time>
      </trkpt>
      <trkpt lat="43.58092" lon="1.97504">
        <ele>338.61114656824</ele>
        <time>2020-03-10T15:56:09Z</time>
      </trkpt>
      <trkpt lat="43.58091" lon="1.97515">
        <ele>338.79209475667</ele>
        <time>2020-03-10T15:56:16Z</time>
      </trkpt>
      <trkpt lat="43.58087" lon="1.97526">
        <ele>338.72926360756</ele>
        <time>2020-03-10T15:56:24Z</time>
      </trkpt>
      <trkpt lat="43.58084" lon="1.97537">
        <ele>338.59865763434</ele>
        <time>2020-03-10T15:56:32Z</time>
      </trkpt>
      <trkpt lat="43.58081" lon="1.97547">
        <ele>337.50081951101</ele>
        <time>2020-03-10T15:56:40Z</time>
      </trkpt>
      <trkpt lat="43.58077" lon="1.97558">
        <ele>337.94302424392</ele>
        <time>2020-03-10T15:56:50Z</time>
      </trkpt>
      <trkpt lat="43.58076" lon="1.97569">
        <ele>337.53672563637</ele>
        <time>2020-03-10T15:56:57Z</time>
      </trkpt>
      <trkpt lat="43.58074" lon="1.9758">
        <ele>336.61138101243</ele>
        <time>2020-03-10T15:57:04Z</time>
      </trkpt>
      <trkpt lat="43.58073" lon="1.97592">
        <ele>335.72507607885</ele>
        <time>2020-03-10T15:57:14Z</time>
      </trkpt>
      <trkpt lat="43.58071" lon="1.97604">
        <ele>335.89099857301</ele>
        <time>2020-03-10T15:57:21Z</time>
      </trkpt>
      <trkpt lat="43.58068" lon="1.97615">
        <ele>336.0511869565</ele>
        <time>2020-03-10T15:57:30Z</time>
      </trkpt>
      <trkpt lat="43.58065" lon="1.97626">
        <ele>336.66248491205</ele>
        <time>2020-03-10T15:57:39Z</time>
      </trkpt>
      <trkpt lat="43.58061" lon="1.97635">
        <ele>335.95583105152</ele>
        <time>2020-03-10T15:57:47Z</time>
      </trkpt>
      <trkpt lat="43.58058" lon="1.97646">
        <ele>336.03364955223</ele>
        <time>2020-03-10T15:57:54Z</time>
      </trkpt>
      <trkpt lat="43.58055" lon="1.97658">
        <ele>335.20380244515</ele>
        <time>2020-03-10T15:58:00Z</time>
      </trkpt>
      <trkpt lat="43.58054" lon="1.97669">
        <ele>335.41141551092</ele>
        <time>2020-03-10T15:58:08Z</time>
      </trkpt>
      <trkpt lat="43.58051" lon="1.97679">
        <ele>336.61934208856</ele>
        <time>2020-03-10T15:58:15Z</time>
      </trkpt>
      <trkpt lat="43.58047" lon="1.97689">
        <ele>337.06875311603</ele>
        <time>2020-03-10T15:58:22Z</time>
      </trkpt>
      <trkpt lat="43.58045" lon="1.97701">
        <ele>336.59068578234</ele>
        <time>2020-03-10T15:58:30Z</time>
      </trkpt>
      <trkpt lat="43.5804" lon="1.9771">
        <ele>337.10553906398</ele>
        <time>2020-03-10T15:58:37Z</time>
      </trkpt>
      <trkpt lat="43.58036" lon="1.97719">
        <ele>337.32590909825</ele>
        <time>2020-03-10T15:58:43Z</time>
      </trkpt>
      <trkpt lat="43.58032" lon="1.97729">
        <ele>337.32616456478</ele>
        <time>2020-03-10T15:58:51Z</time>
      </trkpt>
      <trkpt lat="43.58029" lon="1.97741">
        <ele>336.99431242954</ele>
        <time>2020-03-10T15:58:57Z</time>
      </trkpt>
      <trkpt lat="43.58025" lon="1.9775">
        <ele>337.38525665555</ele>
        <time>2020-03-10T15:59:03Z</time>
      </trkpt>
      <trkpt lat="43.58022" lon="1.97761">
        <ele>337.63172502889</ele>
        <time>2020-03-10T15:59:10Z</time>
      </trkpt>
      <trkpt lat="43.58019" lon="1.97771">
        <ele>338.3744069298</ele>
        <time>2020-03-10T15:59:15Z</time>
      </trkpt>
      <trkpt lat="43.58016" lon="1.97781">
        <ele>339.70691975322</ele>
        <time>2020-03-10T15:59:22Z</time>
      </trkpt>
      <trkpt lat="43.58013" lon="1.97793">
        <ele>340.38166002662</ele>
        <time>2020-03-10T15:59:30Z</time>
      </trkpt>
      <trkpt lat="43.5801" lon="1.97804">
        <ele>337.58271773905</ele>
        <time>2020-03-10T15:59:39Z</time>
      </trkpt>
      <trkpt lat="43.58006" lon="1.97815">
        <ele>336.1471486651</ele>
        <time>2020-03-10T15:59:46Z</time>
      </trkpt>
      <trkpt lat="43.58004" lon="1.97825">
        <ele>335.77341112638</ele>
        <time>2020-03-10T15:59:55Z</time>
      </trkpt>
      <trkpt lat="43.58001" lon="1.97836">
        <ele>334.07576857</ele>
        <time>2020-03-10T16:00:04Z</time>
      </trkpt>
      <trkpt lat="43.57997" lon="1.97847">
        <ele>333.96768344906</ele>
        <time>2020-03-10T16:00:11Z</time>
      </trkpt>
      <trkpt lat="43.57996" lon="1.97858">
        <ele>333.91151400669</ele>
        <time>2020-03-10T16:00:17Z</time>
      </trkpt>
      <trkpt lat="43.57992" lon="1.97869">
        <ele>335.04822537502</ele>
        <time>2020-03-10T16:00:24Z</time>
      </trkpt>
      <trkpt lat="43.5799" lon="1.97881">
        <ele>336.27636756024</ele>
        <time>2020-03-10T16:00:32Z</time>
      </trkpt>
      <trkpt lat="43.57988" lon="1.97891">
        <ele>337.4216061028</ele>
        <time>2020-03-10T16:00:38Z</time>
      </trkpt>
      <trkpt lat="43.57984" lon="1.97901">
        <ele>337.76109683435</ele>
        <time>2020-03-10T16:00:44Z</time>
      </trkpt>
      <trkpt lat="43.57982" lon="1.97912">
        <ele>337.63551041519</ele>
        <time>2020-03-10T16:00:50Z</time>
      </trkpt>
      <trkpt lat="43.57981" lon="1.97923">
        <ele>335.99448813795</ele>
        <time>2020-03-10T16:00:59Z</time>
      </trkpt>
      <trkpt lat="43.57978" lon="1.97935">
        <ele>335.2761263136</ele>
        <time>2020-03-10T16:01:06Z</time>
      </trkpt>
      <trkpt lat="43.57977" lon="1.97946">
        <ele>335.53983739324</ele>
        <time>2020-03-10T16:01:12Z</time>
      </trkpt>
      <trkpt lat="43.57973" lon="1.97955">
        <ele>335.04261742905</ele>
        <time>2020-03-10T16:01:18Z</time>
      </trkpt>
      <trkpt lat="43.5797" lon="1.97965">
        <ele>335.23234058909</ele>
        <time>2020-03-10T16:01:23Z</time>
      </trkpt>
      <trkpt lat="43.57968" lon="1.97976">
        <ele>333.72168220461</ele>
        <time>2020-03-10T16:01:30Z</time>
      </trkpt>
      <trkpt lat="43.57966" lon="1.97987">
        <ele>332.54344325151</ele>
        <time>2020-03-10T16:01:38Z</time>
      </trkpt>
      <trkpt lat="43.57963" lon="1.97998">
        <ele>331.2177730218</ele>
        <time>2020-03-10T16:01:47Z</time>
      </trkpt>
      <trkpt lat="43.57959" lon="1.98007">
        <ele>328.47282788118</ele>
        <time>2020-03-10T16:01:54Z</time>
      </trkpt>
      <trkpt lat="43.57954" lon="1.98017">
        <ele>328.98972586795</ele>
        <time>2020-03-10T16:02:01Z</time>
      </trkpt>
      <trkpt lat="43.5795" lon="1.98027">
        <ele>329.46681631397</ele>
        <time>2020-03-10T16:02:10Z</time>
      </trkpt>
      <trkpt lat="43.57945" lon="1.98036">
        <ele>328.68280849238</ele>
        <time>2020-03-10T16:02:17Z</time>
      </trkpt>
      <trkpt lat="43.57939" lon="1.98045">
        <ele>327.93870358294</ele>
        <time>2020-03-10T16:02:24Z</time>
      </trkpt>
      <trkpt lat="43.57933" lon="1.98053">
        <ele>327.19206718849</ele>
        <time>2020-03-10T16:02:31Z</time>
      </trkpt>
      <trkpt lat="43.57928" lon="1.98061">
        <ele>326.46356810411</ele>
        <time>2020-03-10T16:02:39Z</time>
      </trkpt>
      <trkpt lat="43.57922" lon="1.98069">
        <ele>326.96814962736</ele>
        <time>2020-03-10T16:02:45Z</time>
      </trkpt>
      <trkpt lat="43.57916" lon="1.98077">
        <ele>327.82872908352</ele>
        <time>2020-03-10T16:02:53Z</time>
      </trkpt>
      <trkpt lat="43.57911" lon="1.98086">
        <ele>327.51528293014</ele>
        <time>2020-03-10T16:03:02Z</time>
      </trkpt>
      <trkpt lat="43.57905" lon="1.98095">
        <ele>326.82030218455</ele>
        <time>2020-03-10T16:03:10Z</time>
      </trkpt>
      <trkpt lat="43.57899" lon="1.98103">
        <ele>325.11193279932</ele>
        <time>2020-03-10T16:03:19Z</time>
      </trkpt>
      <trkpt lat="43.57892" lon="1.98108">
        <ele>325.35646695986</ele>
        <time>2020-03-10T16:03:27Z</time>
      </trkpt>
      <trkpt lat="43.57885" lon="1.98113">
        <ele>325.58941671404</ele>
        <time>2020-03-10T16:03:34Z</time>
      </trkpt>
      <trkpt lat="43.57878" lon="1.98119">
        <ele>326.11947873244</ele>
        <time>2020-03-10T16:03:40Z</time>
      </trkpt>
      <trkpt lat="43.57871" lon="1.98126">
        <ele>325.64682220337</ele>
        <time>2020-03-10T16:03:46Z</time>
      </trkpt>
      <trkpt lat="43.57863" lon="1.9813">
        <ele>326.06058586172</ele>
        <time>2020-03-10T16:03:54Z</time>
      </trkpt>
      <trkpt lat="43.57855" lon="1.98135">
        <ele>326.85828965898</ele>
        <time>2020-03-10T16:04:00Z</time>
      </trkpt>
      <trkpt lat="43.57847" lon="1.98139">
        <ele>327.56592158274</ele>
        <time>2020-03-10T16:04:07Z</time>
      </trkpt>
      <trkpt lat="43.5784" lon="1.98145">
        <ele>327.54385553222</ele>
        <time>2020-03-10T16:04:13Z</time>
      </trkpt>
      <trkpt lat="43.57834" lon="1.98151">
        <ele>328.40632821158</ele>
        <time>2020-03-10T16:04:21Z</time>
      </trkpt>
      <trkpt lat="43.57826" lon="1.98155">
        <ele>330.0366926353</ele>
        <time>2020-03-10T16:04:28Z</time>
      </trkpt>
      <trkpt lat="43.57818" lon="1.98159">
        <ele>330.83537701935</ele>
        <time>2020-03-10T16:04:36Z</time>
      </trkpt>
      <trkpt lat="43.57812" lon="1.98165">
        <ele>331.81790698253</ele>
        <time>2020-03-10T16:04:42Z</time>
      </trkpt>
      <trkpt lat="43.57804" lon="1.98172">
        <ele>333.8582076854</ele>
        <time>2020-03-10T16:04:50Z</time>
      </trkpt>
      <trkpt lat="43.57797" lon="1.98179">
        <ele>334.55442869053</ele>
        <time>2020-03-10T16:04:59Z</time>
      </trkpt>
      <trkpt lat="43.5779" lon="1.98185">
        <ele>335.29178767175</ele>
        <time>2020-03-10T16:05:08Z</time>
      </trkpt>
      <trkpt lat="43.57784" lon="1.98192">
        <ele>335.10785750669</ele>
        <time>2020-03-10T16:05:13Z</time>
      </trkpt>
      <trkpt lat="43.57776" lon="1.98199">
        <ele>335.11156172534</ele>
        <time>2020-03-10T16:05:20Z</time>
      </trkpt>
      <trkpt lat="43.5777" lon="1.98206">
        <ele>336.17105077128</ele>
        <time>2020-03-10T16:05:27Z</time>
      </trkpt>
      <trkpt lat="43.57762" lon="1.9821">
        <ele>336.61400788336</ele>
        <time>2020-03-10T16:05:35Z</time>
      </trkpt>
      <trkpt lat="43.57756" lon="1.98215">
        <ele>335.49426561394</ele>
        <time>2020-03-10T16:05:42Z</time>
      </trkpt>
      <trkpt lat="43.57748" lon="1.9822">
        <ele>334.40024457087</ele>
        <time>2020-03-10T16:05:48Z</time>
      </trkpt>
      <trkpt lat="43.57741" lon="1.98224">
        <ele>335.12055482415</ele>
        <time>2020-03-10T16:05:55Z</time>
      </trkpt>
      <trkpt lat="43.57733" lon="1.98226">
        <ele>335.82457444183</ele>
        <time>2020-03-10T16:06:00Z</time>
      </trkpt>
      <trkpt lat="43.57726" lon="1.98233">
        <ele>335.86420448091</ele>
        <time>2020-03-10T16:06:07Z</time>
      </trkpt>
      <trkpt lat="43.57718" lon="1.98238">
        <ele>336.82178354771</ele>
        <time>2020-03-10T16:06:16Z</time>
      </trkpt>
      <trkpt lat="43.5771" lon="1.98241">
        <ele>336.99869490723</ele>
        <time>2020-03-10T16:06:26Z</time>
      </trkpt>
      <trkpt lat="43.57703" lon="1.98249">
        <ele>337.75517260681</ele>
        <time>2020-03-10T16:06:33Z</time>
      </trkpt>
      <trkpt lat="43.57696" lon="1.98254">
        <ele>338.44836905584</ele>
        <time>2020-03-10T16:06:41Z</time>
      </trkpt>
      <trkpt lat="43.57688" lon="1.98261">
        <ele>339.65339382148</ele>
        <time>2020-03-10T16:06:48Z</time>
      </trkpt>
      <trkpt lat="43.5768" lon="1.98267">
        <ele>341.41911977813</ele>
        <time>2020-03-10T16:06:56Z</time>
      </trkpt>
      <trkpt lat="43.57674" lon="1.98274">
        <ele>342.60320462135</ele>
        <time>2020-03-10T16:07:02Z</time>
      </trkpt>
      <trkpt lat="43.57666" lon="1.98278">
        <ele>343.27989604826</ele>
        <time>2020-03-10T16:07:09Z</time>
      </trkpt>
      <trkpt lat="43.57657" lon="1.9828">
        <ele>343.23610160244</ele>
        <time>2020-03-10T16:07:17Z</time>
      </trkpt>
      <trkpt lat="43.5765" lon="1.98284">
        <ele>343.67975317261</ele>
        <time>2020-03-10T16:07:24Z</time>
      </trkpt>
      <trkpt lat="43.57642" lon="1.98289">
        <ele>343.17175759572</ele>
        <time>2020-03-10T16:07:31Z</time>
      </trkpt>
      <trkpt lat="43.57635" lon="1.98294">
        <ele>343.0752423777</ele>
        <time>2020-03-10T16:07:39Z</time>
      </trkpt>
      <trkpt lat="43.57629" lon="1.98303">
        <ele>343.21010779208</ele>
        <time>2020-03-10T16:07:48Z</time>
      </trkpt>
      <trkpt lat="43.57622" lon="1.98309">
        <ele>341.28618321977</ele>
        <time>2020-03-10T16:07:53Z</time>
      </trkpt>
      <trkpt lat="43.57614" lon="1.98315">
        <ele>341.51263972863</ele>
        <time>2020-03-10T16:08:01Z</time>
      </trkpt>
      <trkpt lat="43.57609" lon="1.98324">
        <ele>342.74052420159</ele>
        <time>2020-03-10T16:08:07Z</time>
      </trkpt>
      <trkpt lat="43.57602" lon="1.98332">
        <ele>340.68431932408</ele>
        <time>2020-03-10T16:08:13Z</time>
      </trkpt>
      <trkpt lat="43.57597" lon="1.98341">
        <ele>341.67035297125</ele>
        <time>2020-03-10T16:08:21Z</time>
      </trkpt>
      <trkpt lat="43.57592" lon="1.98351">
        <ele>342.49296156419</ele>
        <time>2020-03-10T16:08:29Z</time>
      </trkpt>
      <trkpt lat="43.57586" lon="1.9836">
        <ele>342.25303770034</ele>
        <time>2020-03-10T16:08:37Z</time>
      </trkpt>
      <trkpt lat="43.57585" lon="1.9837">
        <ele>341.43260509172</ele>
        <time>2020-03-10T16:08:44Z</time>
      </trkpt>
      <trkpt lat="43.57582" lon="1.98382">
        <ele>342.11012126425</ele>
        <time>2020-03-10T16:08:49Z</time>
      </trkpt>
      <trkpt lat="43.5758" lon="1.98392">
        <ele>342.14483553274</ele>
        <time>2020-03-10T16:08:55Z</time>
      </trkpt>
      <trkpt lat="43.57577" lon="1.98404">
        <ele>341.29823138133</ele>
        <time>2020-03-10T16:09:02Z</time>
      </trkpt>
      <trkpt lat="43.57573" lon="1.98414">
        <ele>339.72083960135</ele>
        <time>2020-03-10T16:09:10Z</time>
      </trkpt>
      <trkpt lat="43.57569" lon="1.98424">
        <ele>336.90796041928</ele>
        <time>2020-03-10T16:09:18Z</time>
      </trkpt>
      <trkpt lat="43.57564" lon="1.98433">
        <ele>335.35430965839</ele>
        <time>2020-03-10T16:09:26Z</time>
      </trkpt>
      <trkpt lat="43.57558" lon="1.98441">
        <ele>334.52128053559</ele>
        <time>2020-03-10T16:09:33Z</time>
      </trkpt>
      <trkpt lat="43.57551" lon="1.98448">
        <ele>332.90329151068</ele>
        <time>2020-03-10T16:09:41Z</time>
      </trkpt>
      <trkpt lat="43.57544" lon="1.98455">
        <ele>332.17840740199</ele>
        <time>2020-03-10T16:09:49Z</time>
      </trkpt>
      <trkpt lat="43.57537" lon="1.98462">
        <ele>331.29718108435</ele>
        <time>2020-03-10T16:09:55Z</time>
      </trkpt>
      <trkpt lat="43.57531" lon="1.9847">
        <ele>329.7765560862</ele>
        <time>2020-03-10T16:10:03Z</time>
      </trkpt>
      <trkpt lat="43.57526" lon="1.98478">
        <ele>328.61572892459</ele>
        <time>2020-03-10T16:10:10Z</time>
      </trkpt>
      <trkpt lat="43.57522" lon="1.98489">
        <ele>328.77176481317</ele>
        <time>2020-03-10T16:10:18Z</time>
      </trkpt>
      <trkpt lat="43.57518" lon="1.985">
        <ele>330.04550016724</ele>
        <time>2020-03-10T16:10:28Z</time>
      </trkpt>
      <trkpt lat="43.57514" lon="1.98511">
        <ele>329.89846396505</ele>
        <time>2020-03-10T16:10:33Z</time>
      </trkpt>
      <trkpt lat="43.5751" lon="1.98521">
        <ele>327.95132455222</ele>
        <time>2020-03-10T16:10:41Z</time>
      </trkpt>
      <trkpt lat="43.57505" lon="1.98531">
        <ele>327.36221120568</ele>
        <time>2020-03-10T16:10:45Z</time>
      </trkpt>
      <trkpt lat="43.57501" lon="1.98541">
        <ele>327.3381588379</ele>
        <time>2020-03-10T16:10:52Z</time>
      </trkpt>
      <trkpt lat="43.57496" lon="1.9855">
        <ele>326.9256499192</ele>
        <time>2020-03-10T16:10:58Z</time>
      </trkpt>
      <trkpt lat="43.57489" lon="1.98557">
        <ele>327.34496753861</ele>
        <time>2020-03-10T16:11:06Z</time>
      </trkpt>
      <trkpt lat="43.57482" lon="1.98564">
        <ele>326.24066203575</ele>
        <time>2020-03-10T16:11:14Z</time>
      </trkpt>
      <trkpt lat="43.57476" lon="1.98571">
        <ele>325.5455943762</ele>
        <time>2020-03-10T16:11:20Z</time>
      </trkpt>
      <trkpt lat="43.57471" lon="1.9858">
        <ele>325.42419634613</ele>
        <time>2020-03-10T16:11:27Z</time>
      </trkpt>
      <trkpt lat="43.57465" lon="1.98587">
        <ele>325.16458981142</ele>
        <time>2020-03-10T16:11:33Z</time>
      </trkpt>
      <trkpt lat="43.57458" lon="1.98595">
        <ele>325.53896662841</ele>
        <time>2020-03-10T16:11:42Z</time>
      </trkpt>
      <trkpt lat="43.57452" lon="1.98604">
        <ele>324.64928181862</ele>
        <time>2020-03-10T16:11:48Z</time>
      </trkpt>
      <trkpt lat="43.57447" lon="1.98614">
        <ele>325.04001851266</ele>
        <time>2020-03-10T16:11:58Z</time>
      </trkpt>
      <trkpt lat="43.57441" lon="1.98622">
        <ele>325.91494566448</ele>
        <time>2020-03-10T16:12:03Z</time>
      </trkpt>
      <trkpt lat="43.57436" lon="1.98632">
        <ele>326.47576561402</ele>
        <time>2020-03-10T16:12:09Z</time>
      </trkpt>
      <trkpt lat="43.57431" lon="1.98641">
        <ele>328.22258097237</ele>
        <time>2020-03-10T16:12:16Z</time>
      </trkpt>
      <trkpt lat="43.57425" lon="1.9865">
        <ele>327.8782069975</ele>
        <time>2020-03-10T16:12:23Z</time>
      </trkpt>
      <trkpt lat="43.57421" lon="1.98659">
        <ele>325.62274571764</ele>
        <time>2020-03-10T16:12:29Z</time>
      </trkpt>
      <trkpt lat="43.57416" lon="1.98668">
        <ele>323.40872519946</ele>
        <time>2020-03-10T16:12:37Z</time>
      </trkpt>
      <trkpt lat="43.57411" lon="1.98678">
        <ele>321.97208677474</ele>
        <time>2020-03-10T16:12:44Z</time>
      </trkpt>
      <trkpt lat="43.57407" lon="1.98687">
        <ele>319.82285887636</ele>
        <time>2020-03-10T16:12:50Z</time>
      </trkpt>
      <trkpt lat="43.57402" lon="1.98697">
        <ele>317.07387201619</ele>
        <time>2020-03-10T16:12:58Z</time>
      </trkpt>
      <trkpt lat="43.57398" lon="1.98707">
        <ele>315.87256263513</ele>
        <time>2020-03-10T16:13:06Z</time>
      </trkpt>
      <trkpt lat="43.57394" lon="1.98717">
        <ele>315.06786554818</ele>
        <time>2020-03-10T16:13:13Z</time>
      </trkpt>
      <trkpt lat="43.57387" lon="1.98726">
        <ele>315.11535439221</ele>
        <time>2020-03-10T16:13:20Z</time>
      </trkpt>
      <trkpt lat="43.57383" lon="1.98736">
        <ele>315.78644048879</ele>
        <time>2020-03-10T16:13:27Z</time>
      </trkpt>
      <trkpt lat="43.57377" lon="1.98745">
        <ele>316.82588413508</ele>
        <time>2020-03-10T16:13:36Z</time>
      </trkpt>
      <trkpt lat="43.57373" lon="1.98755">
        <ele>315.47770001392</ele>
        <time>2020-03-10T16:13:43Z</time>
      </trkpt>
      <trkpt lat="43.57371" lon="1.98765">
        <ele>314.05458758938</ele>
        <time>2020-03-10T16:13:49Z</time>
      </trkpt>
      <trkpt lat="43.57367" lon="1.98775">
        <ele>314.37716370936</ele>
        <time>2020-03-10T16:13:56Z</time>
      </trkpt>
      <trkpt lat="43.57364" lon="1.98786">
        <ele>313.2178258085</ele>
        <time>2020-03-10T16:14:01Z</time>
      </trkpt>
      <trkpt lat="43.57362" lon="1.98797">
        <ele>312.16607519941</ele>
        <time>2020-03-10T16:14:08Z</time>
      </trkpt>
      <trkpt lat="43.57359" lon="1.98807">
        <ele>311.6810103617</ele>
        <time>2020-03-10T16:14:15Z</time>
      </trkpt>
      <trkpt lat="43.57357" lon="1.98819">
        <ele>310.5195299581</ele>
        <time>2020-03-10T16:14:24Z</time>
      </trkpt>
      <trkpt lat="43.57353" lon="1.98828">
        <ele>309.54566178634</ele>
        <time>2020-03-10T16:14:30Z</time>
      </trkpt>
      <trkpt lat="43.57349" lon="1.98838">
        <ele>308.15400755757</ele>
        <time>2020-03-10T16:14:36Z</time>
      </trkpt>
      <trkpt lat="43.57346" lon="1.98849">
        <ele>307.80613886714</ele>
        <time>2020-03-10T16:14:43Z</time>
      </trkpt>
      <trkpt lat="43.57343" lon="1.98858">
        <ele>306.54518827201</ele>
        <time>2020-03-10T16:14:50Z</time>
      </trkpt>
      <trkpt lat="43.5734" lon="1.98868">
        <ele>305.47756498746</ele>
        <time>2020-03-10T16:14:55Z</time>
      </trkpt>
      <trkpt lat="43.57336" lon="1.98879">
        <ele>304.2474491392</ele>
        <time>2020-03-10T16:15:03Z</time>
      </trkpt>
      <trkpt lat="43.57334" lon="1.98889">
        <ele>303.99883852795</ele>
        <time>2020-03-10T16:15:10Z</time>
      </trkpt>
      <trkpt lat="43.57332" lon="1.98899">
        <ele>303.48943841306</ele>
        <time>2020-03-10T16:15:15Z</time>
      </trkpt>
      <trkpt lat="43.5733" lon="1.9891">
        <ele>303.50369388367</ele>
        <time>2020-03-10T16:15:22Z</time>
      </trkpt>
      <trkpt lat="43.5733" lon="1.98921">
        <ele>303.80639288979</ele>
        <time>2020-03-10T16:15:40Z</time>
      </trkpt>
      <trkpt lat="43.57329" lon="1.98933">
        <ele>304.78487368523</ele>
        <time>2020-03-10T16:15:48Z</time>
      </trkpt>
      <trkpt lat="43.5733" lon="1.98944">
        <ele>305.50683439812</ele>
        <time>2020-03-10T16:15:55Z</time>
      </trkpt>
      <trkpt lat="43.57333" lon="1.98954">
        <ele>305.47967683275</ele>
        <time>2020-03-10T16:16:01Z</time>
      </trkpt>
      <trkpt lat="43.5733" lon="1.98966">
        <ele>305.50708790184</ele>
        <time>2020-03-10T16:16:09Z</time>
      </trkpt>
      <trkpt lat="43.57327" lon="1.98977">
        <ele>305.52547975021</ele>
        <time>2020-03-10T16:16:17Z</time>
      </trkpt>
      <trkpt lat="43.57325" lon="1.98988">
        <ele>305.7486879031</ele>
        <time>2020-03-10T16:16:22Z</time>
      </trkpt>
      <trkpt lat="43.57322" lon="1.98999">
        <ele>305.59485594425</ele>
        <time>2020-03-10T16:16:29Z</time>
      </trkpt>
      <trkpt lat="43.5732" lon="1.9901">
        <ele>304.82175161849</ele>
        <time>2020-03-10T16:16:36Z</time>
      </trkpt>
      <trkpt lat="43.57316" lon="1.9902">
        <ele>304.02180537459</ele>
        <time>2020-03-10T16:16:43Z</time>
      </trkpt>
      <trkpt lat="43.57313" lon="1.9903">
        <ele>304.26789609174</ele>
        <time>2020-03-10T16:16:48Z</time>
      </trkpt>
      <trkpt lat="43.5731" lon="1.9904">
        <ele>304.26825484435</ele>
        <time>2020-03-10T16:16:53Z</time>
      </trkpt>
      <trkpt lat="43.57307" lon="1.9905">
        <ele>304.77640477396</ele>
        <time>2020-03-10T16:17:00Z</time>
      </trkpt>
      <trkpt lat="43.57305" lon="1.99061">
        <ele>303.55621867173</ele>
        <time>2020-03-10T16:17:08Z</time>
      </trkpt>
      <trkpt lat="43.57302" lon="1.99073">
        <ele>304.57853429001</ele>
        <time>2020-03-10T16:17:16Z</time>
      </trkpt>
      <trkpt lat="43.57299" lon="1.99084">
        <ele>304.32424766602</ele>
        <time>2020-03-10T16:17:23Z</time>
      </trkpt>
      <trkpt lat="43.57296" lon="1.99096">
        <ele>305.0858336298</ele>
        <time>2020-03-10T16:17:30Z</time>
      </trkpt>
      <trkpt lat="43.57292" lon="1.99106">
        <ele>305.64967317561</ele>
        <time>2020-03-10T16:17:36Z</time>
      </trkpt>
      <trkpt lat="43.57288" lon="1.99116">
        <ele>305.36598844578</ele>
        <time>2020-03-10T16:17:44Z</time>
      </trkpt>
      <trkpt lat="43.57286" lon="1.99128">
        <ele>304.16499193158</ele>
        <time>2020-03-10T16:19:15Z</time>
      </trkpt>
      <trkpt lat="43.57293" lon="1.99135">
        <ele>304.2212150105</ele>
        <time>2020-03-10T16:19:23Z</time>
      </trkpt>
      <trkpt lat="43.57301" lon="1.99142">
        <ele>305.63264240476</ele>
        <time>2020-03-10T16:19:31Z</time>
      </trkpt>
      <trkpt lat="43.57307" lon="1.9915">
        <ele>305.73529136444</ele>
        <time>2020-03-10T16:19:40Z</time>
      </trkpt>
      <trkpt lat="43.5731" lon="1.9916">
        <ele>305.32928592546</ele>
        <time>2020-03-10T16:19:48Z</time>
      </trkpt>
      <trkpt lat="43.57307" lon="1.99172">
        <ele>305.6765391672</ele>
        <time>2020-03-10T16:19:59Z</time>
      </trkpt>
      <trkpt lat="43.57305" lon="1.99183">
        <ele>306.20320517935</ele>
        <time>2020-03-10T16:20:07Z</time>
      </trkpt>
      <trkpt lat="43.57303" lon="1.99194">
        <ele>305.43963691572</ele>
        <time>2020-03-10T16:20:14Z</time>
      </trkpt>
      <trkpt lat="43.57303" lon="1.99207">
        <ele>305.29435873323</ele>
        <time>2020-03-10T16:20:23Z</time>
      </trkpt>
      <trkpt lat="43.573" lon="1.99217">
        <ele>305.510645579</ele>
        <time>2020-03-10T16:20:30Z</time>
      </trkpt>
      <trkpt lat="43.57299" lon="1.99229">
        <ele>305.13292550398</ele>
        <time>2020-03-10T16:20:39Z</time>
      </trkpt>
      <trkpt lat="43.57299" lon="1.9924">
        <ele>304.86247441581</ele>
        <time>2020-03-10T16:20:45Z</time>
      </trkpt>
      <trkpt lat="43.57297" lon="1.99251">
        <ele>305.89069519243</ele>
        <time>2020-03-10T16:20:52Z</time>
      </trkpt>
      <trkpt lat="43.57295" lon="1.99263">
        <ele>307.70594104563</ele>
        <time>2020-03-10T16:20:59Z</time>
      </trkpt>
      <trkpt lat="43.57292" lon="1.99274">
        <ele>309.293953936</ele>
        <time>2020-03-10T16:21:09Z</time>
      </trkpt>
      <trkpt lat="43.57289" lon="1.99285">
        <ele>309.48065849283</ele>
        <time>2020-03-10T16:21:17Z</time>
      </trkpt>
      <trkpt lat="43.5729" lon="1.99297">
        <ele>309.59012715102</ele>
        <time>2020-03-10T16:21:27Z</time>
      </trkpt>
      <trkpt lat="43.57287" lon="1.99308">
        <ele>309.40607858887</ele>
        <time>2020-03-10T16:21:36Z</time>
      </trkpt>
      <trkpt lat="43.57287" lon="1.9932">
        <ele>311.83678727016</ele>
        <time>2020-03-10T16:21:44Z</time>
      </trkpt>
      <trkpt lat="43.57287" lon="1.99332">
        <ele>313.21511581237</ele>
        <time>2020-03-10T16:21:53Z</time>
      </trkpt>
      <trkpt lat="43.57289" lon="1.99343">
        <ele>314.06065716279</ele>
        <time>2020-03-10T16:22:02Z</time>
      </trkpt>
      <trkpt lat="43.57288" lon="1.99354">
        <ele>313.59212529804</ele>
        <time>2020-03-10T16:22:09Z</time>
      </trkpt>
      <trkpt lat="43.57289" lon="1.99365">
        <ele>312.21575122207</ele>
        <time>2020-03-10T16:22:16Z</time>
      </trkpt>
      <trkpt lat="43.57289" lon="1.99375">
        <ele>311.54317608949</ele>
        <time>2020-03-10T16:22:21Z</time>
      </trkpt>
      <trkpt lat="43.5729" lon="1.99388">
        <ele>310.53422723485</ele>
        <time>2020-03-10T16:22:29Z</time>
      </trkpt>
      <trkpt lat="43.57291" lon="1.994">
        <ele>310.59218589579</ele>
        <time>2020-03-10T16:22:38Z</time>
      </trkpt>
      <trkpt lat="43.57291" lon="1.99411">
        <ele>310.29078338869</ele>
        <time>2020-03-10T16:22:49Z</time>
      </trkpt>
      <trkpt lat="43.57291" lon="1.99422">
        <ele>310.28629050892</ele>
        <time>2020-03-10T16:22:56Z</time>
      </trkpt>
      <trkpt lat="43.57291" lon="1.99433">
        <ele>310.69977039105</ele>
        <time>2020-03-10T16:23:02Z</time>
      </trkpt>
      <trkpt lat="43.57294" lon="1.99444">
        <ele>310.16197645231</ele>
        <time>2020-03-10T16:23:13Z</time>
      </trkpt>
      <trkpt lat="43.57297" lon="1.99455">
        <ele>310.55319443328</ele>
        <time>2020-03-10T16:23:19Z</time>
      </trkpt>
      <trkpt lat="43.57299" lon="1.99466">
        <ele>310.83024333711</ele>
        <time>2020-03-10T16:23:27Z</time>
      </trkpt>
      <trkpt lat="43.573" lon="1.99478">
        <ele>309.73740974007</ele>
        <time>2020-03-10T16:23:36Z</time>
      </trkpt>
      <trkpt lat="43.57303" lon="1.99488">
        <ele>309.28475300773</ele>
        <time>2020-03-10T16:23:42Z</time>
      </trkpt>
      <trkpt lat="43.57305" lon="1.995">
        <ele>310.8959034791</ele>
        <time>2020-03-10T16:23:50Z</time>
      </trkpt>
      <trkpt lat="43.57307" lon="1.99512">
        <ele>314.33176373085</ele>
        <time>2020-03-10T16:24:01Z</time>
      </trkpt>
      <trkpt lat="43.57306" lon="1.99524">
        <ele>315.45231804115</ele>
        <time>2020-03-10T16:24:15Z</time>
      </trkpt>
      <trkpt lat="43.57307" lon="1.99536">
        <ele>314.15529897072</ele>
        <time>2020-03-10T16:24:26Z</time>
      </trkpt>
      <trkpt lat="43.57307" lon="1.99548">
        <ele>312.91207090587</ele>
        <time>2020-03-10T16:24:35Z</time>
      </trkpt>
      <trkpt lat="43.57308" lon="1.99559">
        <ele>313.68666940599</ele>
        <time>2020-03-10T16:24:44Z</time>
      </trkpt>
      <trkpt lat="43.57304" lon="1.99571">
        <ele>314.83726735257</ele>
        <time>2020-03-10T16:24:53Z</time>
      </trkpt>
      <trkpt lat="43.57305" lon="1.99581">
        <ele>315.09747260603</ele>
        <time>2020-03-10T16:24:59Z</time>
      </trkpt>
      <trkpt lat="43.57304" lon="1.99592">
        <ele>313.87245977345</ele>
        <time>2020-03-10T16:25:06Z</time>
      </trkpt>
      <trkpt lat="43.57305" lon="1.99604">
        <ele>312.8826056932</ele>
        <time>2020-03-10T16:25:12Z</time>
      </trkpt>
      <trkpt lat="43.57307" lon="1.99616">
        <ele>311.96374435758</ele>
        <time>2020-03-10T16:25:18Z</time>
      </trkpt>
      <trkpt lat="43.57308" lon="1.99628">
        <ele>310.8703666633</ele>
        <time>2020-03-10T16:25:26Z</time>
      </trkpt>
      <trkpt lat="43.57309" lon="1.9964">
        <ele>309.84564970648</ele>
        <time>2020-03-10T16:25:33Z</time>
      </trkpt>
      <trkpt lat="43.57312" lon="1.99651">
        <ele>309.22039739027</ele>
        <time>2020-03-10T16:25:41Z</time>
      </trkpt>
      <trkpt lat="43.57312" lon="1.99662">
        <ele>309.66647874947</ele>
        <time>2020-03-10T16:25:48Z</time>
      </trkpt>
      <trkpt lat="43.57315" lon="1.99674">
        <ele>310.79935920497</ele>
        <time>2020-03-10T16:25:54Z</time>
      </trkpt>
      <trkpt lat="43.57315" lon="1.99686">
        <ele>310.91252818049</ele>
        <time>2020-03-10T16:26:02Z</time>
      </trkpt>
      <trkpt lat="43.57315" lon="1.99698">
        <ele>310.91975768724</ele>
        <time>2020-03-10T16:26:11Z</time>
      </trkpt>
      <trkpt lat="43.57315" lon="1.9971">
        <ele>310.00893173206</ele>
        <time>2020-03-10T16:26:22Z</time>
      </trkpt>
      <trkpt lat="43.57318" lon="1.99721">
        <ele>311.45845443572</ele>
        <time>2020-03-10T16:26:30Z</time>
      </trkpt>
      <trkpt lat="43.57321" lon="1.99733">
        <ele>312.31353150004</ele>
        <time>2020-03-10T16:26:37Z</time>
      </trkpt>
      <trkpt lat="43.57326" lon="1.99742">
        <ele>313.42916912451</ele>
        <time>2020-03-10T16:26:43Z</time>
      </trkpt>
      <trkpt lat="43.57328" lon="1.99752">
        <ele>314.81456703582</ele>
        <time>2020-03-10T16:26:51Z</time>
      </trkpt>
      <trkpt lat="43.57333" lon="1.99762">
        <ele>315.90610624527</ele>
        <time>2020-03-10T16:27:01Z</time>
      </trkpt>
      <trkpt lat="43.57335" lon="1.99773">
        <ele>317.51093735091</ele>
        <time>2020-03-10T16:27:11Z</time>
      </trkpt>
      <trkpt lat="43.57339" lon="1.99783">
        <ele>318.67376461964</ele>
        <time>2020-03-10T16:27:19Z</time>
      </trkpt>
      <trkpt lat="43.57345" lon="1.99792">
        <ele>322.50476548702</ele>
        <time>2020-03-10T16:27:31Z</time>
      </trkpt>
      <trkpt lat="43.57349" lon="1.99803">
        <ele>325.12614960113</ele>
        <time>2020-03-10T16:27:39Z</time>
      </trkpt>
      <trkpt lat="43.57354" lon="1.99813">
        <ele>328.1379210146</ele>
        <time>2020-03-10T16:27:49Z</time>
      </trkpt>
      <trkpt lat="43.57358" lon="1.99823">
        <ele>331.47524850257</ele>
        <time>2020-03-10T16:27:58Z</time>
      </trkpt>
      <trkpt lat="43.57361" lon="1.99835">
        <ele>333.76031903642</ele>
        <time>2020-03-10T16:28:09Z</time>
      </trkpt>
      <trkpt lat="43.57366" lon="1.99844">
        <ele>332.46365318089</ele>
        <time>2020-03-10T16:28:22Z</time>
      </trkpt>
      <trkpt lat="43.57371" lon="1.99853">
        <ele>333.30128507604</ele>
        <time>2020-03-10T16:28:33Z</time>
      </trkpt>
      <trkpt lat="43.5737" lon="1.99864">
        <ele>333.21311840048</ele>
        <time>2020-03-10T16:28:44Z</time>
      </trkpt>
      <trkpt lat="43.57367" lon="1.99875">
        <ele>332.47558586987</ele>
        <time>2020-03-10T16:28:51Z</time>
      </trkpt>
      <trkpt lat="43.57365" lon="1.99887">
        <ele>334.40219306904</ele>
        <time>2020-03-10T16:29:12Z</time>
      </trkpt>
      <trkpt lat="43.57364" lon="1.99899">
        <ele>334.4496190305</ele>
        <time>2020-03-10T16:29:22Z</time>
      </trkpt>
      <trkpt lat="43.57365" lon="1.9991">
        <ele>334.72383951161</ele>
        <time>2020-03-10T16:29:30Z</time>
      </trkpt>
      <trkpt lat="43.57366" lon="1.99922">
        <ele>335.37762435716</ele>
        <time>2020-03-10T16:29:46Z</time>
      </trkpt>
      <trkpt lat="43.57367" lon="1.99934">
        <ele>335.76260421878</ele>
        <time>2020-03-10T16:29:54Z</time>
      </trkpt>
      <trkpt lat="43.57366" lon="1.99945">
        <ele>336.32832016354</ele>
        <time>2020-03-10T16:30:02Z</time>
      </trkpt>
      <trkpt lat="43.57366" lon="1.99957">
        <ele>335.66390266266</ele>
        <time>2020-03-10T16:30:11Z</time>
      </trkpt>
      <trkpt lat="43.57368" lon="1.99967">
        <ele>335.84801470624</ele>
        <time>2020-03-10T16:30:18Z</time>
      </trkpt>
      <trkpt lat="43.5737" lon="1.99978">
        <ele>337.00299093361</ele>
        <time>2020-03-10T16:30:23Z</time>
      </trkpt>
      <trkpt lat="43.5737" lon="1.9999">
        <ele>337.21929585748</ele>
        <time>2020-03-10T16:30:33Z</time>
      </trkpt>
      <trkpt lat="43.57374" lon="2">
        <ele>337.69154978535</ele>
        <time>2020-03-10T16:30:42Z</time>
      </trkpt>
      <trkpt lat="43.57374" lon="2.00011">
        <ele>338.28552141541</ele>
        <time>2020-03-10T16:30:51Z</time>
      </trkpt>
      <trkpt lat="43.57374" lon="2.00024">
        <ele>337.30732326182</ele>
        <time>2020-03-10T16:30:58Z</time>
      </trkpt>
      <trkpt lat="43.57374" lon="2.00035">
        <ele>336.66394237783</ele>
        <time>2020-03-10T16:31:06Z</time>
      </trkpt>
      <trkpt lat="43.57373" lon="2.00047">
        <ele>337.31406023983</ele>
        <time>2020-03-10T16:31:13Z</time>
      </trkpt>
      <trkpt lat="43.57372" lon="2.00058">
        <ele>337.37545874076</ele>
        <time>2020-03-10T16:31:19Z</time>
      </trkpt>
      <trkpt lat="43.57372" lon="2.0007">
        <ele>338.0572069115</ele>
        <time>2020-03-10T16:31:28Z</time>
      </trkpt>
      <trkpt lat="43.57372" lon="2.00081">
        <ele>336.84020894528</ele>
        <time>2020-03-10T16:31:34Z</time>
      </trkpt>
      <trkpt lat="43.57374" lon="2.00093">
        <ele>335.75716841213</ele>
        <time>2020-03-10T16:31:42Z</time>
      </trkpt>
      <trkpt lat="43.57375" lon="2.00104">
        <ele>335.88585964273</ele>
        <time>2020-03-10T16:31:49Z</time>
      </trkpt>
      <trkpt lat="43.57377" lon="2.00116">
        <ele>335.5639618619</ele>
        <time>2020-03-10T16:32:00Z</time>
      </trkpt>
      <trkpt lat="43.5738" lon="2.00126">
        <ele>336.04455554586</ele>
        <time>2020-03-10T16:32:07Z</time>
      </trkpt>
      <trkpt lat="43.57384" lon="2.00137">
        <ele>337.57021621771</ele>
        <time>2020-03-10T16:32:14Z</time>
      </trkpt>
      <trkpt lat="43.5739" lon="2.00145">
        <ele>338.59085698867</ele>
        <time>2020-03-10T16:32:20Z</time>
      </trkpt>
      <trkpt lat="43.57395" lon="2.00153">
        <ele>339.68267202136</ele>
        <time>2020-03-10T16:32:26Z</time>
      </trkpt>
      <trkpt lat="43.57401" lon="2.00162">
        <ele>340.24598578127</ele>
        <time>2020-03-10T16:32:33Z</time>
      </trkpt>
      <trkpt lat="43.57406" lon="2.0017">
        <ele>341.37550676187</ele>
        <time>2020-03-10T16:32:39Z</time>
      </trkpt>
      <trkpt lat="43.57409" lon="2.00181">
        <ele>341.81678066529</ele>
        <time>2020-03-10T16:32:48Z</time>
      </trkpt>
      <trkpt lat="43.57414" lon="2.0019">
        <ele>342.3539393279</ele>
        <time>2020-03-10T16:32:55Z</time>
      </trkpt>
      <trkpt lat="43.57419" lon="2.00198">
        <ele>343.53633146638</ele>
        <time>2020-03-10T16:33:00Z</time>
      </trkpt>
      <trkpt lat="43.57426" lon="2.00206">
        <ele>343.62196915856</ele>
        <time>2020-03-10T16:33:07Z</time>
      </trkpt>
      <trkpt lat="43.57431" lon="2.00216">
        <ele>343.35298809541</ele>
        <time>2020-03-10T16:33:15Z</time>
      </trkpt>
      <trkpt lat="43.57434" lon="2.00226">
        <ele>342.91734846629</ele>
        <time>2020-03-10T16:33:22Z</time>
      </trkpt>
      <trkpt lat="43.57438" lon="2.00237">
        <ele>342.716866942</ele>
        <time>2020-03-10T16:33:29Z</time>
      </trkpt>
      <trkpt lat="43.57442" lon="2.00247">
        <ele>343.21830037324</ele>
        <time>2020-03-10T16:33:36Z</time>
      </trkpt>
      <trkpt lat="43.57444" lon="2.00258">
        <ele>344.67210770757</ele>
        <time>2020-03-10T16:33:43Z</time>
      </trkpt>
      <trkpt lat="43.57445" lon="2.0027">
        <ele>344.83154150264</ele>
        <time>2020-03-10T16:33:52Z</time>
      </trkpt>
      <trkpt lat="43.57444" lon="2.00281">
        <ele>345.8456102524</ele>
        <time>2020-03-10T16:33:57Z</time>
      </trkpt>
      <trkpt lat="43.57443" lon="2.00293">
        <ele>347.45552909995</ele>
        <time>2020-03-10T16:34:04Z</time>
      </trkpt>
      <trkpt lat="43.57441" lon="2.00304">
        <ele>347.88555832119</ele>
        <time>2020-03-10T16:34:11Z</time>
      </trkpt>
      <trkpt lat="43.57439" lon="2.00316">
        <ele>346.07429697164</ele>
        <time>2020-03-10T16:34:20Z</time>
      </trkpt>
      <trkpt lat="43.57436" lon="2.00326">
        <ele>344.97634545636</ele>
        <time>2020-03-10T16:34:25Z</time>
      </trkpt>
      <trkpt lat="43.57437" lon="2.00338">
        <ele>345.96251331413</ele>
        <time>2020-03-10T16:34:34Z</time>
      </trkpt>
      <trkpt lat="43.57434" lon="2.00347">
        <ele>345.3108890656</ele>
        <time>2020-03-10T16:34:38Z</time>
      </trkpt>
      <trkpt lat="43.57429" lon="2.00357">
        <ele>343.64794775845</ele>
        <time>2020-03-10T16:34:44Z</time>
      </trkpt>
      <trkpt lat="43.57426" lon="2.00369">
        <ele>343.34508555143</ele>
        <time>2020-03-10T16:34:52Z</time>
      </trkpt>
      <trkpt lat="43.57425" lon="2.0038">
        <ele>343.70528847174</ele>
        <time>2020-03-10T16:35:01Z</time>
      </trkpt>
      <trkpt lat="43.57427" lon="2.00391">
        <ele>342.59626902339</ele>
        <time>2020-03-10T16:35:10Z</time>
      </trkpt>
      <trkpt lat="43.57431" lon="2.00401">
        <ele>342.68974768227</ele>
        <time>2020-03-10T16:35:17Z</time>
      </trkpt>
      <trkpt lat="43.57434" lon="2.00413">
        <ele>342.62543570761</ele>
        <time>2020-03-10T16:35:25Z</time>
      </trkpt>
      <trkpt lat="43.57437" lon="2.00423">
        <ele>342.61875939207</ele>
        <time>2020-03-10T16:35:31Z</time>
      </trkpt>
      <trkpt lat="43.57441" lon="2.00434">
        <ele>341.61657651217</ele>
        <time>2020-03-10T16:35:41Z</time>
      </trkpt>
      <trkpt lat="43.57444" lon="2.00445">
        <ele>340.14801928891</ele>
        <time>2020-03-10T16:35:51Z</time>
      </trkpt>
      <trkpt lat="43.57445" lon="2.00455">
        <ele>339.11843022915</ele>
        <time>2020-03-10T16:35:58Z</time>
      </trkpt>
      <trkpt lat="43.57448" lon="2.00466">
        <ele>339.61027534805</ele>
        <time>2020-03-10T16:36:04Z</time>
      </trkpt>
      <trkpt lat="43.5745" lon="2.00477">
        <ele>340.15853665333</ele>
        <time>2020-03-10T16:36:11Z</time>
      </trkpt>
      <trkpt lat="43.57453" lon="2.00489">
        <ele>339.45930992495</ele>
        <time>2020-03-10T16:36:19Z</time>
      </trkpt>
      <trkpt lat="43.57454" lon="2.00501">
        <ele>340.29851552828</ele>
        <time>2020-03-10T16:36:28Z</time>
      </trkpt>
      <trkpt lat="43.57452" lon="2.00513">
        <ele>341.03382630126</ele>
        <time>2020-03-10T16:36:36Z</time>
      </trkpt>
      <trkpt lat="43.5745" lon="2.00524">
        <ele>343.14989298439</ele>
        <time>2020-03-10T16:36:44Z</time>
      </trkpt>
      <trkpt lat="43.57448" lon="2.00536">
        <ele>344.06124405054</ele>
        <time>2020-03-10T16:36:51Z</time>
      </trkpt>
      <trkpt lat="43.57445" lon="2.00547">
        <ele>343.41658181577</ele>
        <time>2020-03-10T16:36:59Z</time>
      </trkpt>
      <trkpt lat="43.57442" lon="2.00558">
        <ele>344.67895443097</ele>
        <time>2020-03-10T16:37:05Z</time>
      </trkpt>
      <trkpt lat="43.5744" lon="2.0057">
        <ele>345.65493624824</ele>
        <time>2020-03-10T16:37:14Z</time>
      </trkpt>
      <trkpt lat="43.57438" lon="2.00581">
        <ele>347.19323874569</ele>
        <time>2020-03-10T16:37:23Z</time>
      </trkpt>
      <trkpt lat="43.57436" lon="2.00593">
        <ele>345.40216429814</ele>
        <time>2020-03-10T16:37:30Z</time>
      </trkpt>
      <trkpt lat="43.57432" lon="2.00603">
        <ele>345.21021751735</ele>
        <time>2020-03-10T16:37:37Z</time>
      </trkpt>
      <trkpt lat="43.57428" lon="2.00613">
        <ele>343.72593734089</ele>
        <time>2020-03-10T16:37:46Z</time>
      </trkpt>
      <trkpt lat="43.57428" lon="2.00625">
        <ele>343.44500535671</ele>
        <time>2020-03-10T16:37:53Z</time>
      </trkpt>
      <trkpt lat="43.57427" lon="2.00637">
        <ele>343.11753649117</ele>
        <time>2020-03-10T16:37:57Z</time>
      </trkpt>
      <trkpt lat="43.57426" lon="2.00649">
        <ele>343.23117896083</ele>
        <time>2020-03-10T16:38:08Z</time>
      </trkpt>
      <trkpt lat="43.57425" lon="2.0066">
        <ele>344.554860016</ele>
        <time>2020-03-10T16:38:15Z</time>
      </trkpt>
      <trkpt lat="43.57424" lon="2.00671">
        <ele>342.87006503534</ele>
        <time>2020-03-10T16:38:22Z</time>
      </trkpt>
      <trkpt lat="43.57422" lon="2.00681">
        <ele>343.83898768286</ele>
        <time>2020-03-10T16:39:49Z</time>
      </trkpt>
      <trkpt lat="43.57424" lon="2.00694">
        <ele>344.71786364711</ele>
        <time>2020-03-10T16:39:54Z</time>
      </trkpt>
      <trkpt lat="43.57429" lon="2.00707">
        <ele>347.54382474949</ele>
        <time>2020-03-10T16:39:59Z</time>
      </trkpt>
      <trkpt lat="43.57433" lon="2.00717">
        <ele>353.36610894367</ele>
        <time>2020-03-10T16:40:09Z</time>
      </trkpt>
      <trkpt lat="43.5743" lon="2.0073">
        <ele>354.97200475283</ele>
        <time>2020-03-10T16:40:13Z</time>
      </trkpt>
      <trkpt lat="43.57429" lon="2.00741">
        <ele>354.17032326739</ele>
        <time>2020-03-10T16:40:23Z</time>
      </trkpt>
      <trkpt lat="43.5743" lon="2.00752">
        <ele>351.67184009474</ele>
        <time>2020-03-10T16:40:32Z</time>
      </trkpt>
      <trkpt lat="43.57428" lon="2.00764">
        <ele>348.58509299198</ele>
        <time>2020-03-10T16:40:41Z</time>
      </trkpt>
      <trkpt lat="43.57423" lon="2.00774">
        <ele>346.05458654495</ele>
        <time>2020-03-10T16:40:49Z</time>
      </trkpt>
      <trkpt lat="43.57419" lon="2.00784">
        <ele>343.91119665348</ele>
        <time>2020-03-10T16:40:53Z</time>
      </trkpt>
      <trkpt lat="43.57414" lon="2.00794">
        <ele>343.05212637786</ele>
        <time>2020-03-10T16:41:01Z</time>
      </trkpt>
      <trkpt lat="43.57412" lon="2.00806">
        <ele>342.57470098516</ele>
        <time>2020-03-10T16:41:10Z</time>
      </trkpt>
      <trkpt lat="43.57415" lon="2.00817">
        <ele>341.94883893497</ele>
        <time>2020-03-10T16:41:18Z</time>
      </trkpt>
      <trkpt lat="43.57415" lon="2.00829">
        <ele>341.49441490205</ele>
        <time>2020-03-10T16:41:28Z</time>
      </trkpt>
      <trkpt lat="43.57413" lon="2.0084">
        <ele>340.72094255264</ele>
        <time>2020-03-10T16:41:35Z</time>
      </trkpt>
      <trkpt lat="43.57414" lon="2.00851">
        <ele>340.61822299038</ele>
        <time>2020-03-10T16:41:45Z</time>
      </trkpt>
      <trkpt lat="43.57415" lon="2.00863">
        <ele>341.27895795909</ele>
        <time>2020-03-10T16:41:59Z</time>
      </trkpt>
      <trkpt lat="43.57417" lon="2.00874">
        <ele>341.84140929863</ele>
        <time>2020-03-10T16:42:03Z</time>
      </trkpt>
      <trkpt lat="43.57415" lon="2.00886">
        <ele>342.34317620323</ele>
        <time>2020-03-10T16:42:10Z</time>
      </trkpt>
      <trkpt lat="43.57416" lon="2.00897">
        <ele>342.95790741113</ele>
        <time>2020-03-10T16:42:18Z</time>
      </trkpt>
      <trkpt lat="43.57418" lon="2.00907">
        <ele>343.12228458665</ele>
        <time>2020-03-10T16:42:27Z</time>
      </trkpt>
      <trkpt lat="43.57418" lon="2.00918">
        <ele>344.48979346545</ele>
        <time>2020-03-10T16:42:32Z</time>
      </trkpt>
      <trkpt lat="43.57416" lon="2.00929">
        <ele>345.13015982148</ele>
        <time>2020-03-10T16:42:38Z</time>
      </trkpt>
      <trkpt lat="43.57414" lon="2.00939">
        <ele>344.4328989299</ele>
        <time>2020-03-10T16:42:44Z</time>
      </trkpt>
      <trkpt lat="43.5741" lon="2.00949">
        <ele>342.61037563261</ele>
        <time>2020-03-10T16:42:50Z</time>
      </trkpt>
      <trkpt lat="43.57407" lon="2.0096">
        <ele>338.94376026555</ele>
        <time>2020-03-10T16:42:57Z</time>
      </trkpt>
      <trkpt lat="43.57404" lon="2.0097">
        <ele>337.14781614963</ele>
        <time>2020-03-10T16:43:06Z</time>
      </trkpt>
      <trkpt lat="43.57399" lon="2.0098">
        <ele>334.97221050548</ele>
        <time>2020-03-10T16:43:12Z</time>
      </trkpt>
      <trkpt lat="43.57393" lon="2.00988">
        <ele>335.15330496001</ele>
        <time>2020-03-10T16:43:18Z</time>
      </trkpt>
      <trkpt lat="43.57385" lon="2.00987">
        <ele>335.37295245909</ele>
        <time>2020-03-10T16:43:25Z</time>
      </trkpt>
      <trkpt lat="43.57376" lon="2.00984">
        <ele>335.45475049044</ele>
        <time>2020-03-10T16:43:36Z</time>
      </trkpt>
      <trkpt lat="43.57379" lon="2.00996">
        <ele>338.2788356038</ele>
        <time>2020-03-10T16:43:53Z</time>
      </trkpt>
      <trkpt lat="43.57383" lon="2.01006">
        <ele>338.47886294619</ele>
        <time>2020-03-10T16:44:04Z</time>
      </trkpt>
      <trkpt lat="43.5738" lon="2.01016">
        <ele>340.32210351491</ele>
        <time>2020-03-10T16:44:12Z</time>
      </trkpt>
      <trkpt lat="43.57376" lon="2.01026">
        <ele>341.36743150245</ele>
        <time>2020-03-10T16:44:22Z</time>
      </trkpt>
      <trkpt lat="43.57372" lon="2.01036">
        <ele>341.96185884007</ele>
        <time>2020-03-10T16:44:31Z</time>
      </trkpt>
      <trkpt lat="43.5737" lon="2.01046">
        <ele>341.68163792046</ele>
        <time>2020-03-10T16:44:38Z</time>
      </trkpt>
      <trkpt lat="43.57364" lon="2.01054">
        <ele>341.99170031896</ele>
        <time>2020-03-10T16:44:48Z</time>
      </trkpt>
      <trkpt lat="43.5736" lon="2.01065">
        <ele>343.067426896</ele>
        <time>2020-03-10T16:44:53Z</time>
      </trkpt>
      <trkpt lat="43.57358" lon="2.01075">
        <ele>343.25207650916</ele>
        <time>2020-03-10T16:44:58Z</time>
      </trkpt>
      <trkpt lat="43.57353" lon="2.01085">
        <ele>343.73271424137</ele>
        <time>2020-03-10T16:45:05Z</time>
      </trkpt>
      <trkpt lat="43.57348" lon="2.01094">
        <ele>344.21027691275</ele>
        <time>2020-03-10T16:45:13Z</time>
      </trkpt>
      <trkpt lat="43.5734" lon="2.01099">
        <ele>343.75350763682</ele>
        <time>2020-03-10T16:45:20Z</time>
      </trkpt>
      <trkpt lat="43.57337" lon="2.01108">
        <ele>343.45282995515</ele>
        <time>2020-03-10T16:45:32Z</time>
      </trkpt>
      <trkpt lat="43.57331" lon="2.01115">
        <ele>345.32792970004</ele>
        <time>2020-03-10T16:45:38Z</time>
      </trkpt>
      <trkpt lat="43.57331" lon="2.01128">
        <ele>348.57982313235</ele>
        <time>2020-03-10T16:45:50Z</time>
      </trkpt>
      <trkpt lat="43.57325" lon="2.01138">
        <ele>348.42837309447</ele>
        <time>2020-03-10T16:45:55Z</time>
      </trkpt>
      <trkpt lat="43.57321" lon="2.01147">
        <ele>347.08765468469</ele>
        <time>2020-03-10T16:46:00Z</time>
      </trkpt>
      <trkpt lat="43.57312" lon="2.01151">
        <ele>352.28167446885</ele>
        <time>2020-03-10T16:46:10Z</time>
      </trkpt>
      <trkpt lat="43.57308" lon="2.01162">
        <ele>362.05027215096</ele>
        <time>2020-03-10T16:46:20Z</time>
      </trkpt>
      <trkpt lat="43.57312" lon="2.01172">
        <ele>369.42599454484</ele>
        <time>2020-03-10T16:46:27Z</time>
      </trkpt>
      <trkpt lat="43.57306" lon="2.01177">
        <ele>371.40359892746</ele>
        <time>2020-03-10T16:46:32Z</time>
      </trkpt>
      <trkpt lat="43.573" lon="2.01185">
        <ele>373.30818153123</ele>
        <time>2020-03-10T16:46:39Z</time>
      </trkpt>
      <trkpt lat="43.57293" lon="2.0119">
        <ele>374.49482239784</ele>
        <time>2020-03-10T16:46:46Z</time>
      </trkpt>
      <trkpt lat="43.57288" lon="2.01199">
        <ele>374.84914148769</ele>
        <time>2020-03-10T16:46:53Z</time>
      </trkpt>
      <trkpt lat="43.57287" lon="2.0121">
        <ele>373.0207952667</ele>
        <time>2020-03-10T16:47:00Z</time>
      </trkpt>
      <trkpt lat="43.57284" lon="2.01221">
        <ele>371.20123489556</ele>
        <time>2020-03-10T16:47:05Z</time>
      </trkpt>
      <trkpt lat="43.57278" lon="2.01226">
        <ele>370.23447945633</ele>
        <time>2020-03-10T16:47:10Z</time>
      </trkpt>
      <trkpt lat="43.57269" lon="2.01224">
        <ele>367.98821364422</ele>
        <time>2020-03-10T16:47:14Z</time>
      </trkpt>
      <trkpt lat="43.57264" lon="2.01233">
        <ele>359.36433708266</ele>
        <time>2020-03-10T16:47:24Z</time>
      </trkpt>
      <trkpt lat="43.57263" lon="2.01243">
        <ele>356.45001864903</ele>
        <time>2020-03-10T16:47:31Z</time>
      </trkpt>
      <trkpt lat="43.57258" lon="2.01255">
        <ele>354.6402355908</ele>
        <time>2020-03-10T16:47:35Z</time>
      </trkpt>
      <trkpt lat="43.57254" lon="2.01265">
        <ele>356.6334565489</ele>
        <time>2020-03-10T16:47:41Z</time>
      </trkpt>
      <trkpt lat="43.57248" lon="2.01274">
        <ele>355.33078242123</ele>
        <time>2020-03-10T16:47:48Z</time>
      </trkpt>
      <trkpt lat="43.57243" lon="2.01281">
        <ele>357.77455117985</ele>
        <time>2020-03-10T16:48:02Z</time>
      </trkpt>
      <trkpt lat="43.57235" lon="2.01282">
        <ele>358.46621142932</ele>
        <time>2020-03-10T16:48:08Z</time>
      </trkpt>
      <trkpt lat="43.57229" lon="2.01288">
        <ele>357.63943790626</ele>
        <time>2020-03-10T16:48:14Z</time>
      </trkpt>
      <trkpt lat="43.57225" lon="2.01299">
        <ele>359.34828475366</ele>
        <time>2020-03-10T16:48:21Z</time>
      </trkpt>
      <trkpt lat="43.5722" lon="2.01308">
        <ele>362.7723449991</ele>
        <time>2020-03-10T16:48:28Z</time>
      </trkpt>
      <trkpt lat="43.57214" lon="2.01318">
        <ele>364.57607168322</ele>
        <time>2020-03-10T16:48:34Z</time>
      </trkpt>
      <trkpt lat="43.5721" lon="2.01328">
        <ele>360.54182418565</ele>
        <time>2020-03-10T16:49:04Z</time>
      </trkpt>
      <trkpt lat="43.57205" lon="2.01337">
        <ele>360.26544861913</ele>
        <time>2020-03-10T16:49:12Z</time>
      </trkpt>
      <trkpt lat="43.57203" lon="2.01348">
        <ele>363.50528978149</ele>
        <time>2020-03-10T16:49:20Z</time>
      </trkpt>
      <trkpt lat="43.572" lon="2.01359">
        <ele>367.13369165195</ele>
        <time>2020-03-10T16:49:32Z</time>
      </trkpt>
      <trkpt lat="43.57193" lon="2.01363">
        <ele>365.38543929461</ele>
        <time>2020-03-10T16:49:43Z</time>
      </trkpt>
      <trkpt lat="43.57185" lon="2.01364">
        <ele>363.70914750071</ele>
        <time>2020-03-10T16:49:49Z</time>
      </trkpt>
      <trkpt lat="43.57176" lon="2.01363">
        <ele>360.72091060631</ele>
        <time>2020-03-10T16:49:57Z</time>
      </trkpt>
      <trkpt lat="43.57168" lon="2.01358">
        <ele>360.20763266788</ele>
        <time>2020-03-10T16:50:05Z</time>
      </trkpt>
      <trkpt lat="43.57162" lon="2.0135">
        <ele>356.76554791461</ele>
        <time>2020-03-10T16:50:14Z</time>
      </trkpt>
      <trkpt lat="43.57155" lon="2.01344">
        <ele>358.51010349118</ele>
        <time>2020-03-10T16:50:25Z</time>
      </trkpt>
      <trkpt lat="43.57147" lon="2.01346">
        <ele>355.03990907162</ele>
        <time>2020-03-10T16:50:35Z</time>
      </trkpt>
      <trkpt lat="43.57142" lon="2.01353">
        <ele>350.57999907469</ele>
        <time>2020-03-10T16:50:53Z</time>
      </trkpt>
      <trkpt lat="43.57133" lon="2.01355">
        <ele>348.00007107973</ele>
        <time>2020-03-10T16:50:58Z</time>
      </trkpt>
      <trkpt lat="43.57125" lon="2.0135">
        <ele>347.65170783625</ele>
        <time>2020-03-10T16:51:06Z</time>
      </trkpt>
      <trkpt lat="43.57117" lon="2.01348">
        <ele>347.0355989151</ele>
        <time>2020-03-10T16:51:12Z</time>
      </trkpt>
      <trkpt lat="43.57108" lon="2.0135">
        <ele>348.86614128155</ele>
        <time>2020-03-10T16:51:24Z</time>
      </trkpt>
      <trkpt lat="43.57101" lon="2.01356">
        <ele>350.54081169961</ele>
        <time>2020-03-10T16:51:31Z</time>
      </trkpt>
      <trkpt lat="43.57099" lon="2.01357">
        <ele>350.31944933387</ele>
        <time>2020-03-10T16:51:58Z</time>
      </trkpt>
      <trkpt lat="43.57099" lon="2.01357">
        <ele>350.31944933387</ele>
        <time>2020-03-10T16:51:58Z</time>
      </trkpt>
    </trkseg>
  </trk>
</gpx>